     2              OBSERVATION DATA    GPS                 RINEX VERSION / TYPE
srx-v1.5-(11/13/93) SEISMO 13-FEB-1994                      PGM / RUN BY / DATE
                                                            COMMENT
sig: 9 8 7 6 5 4 1 0                                        COMMENT
sig: 9 8 7 6 5 4 1 0                                        COMMENT
sig: 9 8 7 6 5 4 1 0                                        COMMENT
Original Marker Name: saf3                                  COMMENT
Campaign Name: jpl 1993-1997                                COMMENT
4-Character Station Name: SAF3                              COMMENT
6-Character Antenna Code: DMRCHT                            COMMENT
Vertical Measurement Point: BPA                             COMMENT
Vertical Offset to Rinex Ref. Point: 0.0000                 COMMENT
Radial Measurement Point: RRP                               COMMENT
Radial Offset to Rinex Ref. Point: 0.0000                   COMMENT
Antenna Height from Field Measurement: 0.0614 m             COMMENT
Additional Antenna Identification Info.:                    COMMENT
Turborogue and Ashtech Choke Ring                           COMMENT
Original XYZ: -2524519.6484 -4630111.7190 3577324.7741      COMMENT
New XYZ position is based on association with SCEC monument COMMENT
E1E9I3F8+0051. Position of that monument is believed to be  COMMENT
valid to within 1 m horizontally; vertical accuracy         COMMENT
should be no worse than 3-times this value.                 COMMENT
                                                            COMMENT
Revised Rinex header created by UCSD GPS archive for        COMMENT
GSAC on 28-May-1999 (1999:148) 22:08:02 GMT                 COMMENT
For assistance contact dagnew@ucsd.edu or hjohnson@ucsd.edu COMMENT
                                                            COMMENT
SAN FERNANDO NO 3                                           MARKER NAME
GNOG JET PROPULSION LABORATORY                              OBSERVER / AGENCY
T263 TURBOROGUE SNR-8000 93.09.02                           REC # / TYPE / VERS
261 DORNE-MARGOL. TYPE T                                    ANT # / TYPE
 -2524518.0000 -4630099.0000  3577358.0000                  APPROX POSITION XYZ
        0.0614        0.0000        0.0000                  ANTENNA: DELTA H/E/N
     1     1     0                                          WAVELENGTH FACT L1/2
     5    L1    L2    P1    P2    C1                        # / TYPES OF OBSERV
    30                                                      INTERVAL
  1994     2    12    11     0   30.000000                  TIME OF FIRST OBS
  1994     2    12    23    59   30.000000                  TIME OF LAST OBS
    22                                                      # OF SATELLITES
                                                            END OF HEADER
 94 02 12 11 00 30.0000000  0  2 03 28
        -0.38718         0.38818  20545104.54618  20545107.05418         0.00011
        -1.23258        -0.53454         0.00051  23566533.63054  23566530.53158
 94 02 12 11 01 00.0000000  0  2 03 28
     23441.44608     18266.73708  20549565.56408  20549567.89908         0.00001
   -112699.09848    -87817.05544         0.00041  23545084.90244  23545086.09448
 94 02 12 11 01 30.0000000  0  2 03 28
     47471.22608     36991.23008  20554138.39008  20554140.61108         0.00001
   -225176.56748   -175461.85845         0.00041  23523680.23645  23523681.07048
 94 02 12 11 02 00.0000000  0  2 03 28
     72071.81808     56160.51408  20558819.71108  20558821.79408         0.00001
   -337451.40948   -262948.70344         0.00041  23502323.50044  23502316.30048
 94 02 12 11 02 30.0000000  0  2 03 28
     97118.38908     75677.30808  20563585.80108  20563588.08008         0.00001
   -449633.02748   -350363.01544         0.00041  23480968.78144  23480969.43848
 94 02 12 11 03 00.0000000  0  2 03 28
    122776.87808     95670.92908  20568468.51808  20568470.71008         0.00001
   -561543.76448   -437566.17644         0.00041  23459676.13044  23459673.83448
 94 02 12 11 03 30.0000000  0  2 03 28
    148956.53008    116070.65208  20573450.24008  20573452.57108         0.00001
   -673262.94448   -524620.08444         0.00041  23438414.92244  23438416.49448
 94 02 12 11 04 00.0000000  0  3 03 22 28
    175622.14008    136849.04808  20578524.39608  20578526.88908         0.00001
        -0.41157         0.18154         0.00051  23731185.70254  23731191.91157
   -784814.64748   -611543.46345         0.00041  23417189.86845  23417188.74248
 94 02 12 11 04 30.0000000  0  3 03 22 28
    202860.00908    158073.34308  20583707.82008  20583710.24508         0.00001
     24522.62747     19108.94144         0.00041  23735862.21244  23735856.30847
   -896099.47748   -698258.97744         0.00041  23396013.81744  23396007.25548
 94 02 12 11 05 00.0000000  0  2 03 28
    230567.60708    179663.67008  20588980.32908  20588982.68408         0.00001
  -1007207.82148   -784836.90144         0.00041  23374869.31944  23374864.20648
 94 02 12 11 05 30.0000000  0  2 03 28
    258847.43208    201699.89508  20594361.74108  20594364.11708         0.00001
  -1118019.73048   -871183.85045         0.00041  23353784.76845  23353780.89748
 94 02 12 11 06 00.0000000  0  2 03 28
    287655.44008    224147.68108  20599843.78308  20599846.20308         0.00001
  -1228565.15248   -957323.08144         0.00041  23332748.03544  23332745.57948
 94 02 12 11 06 30.0000000  0  3 03 22 28
    316936.56108    246964.13208  20605415.87608  20605418.14808         0.00001
        -0.51657         0.28854         0.00051  23755189.54554  23755198.21457
  -1338913.02848  -1043308.49245         0.00041  23311749.72045  23311747.96648
 94 02 12 11 07 00.0000000  0  2 03 28
    346821.85908    270251.37008  20611102.68608  20611105.22108         0.00001
  -1448944.51248  -1129047.33245         0.00041  23290808.28145  23290807.84848
 94 02 12 11 07 30.0000000  0  2 03 28
    377183.79408    293910.00608  20616880.50508  20616882.99608         0.00001
  -1558804.78748  -1214652.71745         0.00041  23269902.71345  23269903.98048
 94 02 12 11 08 00.0000000  0  2 03 28
    408003.67608    317925.48408  20622745.32008  20622747.66808         0.00001
  -1668531.92848  -1300154.35945         0.00041  23249022.78645  23249023.33548
 94 02 12 11 08 30.0000000  0  3 03 22 28
    439469.57908    342444.36008  20628733.26608  20628735.34808         0.00001
         0.14958         0.73654         0.00051  23775640.74454  23775640.18358
  -1777945.96648  -1385412.06145         0.00041  23228202.96745  23228199.20548
 94 02 12 11 09 00.0000000  0  3 03 22 28
    471395.96108    367322.05608  20634808.51208  20634810.85208         0.00001
     27734.62548     21611.90044         0.00041  23780913.10144  23780915.52348
  -1887205.25748  -1470549.17845         0.00041  23207412.75745  23207411.25948
 94 02 12 11 09 30.0000000  0  3 03 22 28
    503935.30608    392677.38308  20641000.41608  20641002.74708         0.00001
     55908.92747     43565.92444         0.00041  23786275.42644  23786275.16747
  -1996151.27848  -1555442.17045         0.00041  23186679.34145  23186681.10548
 94 02 12 11 10 00.0000000  0  3 03 22 28
    537021.92608    418459.15508  20647296.55608  20647299.01608         0.00001
     84449.79548     65805.48044         0.00041  23791707.18444  23791707.54648
  -2104837.39248  -1640132.66745         0.00041  23165994.12345  23165996.38448
 94 02 12 11 10 30.0000000  0  3 03 22 28
    570570.25508    444600.70108  20653680.92808  20653683.22508         0.00001
    113260.09048     88255.13644         0.00041  23797189.35444  23797190.94248
  -2213344.79248  -1724683.85745         0.00041  23145348.40845  23145343.88448
 94 02 12 11 11 00.0000000  0  3 03 22 28
    604723.23308    471213.40708  20660180.14608  20660182.33508         0.00001
    142477.12847    111021.60144         0.00041  23802754.96544  23802747.78847
  -2321541.39748  -1808992.91445         0.00041  23124763.28245  23124761.33448
 94 02 12 11 11 30.0000000  0  3 03 22 28
    639428.86208    498256.74808  20666784.48508  20666786.30608         0.00001
    172061.51547    134074.51344         0.00041  23808380.37144  23808376.93447
  -2429493.24048  -1893111.24245         0.00041  23104218.22945  23104217.35648
 94 02 12 11 12 00.0000000  0  3 03 22 28
    674586.64808    525652.43108  20673474.62108  20673476.52008         0.00001
    201917.47047    157338.80544         0.00041  23814066.88044  23814063.44947
  -2537288.64848  -1977107.62645         0.00041  23083701.19145  23083701.14548
 94 02 12 11 12 30.0000000  0  2 03 28
    710356.01708    553524.66408  20680281.24508  20680283.69808         0.00001
  -2644762.70448  -2060853.65045         0.00041  23063253.58645  23063252.23748
 94 02 12 11 13 00.0000000  0  2 03 28
    746608.02908    581772.97908  20687179.79008  20687182.25108         0.00001
  -2752025.24148  -2144434.84845         0.00041  23042839.16545  23042838.25648
 94 02 12 11 13 30.0000000  0  2 03 28
    783416.50808    610454.89408  20694183.98708  20694186.67408         0.00001
  -2858986.38748  -2227781.20045         0.00041  23022487.62545  23022484.47748
 94 02 12 11 14 00.0000000  0  2 03 28
    820809.18708    639592.02908  20701299.94708  20701302.20908         0.00001
  -2965618.49248  -2310871.12745         0.00041  23002195.47945  23002194.39348
 94 02 12 11 14 30.0000000  0  2 03 28
    858669.42708    669093.52008  20708504.15608  20708506.72908         0.00001
  -3072049.47748  -2393804.35345         0.00041  22981942.79745  22981940.66848
 94 02 12 11 15 00.0000000  0  2 03 28
    897150.60408    699078.83008  20715826.95708  20715829.39308         0.00001
  -3178128.55748  -2476463.39245         0.00041  22961754.47845  22961754.73548
 94 02 12 11 15 30.0000000  0  2 03 28
    936132.77208    729454.54508  20723245.13408  20723247.54608         0.00001
  -3283978.45448  -2558943.79745         0.00041  22941616.36445  22941613.97648
 94 02 12 11 16 00.0000000  0  2 03 28
    975590.59208    760200.87508  20730754.02108  20730756.25808         0.00001
  -3389617.87348  -2641260.22845         0.00041  22921510.67045  22921509.38248
 94 02 12 11 16 30.0000000  0  2 03 28
   1015648.64908    791414.93808  20738376.91708  20738378.91608         0.00001
  -3494907.72748  -2723304.26845         0.00041  22901476.13845  22901474.05348
 94 02 12 11 17 00.0000000  0  2 03 28
   1056202.07508    823015.01108  20746093.64808  20746095.80908         0.00001
  -3599933.32948  -2805142.41445         0.00041  22881488.44545  22881490.30248
 94 02 12 11 17 30.0000000  0  2 03 28
   1097317.62208    855053.07608  20753917.53308  20753920.10008         0.00001
  -3704630.52948  -2886724.62845         0.00041  22861562.52445  22861566.15948
 94 02 12 11 18 00.0000000  0  3 03 22 28
   1138995.65908    887529.45308  20761848.66208  20761851.16008         0.00001
         0.14457         0.48554         0.00051  23887398.41054  23887395.64957
  -3809000.65648  -2968051.99645         0.00041  22841703.24945  22841703.67048
 94 02 12 11 18 30.0000000  0  3 03 22 28
   1181135.91308    920365.99108  20769867.62808  20769870.26108         0.00001
     34214.23147     26660.87544         0.00041  23893914.96144  23893907.32647
  -3913145.19448  -3049203.54045         0.00041  22821888.76245  22821886.51248
 94 02 12 11 19 00.0000000  0  3 03 22 28
   1223882.95208    953675.36708  20778002.26008  20778004.66108         0.00001
     68788.47447     53601.80644         0.00041  23900485.29744  23900486.83247
  -4016925.75248  -3130071.54545         0.00041  22802135.75345  22802135.83248
 94 02 12 11 19 30.0000000  0  3 03 22 28
   1267151.91908    987391.44308  20786235.95708  20786238.45208         0.00001
    103659.09347     80773.90544         0.00041  23907110.64644  23907120.42247
  -4120432.99148  -3210726.52945         0.00041  22782437.21345  22782439.18548
 94 02 12 11 20 00.0000000  0  2 03 28
   1310881.38308   1021466.33508  20794557.15608  20794559.83408         0.00001
  -4223712.05548  -3291203.70245         0.00041  22762787.12145  22762785.49648
 94 02 12 11 20 30.0000000  0  2 03 28
   1355232.89008   1056025.93108  20802997.30908  20802999.63908         0.00001
  -4326600.17148  -3371376.27445         0.00041  22743205.14745  22743204.69148
 94 02 12 11 21 00.0000000  0  2 03 28
   1400026.97908   1090930.40908  20811521.36808  20811523.84508         0.00001
  -4429271.83048  -3451380.21745         0.00041  22723670.56745  22723666.82648
 94 02 12 11 21 30.0000000  0  3 03 26 28
   1445420.29508   1126301.81908  20820159.54008  20820161.80308         0.00001
        -0.39958         0.18554         0.00051  23537493.35454  23537490.30958
  -4531561.62448  -3531086.55045         0.00041  22704205.14545  22704203.39748
 94 02 12 11 22 00.0000000  0  3 03 26 28
   1491361.22208   1162099.93608  20828901.65008  20828903.91408         0.00001
     64713.61948     50426.62444         0.00041  23549808.57644  23549804.93448
  -4633523.48748  -3610537.36845         0.00041  22684803.27845  22684802.33448
 94 02 12 11 22 30.0000000  0  3 03 26 28
   1537757.09708   1198252.55508  20837730.43508  20837732.65308         0.00001
    129724.08148    101084.17944         0.00041  23562183.01844  23562177.16048
  -4735258.57748  -3689811.44045         0.00041  22665443.33545  22665442.47348
 94 02 12 11 23 00.0000000  0  3 03 26 28
   1584724.46408   1234850.50608  20846668.02708  20846670.26908         0.00001
    195145.66248    152062.09345         0.00041  23574629.32645  23574626.54148
  -4836636.05248  -3768806.91545         0.00041  22646152.96545  22646150.37948
 94 02 12 11 23 30.0000000  0  3 03 26 28
   1634201.46608   1273404.01108  20856083.19008  20856085.65508         0.00001
    262914.74248    204869.12845         0.00041  23587528.33545  23587523.44748
  -4935719.73748  -3846014.96545         0.00041  22627301.01845  22627295.26748
 94 02 12 11 24 00.0000000  0  3 03 26 28
   1696304.51508   1321795.97308  20867900.92808  20867903.68108         0.00001
    343150.06348    267390.10644         0.00041  23602797.17744  23602793.30648
  -5022392.70548  -3913552.33445         0.00041  22610804.25045  22610803.30448
 94 02 12 11 24 30.0000000  0  3 03 26 28
   1759536.92408   1371067.96108  20879933.74808  20879936.37908         0.00001
    424349.33248    330662.32845         0.00041  23618248.63245  23618247.48648
  -5108134.81748  -3980364.39045         0.00041  22594488.27845  22594485.58548
 94 02 12 11 25 00.0000000  0  3 03 26 28
   1823302.75208   1420755.61708  20892068.15108  20892070.74408         0.00001
    505913.00248    394218.45445         0.00041  23633769.35445  23633766.58448
  -5193529.91948  -4046906.04245         0.00041  22578235.65745  22578236.73648
 94 02 12 11 25 30.0000000  0  2 03 28
   1887532.66908   1470804.89408  20904290.77908  20904293.30208         0.00001
  -5278650.60048  -4113233.82045         0.00041  22562040.85945  22562036.53248
 94 02 12 11 26 00.0000000  0  2 03 28
   1952308.58508   1521279.63508  20916617.22108  20916619.39108         0.00001
  -5363402.75348  -4179274.46645         0.00041  22545915.58245  22545910.84348
 94 02 12 11 26 30.0000000  0  2 03 28
   2017546.79608   1572114.60808  20929031.38808  20929033.77408         0.00001
  -5447866.47748  -4245090.37245         0.00041  22529838.27845  22529835.78848
 94 02 12 11 27 00.0000000  0  2 03 28
   2083280.33108   1623335.52408  20941540.20208  20941542.45108         0.00001
  -5532018.43448  -4310663.30245         0.00041  22513824.02745  22513821.86748
 94 02 12 11 28 30.0000000  0  1 03
        -0.43718        -0.21018  20979445.79718  20979448.26518         0.00011
 94 02 12 11 29 00.0000000  0  1 03
     67835.36608     52858.83708  20992354.37408  20992356.76008         0.00001
 94 02 12 11 29 30.0000000  0  1 03
    136279.69808    106192.09308  21005378.94008  21005381.28408         0.00001
 94 02 12 11 30 00.0000000  0  1 03
    205138.66008    159848.41508  21018482.34208  21018485.08008         0.00001
 94 02 12 11 30 30.0000000  0  1 03
    274441.19908    213850.37808  21031670.18708  21031673.20708         0.00001
 94 02 12 11 31 00.0000000  0  1 03
    344262.49008    268256.56908  21044956.51108  21044959.60408         0.00001
 94 02 12 11 31 30.0000000  0  1 03
    414607.32708    323070.70108  21058342.74308  21058345.76508         0.00001
 94 02 12 11 32 00.0000000  0  1 03
    485464.64908    378284.18208  21071826.48808  21071829.23408         0.00001
 94 02 12 11 32 30.0000000  0  1 03
    556886.01908    433937.16108  21085417.30008  21085420.24408         0.00001
 94 02 12 11 33 00.0000000  0  1 03
    628906.92008    490057.31308  21099122.78408  21099124.98408         0.00001
 94 02 12 11 33 30.0000000  0  1 03
    701499.70908    546623.13808  21112936.98908  21112938.93508         0.00001
 94 02 12 11 34 00.0000000  0  2 03 26
    774528.40208    603528.61908  21126833.68808  21126836.12408         0.00001
        -0.50358         0.22954         0.00051  23923336.02754  23923325.69258
 94 02 12 11 34 30.0000000  0  2 03 26
    848129.85608    660880.39208  21140839.36108  21140842.38108         0.00001
     87708.31148     68344.83944         0.00041  23940015.11844  23940015.28348
 94 02 12 11 35 00.0000000  0  2 03 26
    922269.32308    718651.36208  21154947.59808  21154950.74708         0.00001
    175748.78148    136947.81644         0.00041  23956772.42744  23956766.72048
 94 02 12 11 35 30.0000000  0  3 03 09 26
    996937.43908    776834.28508  21169156.69308  21169159.17208         0.00001
        -0.95558        -0.33454         0.00051  24965030.26254  24965028.23358
    264104.78947    205796.70044         0.00041  23973583.06844  23973575.61547
 94 02 12 11 36 00.0000000  0  3 03 09 26
   1072028.59508    835346.86008  21183446.28708  21183448.51408         0.00001
    -56713.09348    -44191.09644         0.00041  24954239.29444  24954238.11548
    352670.38348    274808.83344         0.00041  23990434.59644  23990432.18248
 94 02 12 11 36 30.0000000  0  2 03 26
   1147715.41208    894323.59508  21197849.09508  21197851.31508         0.00001
    441614.22348    344115.68744         0.00041  24007361.62044  24007358.44848
 94 02 12 11 37 00.0000000  0  2 03 26
   1223914.52708    953699.52408  21212349.20308  21212351.86508         0.00001
    530849.86848    413650.01244         0.00041  24024343.34044  24024339.73148
 94 02 12 11 37 30.0000000  0  2 03 26
   1300562.54508   1013425.24108  21226934.91908  21226937.51808         0.00001
    620320.90948    483367.69744         0.00041  24041371.14844  24041366.00648
 94 02 12 11 38 00.0000000  0  2 03 26
   1377666.30608   1073506.08408  21241607.24008  21241609.53608         0.00001
    710037.30448    553276.58444         0.00041  24058439.84044  24058439.21448
 94 02 12 11 38 30.0000000  0  2 03 26
   1455349.63308   1134038.54108  21256389.75008  21256392.12708         0.00001
    800118.53848    623469.72244         0.00041  24075584.64944  24075578.98348
 94 02 12 11 39 00.0000000  0  2 03 26
   1533542.01308   1194967.67208  21271269.15308  21271271.65308         0.00001
    890494.95748    693892.94644         0.00041  24092783.05744  24092778.44248
 94 02 12 11 39 30.0000000  0  2 03 26
   1612130.22708   1256205.22908  21286224.43108  21286226.67408         0.00001
    981049.61148    764454.96144         0.00041  24110021.36744  24110013.62148
 94 02 12 11 40 00.0000000  0  2 03 26
   1691301.75108   1317897.32008  21301290.24408  21301292.63808         0.00001
   1071969.74648    835301.90544         0.00041  24127320.55344  24127314.83048
 94 02 12 11 40 30.0000000  0  1 03
   1770972.36308   1379978.29908  21316450.69308  21316453.62208         0.00001
 94 02 12 11 41 00.0000000  0  1 03
   1851058.94708   1442383.41308  21331690.73708  21331693.63608         0.00001
 94 02 12 11 41 30.0000000  0  1 03
   1931550.80008   1505104.32108  21347007.92108  21347010.86208         0.00001
 94 02 12 11 42 00.0000000  0  1 03
   2012620.71108   1568275.67008  21362434.82808  21362437.90708         0.00001
 94 02 12 11 42 30.0000000  0  1 03
   2094155.96008   1631809.60008  21377950.11008  21377953.70808         0.00001
 94 02 12 11 43 00.0000000  0  1 03
   2176188.26108   1695730.82908  21393560.68508  21393563.79708         0.00001
 94 02 12 11 43 30.0000000  0  1 03
   2258650.57208   1759987.16308  21409253.06808  21409255.86308         0.00001
 94 02 12 11 44 00.0000000  0  1 03
   2341674.98808   1824681.50908  21425052.00708  21425054.77008         0.00001
 94 02 12 11 44 30.0000000  0  1 03
   2425192.90908   1889760.40508  21440945.05508  21440947.62808         0.00001
 94 02 12 11 45 00.0000000  0  1 03
   2509103.01608   1955144.90008  21456912.82108  21456914.79208         0.00001
 94 02 12 11 45 30.0000000  0  1 03
   2593511.14808   2020917.47607  21472975.02708  21472976.85607         0.00001
 94 02 12 11 46 00.0000000  0  1 03
   2678422.13508   2087081.88908  21489133.12208  21489135.21308         0.00001
 94 02 12 11 46 30.0000000  0  1 03
   2763915.07208   2153699.76508  21505401.86508  21505404.21608         0.00001
 94 02 12 11 47 00.0000000  0  2 03 09
   2849848.80208   2220661.08908  21521754.19408  21521756.83408         0.00001
        -0.40657         0.44654         0.00051  24725760.88054  24725760.21757
 94 02 12 11 47 30.0000000  0  2 03 09
   2936310.42408   2288033.74008  21538207.23408  21538210.00508         0.00001
    -52145.91047    -40632.32844         0.00041  24715838.27744  24715836.62847
 94 02 12 11 48 00.0000000  0  2 03 09
   3023241.45008   2355772.17707  21554749.77208  21554752.35807         0.00001
   -104078.41248    -81099.10444         0.00041  24705965.32944  24705958.96348
 94 02 12 11 48 30.0000000  0  3 03 09 17
   3110600.13408   2423843.87807  21571373.66208  21571376.30907         0.00001
   -155835.44347   -121429.03244         0.00041  24696117.95144  24696113.34847
        -0.10058         0.26056         0.00051  21194413.20956  21194409.32658
 94 02 12 11 49 00.0000000  0  2 03 17
   3198356.47508   2492225.45407  21588073.36308  21588075.90107         0.00001
     44976.68448     35047.08746         0.00041  21202971.48146  21202968.07148
 94 02 12 11 49 30.0000000  0  2 03 17
   3286443.84508   2560864.97508  21604835.74508  21604838.44708         0.00001
     90065.85648     70181.51146         0.00041  21211552.06046  21211549.21448
 94 02 12 11 50 00.0000000  0  2 03 17
   3375074.70408   2629927.98408  21621701.54608  21621704.06708         0.00001
    135489.84648    105576.81946         0.00041  21220194.76046  21220192.32048
 94 02 12 11 50 30.0000000  0  2 03 17
   3464312.17908   2699463.67208  21638682.77808  21638685.49408         0.00001
    181319.94448    141288.57646         0.00041  21228916.20846  21228913.03748
 94 02 12 11 51 00.0000000  0  3 03 09 17
   3554036.14208   2769378.43608  21655756.43908  21655759.29608         0.00001
        -0.41858         0.25454         0.00051  24647431.08854  24647425.27158
    227439.59448    177225.96446         0.00041  21237692.77646  21237690.45148
 94 02 12 11 51 30.0000000  0  4 03 09 17 31
   3646448.05708   2841387.68808  21673341.85208  21673344.78108         0.00001
    -48149.55348    -37518.78244         0.00041  24638259.75444  24638264.92548
    276061.14848    215112.89446         0.00041  21246944.17246  21246943.11448
        -0.12058         0.18554         0.00051  24733292.27754  24733291.95658
 94 02 12 11 52 00.0000000  0  4 03 09 17 31
   3749105.25408   2921380.26608  21692877.26908  21692879.92408         0.00001
    -86286.94248    -67236.10844         0.00041  24631007.88444  24631009.19348
    334741.01848    260837.47646         0.00041  21258111.48646  21258109.12748
    -84979.99648    -66217.86044         0.00041  24717130.56344  24717119.97548
 94 02 12 11 52 30.0000000  0  4 03 09 17 31
   3852568.17908   3002000.71908  21712565.65908  21712568.20708         0.00001
   -123844.13148    -96501.48444         0.00041  24623861.24144  24623862.27348
    394053.42048    307054.93246         0.00041  21269398.60846  21269395.76048
   -169432.76948   -132025.18744         0.00041  24701052.66044  24701049.93348
 94 02 12 11 53 00.0000000  0  4 03 09 17 31
   3955333.98608   3082077.95107  21732121.14108  21732123.77207         0.00001
   -162292.78747   -126461.29344         0.00041  24616550.39144  24616546.86047
    452506.32748    352602.65046         0.00041  21280521.36446  21280518.38248
   -254841.60348   -198577.58344         0.00041  24684795.18244  24684796.28048
 94 02 12 11 53 30.0000000  0  3 03 17 31
   4057783.95108   3161909.08707  21751616.82008  21751619.28707         0.00001
    510478.80648    397776.00346         0.00041  21291553.63846  21291550.70148
   -340822.01347   -265575.34244         0.00041  24668437.35144  24668433.14947
 94 02 12 11 54 00.0000000  0  3 03 17 31
   4160150.59408   3241675.29207  21771096.69008  21771098.85307         0.00001
    568207.44548    442759.35346         0.00041  21302539.47146  21302535.54848
   -427137.54748   -332834.19344         0.00041  24652008.41944  24652009.60948
 94 02 12 11 54 30.0000000  0  3 03 17 31
   4262972.23308   3321796.06007  21790662.97608  21790665.21407         0.00001
    626229.27248    487971.16346         0.00041  21313578.08346  21313575.94648
   -513234.34248   -399922.64844         0.00041  24635627.47444  24635626.96648
 94 02 12 11 55 00.0000000  0  3 03 17 31
   4366251.61908   3402273.51207  21810316.46008  21810318.69907         0.00001
    684514.03248    533387.84346         0.00041  21324669.25646  21324668.48448
   -599105.87547   -466835.55244         0.00041  24619283.85144  24619282.56847
 94 02 12 11 55 30.0000000  0  3 03 17 31
   4469928.51308   3483060.70407  21830045.18008  21830047.97607         0.00001
    742989.12148    578952.84746         0.00041  21335796.14646  21335796.03348
   -684822.29248   -533627.44444         0.00041  24602964.55644  24602974.87848
 94 02 12 11 56 00.0000000  0  3 03 17 31
   4574085.22908   3564221.74708  21849865.33608  21849868.57308         0.00001
    801750.50548    624740.95646         0.00041  21346979.24646  21346977.04348
   -770285.36948   -600222.00644         0.00041  24586717.02744  24586714.11948
 94 02 12 11 56 30.0000000  0  3 03 17 31
   4678682.68308   3645726.21108  21869769.79708  21869772.68508         0.00001
    860754.24148    670717.87246         0.00041  21358208.45346  21358205.56248
   -855520.84747   -666639.29144         0.00041  24570492.86344  24570490.82147
 94 02 12 11 57 00.0000000  0  4 03 09 17 31
   4783743.16408   3727591.49608  21889762.22808  21889764.85108         0.00001
         0.25357         0.86254         0.00051  24557951.29954  24557956.18357
    920028.24048    716905.40346         0.00041  21369487.54846  21369485.76048
   -940494.81847   -732852.58344         0.00041  24554321.48644  24554319.35047
 94 02 12 11 57 30.0000000  0  1 17
    978357.73248    762356.95146         0.00041  21380587.70146  21380585.04648
 94 02 12 12 00 00.0000000  0  1 21
        -0.36758        -0.35156         0.00051  20960545.00156  20960542.96958
 94 02 12 12 00 30.0000000  0  2 21 28
    -25337.28548    -19743.38946         0.00041  20955724.43746  20955721.49548
        -1.01458        -0.91456         0.00051  21648427.51056  21648426.59258
 94 02 12 12 01 00.0000000  0  3 17 21 28
        -0.99158        -0.62256         0.00051  21456295.33256  21456294.76858
    -50206.23648    -39121.79046         0.00041  20950992.18046  20950989.52348
    -48055.50748    -37445.96046         0.00041  21639283.09246  21639281.95548
 94 02 12 12 01 30.0000000  0  3 17 21 28
     58138.79248     45303.09946         0.00041  21467360.80846  21467358.53648
    -74895.66148    -58360.30046         0.00041  20946293.37146  20946291.75748
    -95669.76548    -74547.98446         0.00041  21630221.41746  21630219.29448
 94 02 12 12 02 00.0000000  0  3 17 21 28
    116700.22148     90935.37246         0.00041  21478504.82146  21478501.86248
    -99122.13748    -77238.06946         0.00041  20941683.75846  20941680.83848
   -142562.55848   -111087.81546         0.00041  21621300.04146  21621296.43148
 94 02 12 12 02 30.0000000  0  4 03 17 21 28
         0.23518         0.43717  22107575.30318  22107577.68717         0.00011
    175115.23748    136453.56046         0.00041  21489621.12746  21489618.71948
   -123465.51848    -96206.91746         0.00041  20937051.41046  20937048.49648
   -189320.77548   -147522.79046         0.00041  21612400.94746  21612400.26748
 94 02 12 12 03 00.0000000  0  4 03 17 21 28
    106004.47308     82601.13507  22127747.00508  22127749.79907         0.00001
    233531.63148    181972.82646         0.00041  21500737.47946  21500735.20648
   -147803.92248   -115171.88246         0.00041  20932419.88046  20932416.97848
   -235807.48248   -183746.19146         0.00041  21603555.22546  21603553.35248
 94 02 12 12 03 30.0000000  0  5 03 17 21 28 31
    214162.45808    166880.05907  22148328.83008  22148331.59107         0.00001
    293969.58248    229067.32546         0.00041  21512239.32346  21512235.69848
   -170134.31148   -132572.18046         0.00041  20928169.96946  20928167.82748
   -280007.64948   -218187.88546         0.00041  21595145.02746  21595141.68148
        -0.78957        -0.40554         0.00051  24339565.02454  24339567.11757
 94 02 12 12 04 00.0000000  0  5 03 17 21 28 31
    331006.96108    257927.70307  22170563.45608  22170566.42207         0.00001
    362970.19848    282834.01746         0.00041  21525369.00646  21525366.05548
   -183924.97348   -143318.13946         0.00041  20925546.23446  20925543.83948
   -315394.49848   -245762.06246         0.00041  21588409.05846  21588407.72748
    -75676.77747    -58968.54644         0.00041  24325172.56044  24325167.38347
 94 02 12 12 04 30.0000000  0  5 03 17 21 28 31
    461710.32008    359774.45207  22195435.54808  22195438.38807         0.00001
    445715.42748    347310.80846         0.00041  21541113.91446  21541111.82048
   -183999.55448   -143376.22846         0.00041  20925532.11146  20925529.24248
   -336812.35748   -262451.27546         0.00041  21584333.23346  21584334.61148
   -137626.08948   -107240.87344         0.00041  24313381.16444  24313378.95848
 94 02 12 12 05 00.0000000  0  5 03 17 21 28 31
    606424.37708    472538.62407  22222973.64808  22222976.60807         0.00001
    542352.34048    422612.29946         0.00041  21559503.44846  21559502.24648
   -170201.74448   -132624.66346         0.00041  20928157.99046  20928154.70048
   -344108.23448   -268136.35246         0.00041  21582946.87246  21582944.99748
   -185691.32947   -144694.26644         0.00041  24304230.79644  24304230.66847
 94 02 12 12 05 30.0000000  0  5 03 17 21 28 31
    755670.00108    588833.88107  22251374.19408  22251377.05207         0.00001
    643389.64848    501342.65146         0.00041  21578730.90646  21578728.41148
   -151994.35948   -118437.06346         0.00041  20931622.34646  20931619.35248
   -346763.84248   -270205.66746         0.00041  21582441.48146  21582437.60648
   -229343.52348   -178709.06344         0.00041  24295919.43044  24295928.75948
 94 02 12 12 06 00.0000000  0  5 03 17 21 28 31
    892021.73408    695081.95807  22277321.42908  22277323.79907         0.00001
    731405.67348    569926.56346         0.00041  21595479.19746  21595478.02848
   -146793.81948   -114384.67746         0.00041  20932611.15246  20932609.66748
   -362200.49748   -282234.24746         0.00041  21579504.10846  21579501.92048
   -286010.46548   -222865.08644         0.00041  24285151.54844  24285148.32048
 94 02 12 12 06 30.0000000  0  5 03 17 21 28 31
   1014074.81808    790188.21107  22300547.25808  22300549.55107         0.00001
    804997.36948    627270.74946         0.00041  21609482.26346  21609480.76148
   -156014.06448   -121569.27146         0.00041  20930856.82346  20930855.29648
   -391811.82548   -305307.98746         0.00041  21573867.61946  21573867.40448
   -357099.58448   -278259.27044         0.00041  24271618.79444  24271617.96948
 94 02 12 12 07 00.0000000  0  5 03 17 21 28 31
   1131403.36208    881613.03507  22322874.12908  22322876.46907         0.00001
    873734.27348    680831.97246         0.00041  21622563.24446  21622560.43848
   -170087.25648   -132535.39746         0.00041  20928178.61446  20928176.56548
   -426000.14348   -331948.21246         0.00041  21567361.74646  21567359.99848
   -433037.59148   -337431.69444         0.00041  24257166.92444  24257166.48348
 94 02 12 12 07 30.0000000  0  5 03 17 21 28 31
   1248286.00708    972690.42107  22345116.31808  22345118.63107         0.00001
    941901.34148    733949.14546         0.00041  21635535.40046  21635532.66348
   -184730.86848   -143945.98146         0.00041  20925393.03746  20925390.10248
   -460481.57948   -358816.86346         0.00041  21560800.37446  21560796.90448
   -509556.71248   -397057.04644         0.00041  24242610.58244  24242606.73048
 94 02 12 12 08 00.0000000  0  5 03 17 21 28 31
   1362222.20008   1061471.87807  22366797.80608  22366799.96407         0.00001
   1007012.98048    784685.48246         0.00041  21647926.42046  21647923.24948
   -202453.05448   -157755.45446         0.00041  20922020.29146  20922017.34848
   -497755.86248   -387861.75846         0.00041  21553706.95946  21553706.57848
   -589155.98147   -459082.47844         0.00041  24227453.89244  24227452.73247
 94 02 12 12 08 30.0000000  0  5 03 17 21 28 31
   1473586.00808   1148248.91707  22387989.70108  22387992.02107         0.00001
   1069436.93048    833327.50446         0.00041  21659803.31346  21659801.85748
   -222886.92948   -173677.93846         0.00041  20918131.84446  20918129.02548
   -537443.70348   -418787.33746         0.00041  21546154.82146  21546153.50648
   -671448.39048   -523206.39444         0.00041  24211795.12544  24211795.16548
 94 02 12 12 09 00.0000000  0  5 03 17 21 28 31
   1583845.10308   1234165.09307  22408971.12608  22408973.91707         0.00001
   1130646.67348    881023.41946         0.00041  21671452.07446  21671450.41148
   -244555.08448   -190562.19746         0.00041  20914008.02546  20914006.19348
   -578082.08848   -450453.60046         0.00041  21538421.50346  21538419.60948
   -754959.34548   -588279.98444         0.00041  24195911.62544  24195906.16648
 94 02 12 12 09 30.0000000  0  5 03 17 21 28 31
   1692743.76708   1319021.19707  22429693.90508  22429696.40607         0.00001
   1190387.95948    927575.05646         0.00041  21682822.20246  21682818.75248
   -267702.35748   -208599.02446         0.00041  20909604.04046  20909601.62548
   -619921.44548   -483055.70946         0.00041  21530459.41046  21530457.31248
   -839926.02748   -654487.84844         0.00041  24179739.31444  24179737.38448
 94 02 12 12 10 00.0000000  0  5 03 17 21 28 31
   1800845.62608   1403256.42807  22450264.85708  22450267.41007         0.00001
   1249228.49248    973424.82746         0.00041  21694018.76346  21694015.20348
   -291772.67948   -227355.10346         0.00041  20905023.12446  20905021.21648
   -662385.15448   -516144.31446         0.00041  21522380.41846  21522377.82548
   -925771.89948   -721380.67444         0.00041  24163403.51644  24163400.69948
 94 02 12 12 10 30.0000000  0  5 03 17 21 28 31
   1908097.58308   1486829.35507  22470674.19408  22470677.13507         0.00001
   1307116.53948   1018532.39846         0.00041  21705034.81146  21705031.37148
   -316819.07748   -246871.76246         0.00041  20900257.24346  20900254.10348
   -705505.63548   -549744.67846         0.00041  21514172.31046  21514171.54148
  -1012547.14648   -788997.79644         0.00041  24146888.48544  24146889.87148
 94 02 12 12 11 00.0000000  0  6 03 09 17 21 28 31
   2015502.24408   1570521.29607  22491112.78108  22491115.37307         0.00001
        -0.84757        -0.75954         0.00051  24390192.13754  24390192.29557
   1365057.84848   1063681.47846         0.00041  21716060.19846  21716057.68048
   -341830.06748   -266360.82646         0.00041  20895496.69046  20895494.15948
   -748265.48448   -583064.04746         0.00041  21506036.40446  21506034.69648
  -1099243.09748   -856552.98944         0.00041  24130387.78744  24130390.01648
 94 02 12 12 11 30.0000000  0  5 03 17 21 28 31
   2122769.55308   1654106.21007  22511524.67608  22511527.61607         0.00001
   1422763.88148   1108647.23846         0.00041  21727041.51846  21727038.32048
   -367094.32448   -286047.24746         0.00041  20890689.82646  20890687.17848
   -790941.79948   -616318.31746         0.00041  21497915.20746  21497913.44748
  -1186134.11148   -924260.32844         0.00041  24113850.02444  24113855.61648
 94 02 12 12 12 00.0000000  0  5 03 17 21 28 31
   2229658.50607   1737396.26907  22531864.40207  22531867.94707         0.00001
   1480006.52548   1153251.87746         0.00041  21737934.16246  21737931.24448
   -392857.70448   -306122.58946         0.00041  20885787.39846  20885785.21548
   -833784.36348   -649702.13146         0.00041  21489763.48446  21489761.87648
  -1273459.23848   -992305.86144         0.00041  24097240.65844  24097239.68148
 94 02 12 12 12 30.0000000  0  5 03 17 21 28 31
   2336167.68207   1820390.40007  22552132.76407  22552135.79507         0.00001
   1536773.86248   1197486.16046         0.00041  21748736.47946  21748733.31348
   -419102.22148   -326572.84846         0.00041  20880792.77546  20880791.08048
   -876800.83748   -683221.46246         0.00041  21481576.24646  21481574.90448
  -1361202.56747  -1060677.28944         0.00041  24080541.06244  24080539.32647
 94 02 12 12 13 00.0000000  0  5 03 17 21 28 31
   2443276.60508   1903851.89707  22572514.93308  22572518.22607         0.00001
   1594041.37748   1242110.19946         0.00041  21759633.27846  21759631.54348
   -444834.41648   -346623.90346         0.00041  20875896.57246  20875894.19048
   -919017.80248   -716117.78646         0.00041  21473544.93646  21473541.43048
  -1448373.23747  -1128602.52344         0.00041  24063949.54344  24063950.23847
 94 02 12 12 13 30.0000000  0  5 03 17 21 28 31
   2550705.11508   1987562.38007  22592958.59608  22592961.34607         0.00001
   1651541.33848   1286915.35746         0.00041  21770575.88546  21770573.86848
   -470335.97248   -366495.23146         0.00041  20871043.18146  20871041.14548
   -960721.16148   -748613.90146         0.00041  21465608.03846  21465605.40248
  -1535252.43247  -1196300.63544         0.00041  24047420.56644  24047418.03847
 94 02 12 12 14 00.0000000  0  5 03 17 21 28 31
   2658413.82908   2071491.24807  22613454.97008  22613457.49607         0.00001
   1709222.68548   1331861.85346         0.00041  21781551.09346  21781548.88748
   -495644.54948   -386216.19046         0.00041  20866227.57746  20866225.21548
  -1001951.68548   -780741.57646         0.00041  21457762.39246  21457761.28948
  -1621885.64647  -1263807.04344         0.00041  24030941.27744  24030931.12947
 94 02 12 12 14 30.0000000  0  6 03 09 17 21 28 31
   2766360.59408   2155605.61107  22633996.49808  22633998.95607         0.00001
         0.03858         0.64754         0.00051  24339404.07354  24339395.53658
   1767037.31248   1376912.19646         0.00041  21792554.20046  21792551.65448
   -520804.62248   -405821.43646         0.00041  20861439.58646  20861437.46348
  -1042741.25548   -812525.65646         0.00041  21449999.78246  21449997.03148
  -1708326.61548  -1331163.61344         0.00041  24014483.26044  24014482.95248
 94 02 12 12 15 00.0000000  0  6 03 09 17 21 28 31
   2874508.74608   2239876.90307  22654576.13808  22654578.85407         0.00001
    -37267.01348    -29038.64744         0.00041  24332304.01844  24332306.50448
   1824967.14448   1422052.33646         0.00041  21803576.29146  21803575.74648
   -545865.94448   -425349.72046         0.00041  20856670.49446  20856667.91948
  -1083123.00348   -843991.95346         0.00041  21442314.52446  21442312.64448
  -1794630.08948  -1398413.12344         0.00041  23998063.62444  23998062.34848
 94 02 12 12 15 30.0000000  0  6 03 09 17 21 28 31
   2982917.79308   2324351.45807  22675205.84508  22675208.51507         0.00001
    -74281.17248    -57880.79744         0.00041  24325269.14744  24325264.23748
   1883082.13548   1467336.74146         0.00041  21814636.61146  21814634.54748
   -570775.42548   -444759.69546         0.00041  20851930.37346  20851927.78348
  -1123040.34248   -875096.34546         0.00041  21434719.27046  21434718.50148
  -1880740.89248  -1465512.41944         0.00041  23981680.98144  23981677.36848
 94 02 12 12 16 00.0000000  0  6 03 09 17 21 28 31
   3091643.06008   2409072.43207  22695895.73408  22695898.14107         0.00001
   -110985.15548    -86481.23644         0.00041  24318281.41744  24318277.84348
   1941442.53748   1512812.37246         0.00041  21825743.29546  21825740.01548
   -595481.80348   -464011.40946         0.00041  20847228.85346  20847226.75648
  -1162438.89848   -905796.50346         0.00041  21427222.58246  21427220.52348
  -1966600.61848  -1532416.07244         0.00041  23965340.89944  23965339.24248
 94 02 12 12 16 30.0000000  0  6 03 09 17 21 28 31
   3200744.27608   2494086.36007  22716657.05908  22716659.52307         0.00001
   -147308.44947   -114785.14244         0.00041  24311361.99344  24311367.20247
   2000129.41348   1558542.40446         0.00041  21836907.57446  21836906.56548
   -619918.64948   -483053.08646         0.00041  20842578.40346  20842576.33748
  -1201251.79148   -936040.31446         0.00041  21419835.89646  21419834.46548
  -2052141.43748  -1599071.28344         0.00041  23949058.96644  23949057.87548
 94 02 12 12 17 00.0000000  0  5 03 17 21 28 31
   3310222.84108   2579394.32107  22737490.01808  22737492.45707         0.00001
   2059150.28048   1604532.67146         0.00041  21848139.57246  21848137.82648
   -644070.72648   -501872.87046         0.00041  20837982.66346  20837980.04248
  -1239470.00648   -965820.73946         0.00041  21412564.10646  21412562.68348
  -2137337.01748  -1665457.45044         0.00041  23932849.69044  23932846.79548
 94 02 12 12 17 30.0000000  0  5 03 17 21 28 31
   3419917.34908   2664870.56207  22758364.11608  22758366.72307         0.00001
   2118340.91948   1650655.24146         0.00041  21859403.72046  21859401.60348
   -668098.64148   -520595.90546         0.00041  20833410.56346  20833408.02748
  -1277240.32448   -995252.13446         0.00041  21405375.99246  21405375.12348
  -2222323.52148  -1731680.68644         0.00041  23916678.98144  23916676.81348
 94 02 12 12 18 00.0000000  0  5 03 17 21 28 31
   3529887.87408   2750561.87607  22779290.57308  22779293.36807         0.00001
   2177759.97648   1696955.80146         0.00041  21870713.02646  21870708.98148
   -691937.14848   -539171.34946         0.00041  20828874.54646  20828872.12748
  -1314486.43648  -1024275.07146         0.00041  21398289.50146  21398287.10248
  -2307037.31248  -1797691.40744         0.00041  23900555.54144  23900556.47148
 94 02 12 12 18 30.0000000  0  5 03 17 21 28 31
   3640206.03008   2836524.06707  22800283.48008  22800286.07307         0.00001
   2237471.51448   1743484.27546         0.00041  21882074.61446  21882070.90848
   -715493.95248   -557527.27746         0.00041  20824391.66146  20824389.57648
  -1351116.30648  -1052817.82246         0.00041  21391318.08046  21391316.41048
  -2391401.83348  -1863430.08444         0.00041  23884501.35044  23884502.59548
 94 02 12 12 19 00.0000000  0  6 03 09 17 21 28 31
   3750926.25208   2922799.54406  22821352.80908  22821355.33506         0.00001
         0.23458         0.93354         0.00051  24277861.87354  24277863.52158
   2297519.00548   1790274.53446         0.00041  21893499.92946  21893498.65448
   -738717.03648   -575623.17046         0.00041  20819972.55546  20819970.77948
  -1387069.73148  -1080833.47346         0.00041  21384477.17746  21384473.85848
  -2475349.24448  -1928843.58744         0.00041  23868528.82544  23868526.86448
 94 02 12 12 19 30.0000000  0  6 03 09 17 21 28 31
   3862107.08708   3009433.96106  22842509.99108  22842512.49306         0.00001
    -33860.30248    -26383.92944         0.00041  24271422.51344  24271416.97148
   2357958.35848   1837370.14446         0.00041  21905001.85646  21905001.06848
   -761556.05848   -593419.79346         0.00041  20815625.97846  20815623.55448
  -1422282.39648  -1108271.88546         0.00041  21377775.46246  21377774.20348
  -2558826.68748  -1993890.94544         0.00041  23852643.19244  23852640.60848
 94 02 12 12 20 00.0000000  0  7 01 03 09 17 21 28 31
        -0.75957        -0.24054         0.00051  21884412.88354  21884423.28857
   3973661.46608   3096359.45006  22863738.12908  22863740.49206         0.00001
    -67306.67048    -52445.87044         0.00041  24265055.32944  24265052.19948
   2418691.29348   1884694.48846         0.00041  21916560.04546  21916557.43748
   -784079.72248   -610970.68146         0.00041  20811339.18646  20811336.76048
  -1456848.52448  -1135206.52146         0.00041  21371197.81746  21371196.25348
  -2641923.48548  -2058641.62844         0.00041  23836823.55144  23836828.22648
 94 02 12 12 20 30.0000000  0  7 01 03 09 17 21 28 31
    -88339.41447    -68835.71844         0.00041  21867623.45144  21867614.76347
   4085414.72708   3183439.89806  22885004.01308  22885006.54006         0.00001
   -100533.26248    -78336.71344         0.00041  24258734.10244  24258731.34548
   2479536.76748   1932106.54546         0.00041  21928138.90046  21928134.88648
   -806465.39748   -628414.03946         0.00041  20807079.62646  20807077.17748
  -1490944.99448  -1161775.19046         0.00041  21364709.83846  21364708.14948
  -2724800.63748  -2123221.26844         0.00041  23821054.79544  23821057.56448
 94 02 12 12 21 00.0000000  0  7 01 03 09 17 21 28 31
   -176379.08847   -137437.91844         0.00041  21850857.88044  21850860.58547
   4197454.18508   3270743.35806  22906324.55408  22906327.57006         0.00001
   -133450.09648   -103986.21344         0.00041  24252468.57344  24252467.43148
   2540590.15548   1979680.62146         0.00041  21939755.00546  21939753.83448
   -828641.12948   -645693.80546         0.00041  20802859.97546  20802858.48348
  -1524496.10548  -1187918.89646         0.00041  21358324.51946  21358323.61648
  -2807364.14448  -2187556.40444         0.00041  23805345.17144  23805346.19048
 94 02 12 12 21 30.0000000  0  7 01 03 09 17 21 28 31
   -264142.72847   -205825.08744         0.00041  21834151.31144  21834159.28647
   4309775.41508   3358266.36806  22927698.89408  22927701.36206         0.00001
   -166052.21148   -129390.35044         0.00041  24246266.95844  24246261.04148
   2601854.42248   2027419.01446         0.00041  21951414.34446  21951411.48848
   -850609.46148   -662811.95546         0.00041  20798679.55746  20798677.41548
  -1557516.89448  -1213649.36146         0.00041  21352042.24346  21352040.27548
  -2889622.41548  -2251653.78844         0.00041  23789694.69044  23789692.75748
 94 02 12 12 22 00.0000000  0  7 01 03 17 21 23 28 31
   -351584.06947   -273960.75244         0.00041  21817514.52044  21817521.42547
   4422428.26708   3446047.79606  22949136.11708  22949138.18206         0.00001
   2663387.54548   2075366.88946         0.00041  21963124.17946  21963120.15448
   -872307.65248   -679719.61346         0.00041  20794549.92246  20794547.35748
         0.05458         0.60356         0.00051  21160160.54056  21160158.49558
  -1589966.86748  -1238935.05746         0.00041  21345865.42046  21345863.43048
  -2971515.96648  -2315466.91244         0.00041  23774105.05344  23774107.50648
 94 02 12 12 22 30.0000000  0  7 01 03 17 21 23 28 31
   -438678.21147   -341826.33244         0.00041  21800951.14544  21800943.64547
   4535432.94108   3534103.38506  22970640.25808  22970642.41506         0.00001
   2725239.40948   2123563.14746         0.00041  21974894.17446  21974890.37248
   -893726.87348   -696409.87946         0.00041  20790474.60846  20790471.56148
     40069.43548     31223.50846         0.00041  21167785.44046  21167783.16448
  -1621818.19348  -1263754.26746         0.00041  21339804.53846  21339803.90348
  -3053025.58848  -2378980.88644         0.00041  23758599.53844  23758599.16548
 94 02 12 12 23 00.0000000  0  8 01 03 09 17 21 23 28 31
   -525385.19147   -409390.83944         0.00041  21784442.61744  21784445.16247
   4648811.46908   3622450.29006  22992215.19908  22992217.93606         0.00001
        -0.13658         0.21254         0.00051  24228104.78854  24228107.42058
   2787440.97148   2172031.86546         0.00041  21986732.52346  21986728.65548
   -914831.42248   -712854.96546         0.00041  20786458.29846  20786456.64948
     80352.57848     62612.98446         0.00041  21175450.50046  21175448.29648
  -1653052.82748  -1288092.92146         0.00041  21333861.26446  21333861.00848
  -3134122.62248  -2442173.34544         0.00041  23743167.96844  23743166.97748
 94 02 12 12 23 30.0000000  0  8 01 03 09 17 21 23 28 31
   -611726.16247   -476670.21644         0.00041  21768018.42644  21768016.81947
   4762507.56907   3711044.64506  23013850.65707  23013854.08906         0.00001
    -30940.66248    -24109.32044         0.00041  24222216.29944  24222219.18648
   2849936.60748   2220729.77946         0.00041  21998623.36346  21998621.32848
   -935664.88148   -729088.81746         0.00041  20782494.40746  20782492.52248
    120804.94748     94134.32646         0.00041  21183147.86646  21183146.11748
  -1683718.09748  -1311987.92746         0.00041  21328026.39446  21328024.45148
  -3214854.06748  -2505080.91544         0.00041  23727806.01644  23727804.69948
 94 02 12 12 24 00.0000000  0  8 01 03 09 17 21 23 28 31
   -697705.76147   -543667.35644         0.00041  21751654.17344  21751655.33947
   4876491.75208   3799863.45106  23035541.31008  23035544.04806         0.00001
    -61477.85848    -47904.40444         0.00041  24216409.74744  24216407.10648
   2912706.37148   2269641.31546         0.00041  22010566.12146  22010565.54648
   -956251.96048   -745130.68346         0.00041  20778576.27846  20778574.72748
    161413.04348    125777.00146         0.00041  21190875.72346  21190873.43248
  -1713812.26948  -1335437.93646         0.00041  21322299.21046  21322297.30748
  -3295251.54148  -2567728.31144         0.00041  23712508.60944  23712502.97848
 94 02 12 12 24 30.0000000  0  7 03 09 17 21 23 28 31
   4990756.75808   3888901.14306  23057285.44508  23057286.98406         0.00001
    -91603.44848    -71378.99144         0.00041  24210675.56244  24210673.90748
   2975748.47748   2318765.02946         0.00041  22022563.86546  22022562.22448
   -976613.29848   -760996.63446         0.00041  20774701.63446  20774699.49448
    202185.79948    157547.99446         0.00041  21198634.39046  21198631.98848
  -1743322.02548  -1358432.54846         0.00041  21316684.60646  21316682.85548
  -3375314.72448  -2630115.11144         0.00041  23697270.96144  23697267.34148
 94 02 12 12 25 00.0000000  0  7 03 09 17 21 23 28 31
   5105168.28308   3978052.99906  23079057.07508  23079059.51206         0.00001
   -121442.35948    -94630.03244         0.00041  24204998.86844  24204996.51748
   3038911.83348   2367983.22846         0.00041  22034584.06746  22034582.07948
   -996888.09148   -776795.15746         0.00041  20770843.71246  20770840.93548
    242978.96048    189334.87746         0.00041  21206397.20146  21206394.91548
  -1772372.23748  -1381069.05846         0.00041  21311155.22846  21311154.62248
  -3455160.31848  -2692332.44944         0.00041  23682076.34544  23682076.73848
 94 02 12 12 25 30.0000000  0  7 03 09 17 21 23 28 31
   5220092.87107   4067604.60006  23100926.52607  23100929.21606         0.00001
   -150640.38748   -117381.67844         0.00041  24199445.41444  24199444.56748
   3102565.36348   2417583.37646         0.00041  22046695.83846  22046694.67648
  -1016732.80348   -792258.54146         0.00041  20767067.31146  20767064.17248
    284138.36448    221407.15046         0.00041  21214229.17646  21214226.83148
  -1800579.58148  -1403048.78846         0.00041  21305787.01546  21305786.10048
  -3534414.32448  -2754088.81344         0.00041  23666996.93844  23666993.27848
 94 02 12 12 26 00.0000000  0  7 03 09 17 21 23 28 31
   5335386.48307   4157443.77206  23122866.02007  23122868.52306         0.00001
   -179358.14748   -139759.08344         0.00041  24193976.01244  24193981.69548
   3166563.94248   2467452.41546         0.00041  22058875.58746  22058871.92848
  -1036309.29448   -807512.92846         0.00041  20763342.77346  20763339.87348
    325515.90448    253649.39346         0.00041  21222102.90646  21222100.86248
  -1828080.96448  -1424478.44846         0.00041  21300555.36746  21300553.64648
  -3613212.99748  -2815490.31044         0.00041  23651996.02744  23651995.08848
 94 02 12 12 26 30.0000000  0  8 01 03 09 17 21 23 28 31
        -1.14357        -0.76354         0.00051  21670909.29354  21670903.69057
   5450982.52307   4247518.62506  23144863.14107  23144865.33606         0.00001
   -207663.66348   -161815.32444         0.00041  24188596.27444  24188591.32348
   3230829.74748   2517529.68046         0.00041  22071105.83746  22071100.60248
  -1055693.20248   -822617.24646         0.00041  20759653.48146  20759651.30348
    367043.79348    286008.79946         0.00041  21230006.50046  21230003.94448
  -1854957.89348  -1445421.49646         0.00041  21295440.36846  21295439.24848
  -3691603.60748  -2876573.94944         0.00041  23637083.78244  23637080.86048
 94 02 12 12 27 00.0000000  0  8 01 03 09 17 21 23 28 31
    -83816.80948    -65311.77544         0.00041  21654959.52244  21654955.73748
   5566764.41707   4337738.25506  23166895.81007  23166898.38706         0.00001
   -235685.00148   -183650.21244         0.00041  24183253.69644  24183258.06248
   3295243.99348   2567722.57845         0.00041  22083363.62845  22083358.37448
  -1074979.48248   -837645.49246         0.00041  20755983.63846  20755981.03848
    408597.55048    318388.35246         0.00041  21237914.79346  21237911.93748
  -1881338.41448  -1465977.75246         0.00041  21290421.17046  21290419.41148
  -3769691.64348  -2937421.76344         0.00041  23622218.49644  23622220.21748
 94 02 12 12 27 30.0000000  0  3 21 23 28
  -1094235.39048   -852650.08746         0.00041  20752318.82346  20752315.92648
    450100.22548    350728.10346         0.00041  21245810.93446  21245809.61248
  -1907313.33348  -1486217.93946         0.00041  21285476.58146  21285475.59948
 94 02 12 12 28 00.0000000  0  3 21 23 28
  -1113723.83148   -867835.86046         0.00041  20748610.16746  20748607.76948
    491286.08048    382820.98846         0.00041  21253648.26746  21253646.26448
  -1933174.53448  -1506369.49246         0.00041  21280555.95846  21280554.59748
 94 02 12 12 44 30.0000000  0  1 17
        -0.73758        -0.04355         0.00051  22546749.84155  22546747.02958
 94 02 12 12 45 00.0000000  0  1 17
     74125.12448     57760.34745         0.00041  22560857.29945  22560849.32548
 94 02 12 12 45 30.0000000  0  1 17
    148498.57148    115713.61745         0.00041  22575008.06345  22575001.86748
 94 02 12 12 46 00.0000000  0  2 12 17
         0.17216        -0.48616  24898038.07516  24898039.25416         0.00011
    223338.73748    174030.65745         0.00041  22589247.86945  22589244.89548
 94 02 12 12 46 30.0000000  0  1 17
    298418.77748    232534.54545         0.00041  22603539.52845  22603532.70148
 94 02 12 12 47 00.0000000  0  2 17 31
    373801.91048    291274.62945         0.00041  22617882.42845  22617878.28748
        -0.59058        -0.37155         0.00051  23093638.74555  23093639.82858
 94 02 12 12 47 30.0000000  0  2 17 31
    449468.98948    350235.96645         0.00041  22632276.75945  22632277.17148
    -60421.98248    -47081.99145         0.00041  23082141.29745  23082143.01248
 94 02 12 12 48 00.0000000  0  2 17 31
    525524.47948    409500.00944         0.00041  22646750.21344  22646749.29548
   -120261.27448    -93710.05344         0.00041  23070756.93944  23070753.20448
 94 02 12 12 48 30.0000000  0  2 17 31
    601847.66448    468972.57545         0.00041  22661276.27745  22661273.95648
   -179606.80048   -139953.25444         0.00041  23059458.60744  23059460.48848
 94 02 12 12 49 00.0000000  0  2 17 31
    678438.40848    528653.69845         0.00041  22675851.75845  22675849.99448
   -238450.50148   -185805.47445         0.00041  23048260.03145  23048261.77448
 94 02 12 12 49 30.0000000  0  2 17 31
    755227.02148    588488.96345         0.00041  22690465.66345  22690461.13348
   -296856.74848   -231316.83145         0.00041  23037148.29145  23037148.21648
 94 02 12 12 50 00.0000000  0  2 17 31
    832343.64048    648579.80345         0.00041  22705139.37245  22705135.51348
   -354689.15348   -276381.04445         0.00041  23026147.39145  23026144.76548
 94 02 12 12 50 30.0000000  0  2 17 31
    909675.56348    708838.46045         0.00041  22719855.27445  22719853.22848
   -412084.85748   -321105.00145         0.00041  23015220.77145  23015218.03748
 94 02 12 12 51 00.0000000  0  2 17 31
    987302.75948    769327.19745         0.00041  22734628.61745  22734625.15748
   -468979.24848   -365438.24945         0.00041  23004393.42545  23004393.52948
 94 02 12 12 51 30.0000000  0  2 17 31
   1065140.57748    829980.04045         0.00041  22749439.86545  22749436.14448
   -525463.05648   -409451.62345         0.00041  22993648.84345  22993646.75248
 94 02 12 12 52 00.0000000  0  2 17 31
   1143326.64048    890904.27545         0.00041  22764312.97445  22764314.47248
   -581393.91348   -453034.11245         0.00041  22983002.74145  22982999.12648
 94 02 12 12 52 30.0000000  0  2 17 31
   1221761.04348    952021.94345         0.00041  22779243.34845  22779241.42848
   -636846.41348   -496243.80944         0.00041  22972451.48644  22972450.29548
 94 02 12 12 53 00.0000000  0  3 09 17 31
         0.04058         0.83454         0.00051  24025805.14154  24025810.00558
   1300472.98148   1013355.93745         0.00041  22794221.58445  22794218.91248
   -691767.86948   -539039.73245         0.00041  22961997.21345  22961998.29748
 94 02 12 12 53 30.0000000  0  3 09 17 31
     -3249.15748     -2531.00444         0.00041  24025188.97044  24025190.46048
   1379360.61848   1074826.80545         0.00041  22809232.69445  22809231.17848
   -746265.74848   -581505.61845         0.00041  22951629.41245  22951627.21148
 94 02 12 12 54 00.0000000  0  3 09 17 31
     -5916.33048     -4609.37444         0.00041  24024681.45244  24024682.45448
   1458578.21448   1136554.75845         0.00041  22824308.03645  22824304.87448
   -800189.50348   -623524.12245         0.00041  22941366.38245  22941364.36748
 94 02 12 12 54 30.0000000  0  4 09 12 17 31
     -8256.06948     -6432.59144         0.00041  24024235.45244  24024236.36548
        -0.43417        -0.07616  24707782.42217  24707784.21916         0.00011
   1537881.84348   1198349.75045         0.00041  22839400.65845  22839397.15548
   -853792.79048   -665292.91345         0.00041  22931165.22845  22931162.18748
 94 02 12 12 55 00.0000000  0  4 09 12 17 31
    -10341.66448     -8057.72444         0.00041  24023841.94244  24023839.68148
    -55659.59207    -43370.84306  24697190.91407  24697191.71006         0.00001
   1617219.85148   1260171.57345         0.00041  22854496.50745  22854494.34748
   -907147.93848   -706868.39745         0.00041  22921013.64945  22921011.31348
 94 02 12 12 55 30.0000000  0  4 09 12 17 31
    -12152.20148     -9468.46544         0.00041  24023499.23844  24023493.66348
   -111119.96707    -86586.74206  24686637.58207  24686638.90006         0.00001
   1696617.01548   1322039.49145         0.00041  22869604.06045  22869602.37048
   -960229.88648   -748230.91745         0.00041  22910913.49645  22910907.79048
 94 02 12 12 56 00.0000000  0  4 09 12 17 31
    -13541.26648    -10550.80244         0.00041  24023224.13844  24023230.98248
   -166232.09707   -129531.25606  24676150.08707  24676152.12206         0.00001
   1776199.59848   1384051.93545         0.00041  22884748.32545  22884746.27948
  -1012884.07648   -789260.14045         0.00041  22900893.93445  22900889.65848
 94 02 12 12 56 30.0000000  0  4 09 12 17 31
    -14377.57047    -11202.57744         0.00041  24023070.06344  24023067.63547
   -220867.96007   -172104.58306  24665753.12107  24665755.38706         0.00001
   1856096.51348   1446309.29044         0.00041  22899952.99044  22899951.28648
  -1064967.38448   -829844.56645         0.00041  22890982.70845  22890980.46048
 94 02 12 12 57 00.0000000  0  4 09 12 17 31
    -14680.69947    -11438.89344         0.00041  24023013.37644  24023010.64947
   -275051.06707   -214325.10806  24655441.67507  24655445.28806         0.00001
   1936281.60548   1508791.16744         0.00041  22915213.51744  22915206.44248
  -1116498.77648   -869998.87745         0.00041  22881178.15945  22881173.69548
 94 02 12 12 58 30.0000000  0  1 12
        -0.31117        -0.03816  24624816.81617  24624820.05316         0.00011
 94 02 12 12 59 00.0000000  0  1 12
    -52471.62007    -40886.75706  24614831.28407  24614834.44106         0.00001
 94 02 12 12 59 30.0000000  0  3 12 28 31
   -104560.18607    -81475.23706  24604919.28807  24604922.68406         0.00001
        -1.00558        -0.43556         0.00051  21217628.67256  21217627.10158
        -0.60458         0.21455         0.00051  22833517.58555  22833521.17658
 94 02 12 13 00 00.0000000  0  3 12 28 31
   -156162.85007   -121685.08306  24595100.21507  24595103.09306         0.00001
     14250.85448     11104.89346         0.00041  21220341.36146  21220338.96548
    -48272.73348    -37614.39945         0.00041  22824331.41545  22824334.42048
 94 02 12 13 00 30.0000000  0  3 12 28 31
   -207357.83707   -161577.24806  24585358.32007  24585361.35306         0.00001
     29115.37148     22687.62346         0.00041  21223168.99046  21223167.08448
    -96067.29448    -74856.89745         0.00041  22815237.49445  22815241.09748
 94 02 12 13 01 00.0000000  0  3 12 28 31
   -258117.87307   -201130.49506  24575698.93007  24575701.79506         0.00001
     44605.59848     34757.91046         0.00041  21226117.03246  21226115.71248
   -143385.12348   -111727.92045         0.00041  22806234.36745  22806233.36048
 94 02 12 13 01 30.0000000  0  4 09 12 28 31
        -0.58158        -0.40655         0.00051  24026755.43955  24026754.97458
   -308401.32507   -240312.37906  24566129.84307  24566133.22606         0.00001
     60733.86048     47325.38846         0.00041  21229186.99846  21229184.66548
   -190204.58048   -148210.64345         0.00041  22797324.03945  22797325.40348
 94 02 12 13 02 00.0000000  0  4 09 12 28 31
      4891.70948      3811.81244         0.00041  24027693.26044  24027687.22948
   -358219.01407   -279131.34206  24556650.25907  24556653.00506         0.00001
     77474.09448     60369.72046         0.00041  21232371.77946  21232370.52148
   -236534.43248   -184311.83145         0.00041  22788508.96445  22788509.37348
 94 02 12 13 02 30.0000000  0  4 09 12 28 31
     10338.63148      8056.16444         0.00041  24028729.75144  24028727.83848
   -407550.94307   -317571.76006  24547262.88607  24547265.88506         0.00001
     94841.42248     73902.70246         0.00041  21235676.25346  21235674.86948
   -282344.27548   -220007.81645         0.00041  22779787.37245  22779784.62548
 94 02 12 13 03 00.0000000  0  4 09 12 28 31
     16368.73348     12754.96244         0.00041  24029871.96544  24029872.10648
   -456368.51407   -355611.39206  24537973.45507  24537976.13706         0.00001
    112864.47648     87946.61446         0.00041  21239106.93046  21239104.30548
   -327590.28248   -255264.42345         0.00041  22771180.28345  22771173.80148
 94 02 12 13 03 30.0000000  0  4 09 12 28 31
     22894.54448     17839.98644         0.00041  24031108.59644  24031112.56848
   -504727.38007   -393293.61506  24528771.95807  24528774.27606         0.00001
    131494.84948    102463.78046         0.00041  21242651.85346  21242650.55148
   -372301.97948   -290104.71845         0.00041  22762671.98145  22762662.22748
 94 02 12 13 04 00.0000000  0  4 09 12 28 31
     29887.14848     23288.77744         0.00041  24032445.61144  24032444.43448
   -552636.02007   -430625.03206  24519655.46007  24519657.28406         0.00001
    150733.42148    117454.89346         0.00041  21246311.80846  21246310.94948
   -416468.12248   -324519.90445         0.00041  22754270.38645  22754263.72148
 94 02 12 13 04 30.0000000  0  4 09 12 28 31
     37371.74648     29120.88444         0.00041  24033866.38544  24033866.45348
   -600069.64107   -467586.25506  24510628.57207  24510631.27406         0.00001
    170603.82448    132938.31946         0.00041  21250093.09846  21250092.12748
   -460064.81648   -358491.35745         0.00041  22745973.88245  22745970.72948
 94 02 12 13 05 00.0000000  0  4 09 12 28 31
     45362.16248     35347.23644         0.00041  24035387.12744  24035387.19748
   -647004.58007   -504158.91306  24501696.10207  24501699.82106         0.00001
    191118.61348    148923.85846         0.00041  21253997.96446  21253996.36548
   -503065.48548   -391998.34745         0.00041  22737788.32945  22737787.44048
 94 02 12 13 05 30.0000000  0  4 09 12 28 31
     53841.24147     41954.23844         0.00041  24036989.45444  24036996.14547
   -693463.19607   -540360.40506  24492854.72407  24492859.08706         0.00001
    212252.26348    165391.62246         0.00041  21258019.86446  21258017.46648
   -545494.53948   -425059.95545         0.00041  22729717.64045  22729717.62548
 94 02 12 13 06 00.0000000  0  4 09 12 28 31
     62866.97248     48987.32144         0.00041  24038715.70544  24038718.65948
   -739413.95007   -576166.18006  24484109.70107  24484114.39606         0.00001
    234025.14648    182357.49346         0.00041  21262163.24746  21262161.00248
   -587330.03948   -457659.04646         0.00041  22721754.39746  22721754.73748
 94 02 12 13 06 30.0000000  0  3 09 28 31
     72430.52448     56439.37744         0.00041  24040529.38644  24040536.57048
    256402.62548    199794.48646         0.00041  21266421.42946  21266419.42448
   -628599.75848   -489817.25846         0.00041  22713901.25446  22713901.63348
 94 02 12 13 07 00.0000000  0  3 09 28 31
     82508.37047     64292.28244         0.00041  24042454.17344  24042452.57847
    279360.04248    217683.37446         0.00041  21270789.20746  21270787.52548
   -669348.65348   -521569.64845         0.00041  22706145.00545  22706145.93348
 94 02 12 13 07 30.0000000  0  2 28 31
    302897.98248    236024.62946         0.00041  21275268.08246  21275267.06548
   -709589.01748   -552925.75846         0.00041  22698488.86346  22698489.37248
 94 02 12 13 08 00.0000000  0  2 28 31
    327066.62448    254857.33846         0.00041  21279866.66246  21279865.88748
   -749278.36448   -583852.49245         0.00041  22690938.89045  22690938.13748
 94 02 12 13 08 30.0000000  0  2 28 31
    351828.35948    274152.20346         0.00041  21284579.84446  21284578.42948
   -788472.65948   -614393.52645         0.00041  22683479.11445  22683477.48848
 94 02 12 13 09 00.0000000  0  4 09 17 28 31
        -1.08558        -0.23754         0.00051  24051160.06054  24051157.85658
         0.20458         0.42655         0.00051  23295826.52855  23295822.02258
    377208.52848    293928.95746         0.00041  21289409.10246  21289407.64748
   -827156.88648   -644537.08645         0.00041  22676115.30745  22676115.91248
 94 02 12 13 09 30.0000000  0  5 09 12 17 28 31
     12454.83147      9705.56944         0.00041  24053530.74544  24053526.10647
        -0.19617        -0.93816  24425356.72817  24425357.78216         0.00011
     86209.63648     67176.53145         0.00041  23312229.91945  23312227.78048
    402867.48248    313922.93046         0.00041  21294292.35246  21294290.60448
   -865634.27748   -674519.47645         0.00041  22668790.89445  22668792.81348
 94 02 12 13 10 00.0000000  0  5 09 12 17 28 31
     24848.69848     19363.17844         0.00041  24055886.28844  24055887.16248
    -42990.88508    -33500.20906  24417176.57808  24417177.13606         0.00001
    172101.87348    134105.52545         0.00041  23328574.64245  23328572.76248
    428538.87248    333926.59246         0.00041  21299177.06046  21299175.65948
   -904150.03348   -704531.72945         0.00041  22661461.09545  22661458.85148
 94 02 12 13 10 30.0000000  0  5 09 12 17 28 31
     37767.08848     29429.51244         0.00041  24058344.90044  24058349.42148
    -85459.62507    -66592.73606  24409095.03207  24409095.29206         0.00001
    258253.83948    201236.93645         0.00041  23344967.95245  23344967.75048
    454808.19348    354396.20146         0.00041  21304175.87946  21304174.61648
   -942109.30748   -734110.37045         0.00041  22654239.84345  22654234.96548
 94 02 12 13 11 00.0000000  0  5 09 12 17 28 31
     51417.88548     40066.48244         0.00041  24060945.72044  24060945.59748
   -127196.10107    -99114.65106  24401152.18207  24401153.62806         0.00001
    344863.85348    268725.24545         0.00041  23361448.51445  23361447.86148
    481864.18448    375478.79846         0.00041  21309323.72346  21309323.13048
   -979289.05248   -763081.59345         0.00041  22647166.47145  22647161.02648
 94 02 12 13 11 30.0000000  0  5 09 12 17 28 31
     65799.64548     51273.12844         0.00041  24063684.03244  24063682.62548
   -168201.82207   -131067.17306  24393348.89307  24393350.39006         0.00001
    431927.56648    336567.05345         0.00041  23378016.97045  23378015.82748
    509708.84548    397175.94146         0.00041  21314624.22846  21314621.74848
  -1015665.59248   -791426.96245         0.00041  22640245.68445  22640242.71348
 94 02 12 13 12 00.0000000  0  5 09 12 17 28 31
     80851.13048     63001.55544         0.00041  24066542.96644  24066545.97348
   -208541.10807   -162500.39706  24385672.71307  24385674.29706         0.00001
    519368.09448    404702.49844         0.00041  23394657.04144  23394653.42448
    538302.75348    419456.88946         0.00041  21320064.38046  21320063.08148
  -1051312.48348   -819203.76245         0.00041  22633461.24245  22633458.84848
 94 02 12 13 12 30.0000000  0  5 09 12 17 28 31
     96476.20848     75176.96144         0.00041  24069518.23444  24069520.34648
   -248322.48907   -193498.85806  24378101.97207  24378104.04006         0.00001
    607076.47548    473046.64945         0.00041  23411348.02645  23411345.22248
    567539.89848    442239.06146         0.00041  21325627.56846  21325626.22348
  -1086336.15848   -846494.95945         0.00041  22626796.81645  22626793.68348
 94 02 12 13 13 00.0000000  0  5 09 12 17 28 31
    112704.21448     87822.12644         0.00041  24072602.99344  24072609.16848
   -287518.62907   -224041.27406  24370642.37807  24370645.23706         0.00001
    695084.24748    541624.12845         0.00041  23428096.96545  23428094.31648
    597439.63748    465537.53746         0.00041  21331318.44246  21331316.36748
  -1120712.55148   -873281.74445         0.00041  22620254.70945  22620255.98648
 94 02 12 13 13 30.0000000  0  5 09 12 17 28 31
    129489.49648    100901.56344         0.00041  24075799.32944  24075803.74448
   -326174.73407   -254162.89706  24363285.79307  24363289.39506         0.00001
    783345.97848    610399.51945         0.00041  23444891.36345  23444888.98048
    627974.82248    489331.18346         0.00041  21337127.72546  21337127.19648
  -1154503.58948   -899612.42046         0.00041  22613824.31046  22613824.39948
 94 02 12 13 14 00.0000000  0  5 09 12 17 28 31
    146806.89448    114395.66444         0.00041  24079093.83044  24079097.39048
   -364315.52407   -283882.98706  24356027.62707  24356031.49406         0.00001
    871821.13948    679341.17545         0.00041  23461725.73145  23461725.46248
    659111.90748    513593.85046         0.00041  21343054.37446  21343052.16748
  -1187750.69448   -925519.23846         0.00041  22607496.10146  22607496.18148
 94 02 12 13 14 30.0000000  0  5 09 12 17 28 31
    164650.30048    128299.61944         0.00041  24082492.69744  24082494.21348
   -401941.44407   -313201.86506  24348867.76407  24348871.06706         0.00001
    960522.20648    748458.87845         0.00041  23478606.23045  23478604.58748
    690819.06548    538300.72946         0.00041  21349087.24546  21349086.22548
  -1220458.00748   -951005.47645         0.00041  22601271.65445  22601269.73448
 94 02 12 13 15 00.0000000  0  5 09 12 17 28 31
    183031.35448    142622.50645         0.00041  24085991.84345  24085993.22848
   -439025.61707   -342098.59306  24341810.60107  24341814.08806         0.00001
   1049479.32948    817776.11945         0.00041  23495534.06445  23495530.97448
    723127.08448    563475.81246         0.00041  21355235.24846  21355234.21848
  -1252612.84448   -976061.20946         0.00041  22595153.86646  22595152.07248
 94 02 12 13 15 30.0000000  0  5 09 12 17 28 31
    201984.95648    157391.59744         0.00041  24089596.63244  24089600.33048
   -475527.44107   -370541.56206  24334865.87807  24334867.92006         0.00001
   1138735.91648    887326.60944         0.00041  23512518.96644  23512515.63848
    756084.16948    589156.64046         0.00041  21361506.58646  21361505.24948
  -1284165.11848  -1000647.39046         0.00041  22589147.94646  22589147.25448
 94 02 12 13 16 00.0000000  0  5 09 12 17 28 31
    221488.85948    172589.41444         0.00041  24093312.53044  24093309.65948
   -511466.16307   -398545.73506  24328027.12707  24328029.40006         0.00001
   1228264.65648    957089.23444         0.00041  23529554.01944  23529551.79648
    789663.44848    615322.29346         0.00041  21367896.76946  21367895.41048
  -1315124.98948  -1024771.94345         0.00041  22583258.37845  22583256.25448
 94 02 12 13 16 30.0000000  0  5 09 12 17 28 31
    241529.52148    188205.57644         0.00041  24097124.03844  24097124.47448
   -546850.79607   -426118.17106  24321293.99707  24321295.83906         0.00001
   1318058.60048   1027058.54244         0.00041  23546642.51444  23546639.79348
    823858.62148    641967.86446         0.00041  21374404.43446  21374402.53048
  -1345501.80748  -1048442.17645         0.00041  22577478.61545  22577474.22648
 94 02 12 13 17 00.0000000  0  5 09 12 17 28 31
    262105.48248    204238.75844         0.00041  24101038.01044  24101041.03248
   -581682.86708   -453260.04406  24314666.20308  24314667.03806         0.00001
   1408089.92048   1097212.83945         0.00041  23563774.61145  23563772.38548
    858676.28348    669098.49946         0.00041  21381030.25646  21381027.74548
  -1375285.38548  -1071650.22445         0.00041  22571808.33045  22571807.91448
 94 02 12 13 17 30.0000000  0  5 09 12 17 28 31
    283265.59648    220727.12944         0.00041  24105062.40244  24105065.71648
   -615915.34308   -479934.69406  24308152.83408  24308153.16906         0.00001
   1498395.00448   1167580.42145         0.00041  23580959.39545  23580956.06548
    894142.80448    696734.73246         0.00041  21387778.40446  21387776.92948
  -1404431.32748  -1094361.31946         0.00041  22566266.09146  22566265.15648
 94 02 12 13 18 00.0000000  0  5 09 12 17 28 31
    304944.82248    237620.07844         0.00041  24109189.00544  24109190.65848
   -649619.84108   -506197.96906  24301739.12708  24301739.19006         0.00001
   1588889.59548   1238095.65944         0.00041  23598177.45344  23598177.20948
    930164.04648    724803.22846         0.00041  21394632.74346  21394632.22748
  -1433022.73248  -1116640.34246         0.00041  22560825.08946  22560823.67848
 94 02 12 13 18 30.0000000  0  5 09 12 17 28 31
    327130.94548    254907.88244         0.00041  24113412.32044  24113409.82648
   -682801.80707   -532054.07606  24295424.65507  24295424.37106         0.00001
   1679578.39948   1308762.28044         0.00041  23615438.49244  23615435.34648
    966717.70548    753286.60546         0.00041  21401588.77446  21401588.67048
  -1461063.37848  -1138490.17046         0.00041  22555488.26346  22555487.02248
 94 02 12 13 19 00.0000000  0  5 09 12 17 28 31
    349845.31648    272607.44644         0.00041  24117736.85644  24117736.79648
   -715433.95607   -557481.70906  24289215.31407  24289215.01906         0.00001
   1770496.07748   1379607.17044         0.00041  23632741.14344  23632734.78648
   1003827.41948    782203.27046         0.00041  21408650.90146  21408649.71748
  -1488528.54248  -1159891.67145         0.00041  22550262.80445  22550260.31548
 94 02 12 13 19 30.0000000  0  5 09 12 17 28 31
    373120.34848    290743.79444         0.00041  24122166.62044  24122166.84748
   -747487.06707   -582458.19806  24283115.83207  24283115.44806         0.00001
   1861685.89248   1450664.11244         0.00041  23650091.35044  23650087.52048
   1041515.37248    811570.47746         0.00041  21415824.01746  21415820.95948
  -1515391.69748  -1180823.98445         0.00041  22545149.28345  22545148.08748
 94 02 12 13 20 00.0000000  0  5 09 12 17 28 31
    396941.76948    309305.97844         0.00041  24126701.86944  24126701.21148
   -778969.22107   -606989.77306  24277125.17107  24277124.29606         0.00001
   1953135.20848   1521923.29544         0.00041  23667494.42244  23667490.58248
   1079779.92848    841386.98346         0.00041  21423105.27146  21423102.84848
  -1541647.03048  -1201282.66845         0.00041  22540152.74945  22540150.48548
 94 02 12 13 20 30.0000000  0  4 09 17 28 31
    421251.62747    328248.70444         0.00041  24131325.07844  24131323.10947
   2044799.38348   1593349.95544         0.00041  23684940.32844  23684934.02448
   1118590.15548    871628.70546         0.00041  21430489.19346  21430487.61248
  -1567338.45848  -1221301.99245         0.00041  22535263.64045  22535260.21948
 94 02 12 13 21 00.0000000  0  3 17 28 31
   2136615.84048   1664895.21844         0.00041  23702409.46044  23702406.96448
   1157905.06748    902263.69946         0.00041  21437971.10646  21437969.61548
  -1592519.14248  -1240923.26645         0.00041  22530472.45345  22530468.77248
 94 02 12 13 21 30.0000000  0  2 28 31
   1197797.99148    933349.10246         0.00041  21445562.35546  21445560.10148
  -1617101.55148  -1260078.44245         0.00041  22525793.99645  22525793.22048
 94 02 12 13 22 00.0000000  0  2 28 31
   1238176.71748    964813.03246         0.00041  21453246.31646  21453244.92948
  -1641188.96248  -1278847.85645         0.00041  22521209.82945  22521210.22948
 94 02 12 13 22 30.0000000  0  3 09 28 31
        -0.74657        -0.17354         0.00051  24150747.35454  24150748.45157
   1279157.87648    996746.40646         0.00041  21461045.01746  21461043.85748
  -1664678.24448  -1297151.15645         0.00041  22516740.76945  22516742.64348
 94 02 12 13 23 00.0000000  0  3 09 28 31
     26776.85147     20865.43244         0.00041  24155848.27844  24155845.50347
   1320657.29548   1029083.60046         0.00041  21468942.03246  21468940.59448
  -1687646.62648  -1315048.59245         0.00041  22512368.31445  22512370.01648
 94 02 12 13 23 30.0000000  0  4 09 12 28 31
     54071.75247     42134.20544         0.00041  24161042.37444  24161039.63147
        -0.42617         0.34917  24238028.62617  24238034.36717         0.00011
   1362723.60648   1061862.53346         0.00041  21476946.77046  21476945.27648
  -1710054.14148  -1332509.02145         0.00041  22508106.74745  22508103.86348
 94 02 12 13 24 00.0000000  0  3 12 28 31
    -27211.28507    -21202.90507  24232850.98807  24232856.09007         0.00001
   1405301.05348   1095039.74946         0.00041  21485049.66546  21485047.58748
  -1731971.75648  -1349587.72446         0.00041  22503935.91746  22503934.58948
 94 02 12 13 24 30.0000000  0  3 12 28 31
    -53810.98207    -41929.89006  24227790.71307  24227794.27906         0.00001
   1448505.67048   1128705.66046         0.00041  21493270.80646  21493268.84848
  -1753279.42048  -1366191.10546         0.00041  22499880.71746  22499879.18248
 94 02 12 13 25 00.0000000  0  3 12 28 31
    -79898.03907    -62257.49506  24222827.94307  24222829.57106         0.00001
   1492209.87248   1162760.87346         0.00041  21501587.52946  21501584.99048
  -1774080.07348  -1382399.39345         0.00041  22495923.68545  22495920.24648
 94 02 12 13 25 30.0000000  0  3 12 28 31
   -105412.32607    -82138.74306  24217972.90207  24217974.19206         0.00001
   1536461.13648   1197242.36946         0.00041  21510006.92646  21510006.24848
  -1794318.83548  -1398169.81745         0.00041  22492072.46245  22492067.13148
 94 02 12 13 26 00.0000000  0  3 12 28 31
   -130395.40208   -101606.05206  24213218.82308  24213220.41006         0.00001
   1581200.42148   1232104.16046         0.00041  21518520.84246  21518520.16648
  -1814029.42948  -1413528.75045         0.00041  22488322.65645  22488316.34148
 94 02 12 13 26 30.0000000  0  3 12 28 31
   -154811.23908   -120631.38706  24208572.48208  24208573.75306         0.00001
   1626446.31348   1267360.69946         0.00041  21527131.18846  21527130.21748
  -1833173.44148  -1428446.17745         0.00041  22484676.70545  22484677.44248
 94 02 12 13 27 00.0000000  0  3 12 28 31
   -178681.66708   -139231.70706  24204030.09208  24204030.98906         0.00001
   1672168.82848   1302988.62846         0.00041  21535832.09046  21535830.02748
  -1851780.26448  -1442945.01246         0.00041  22481138.32146  22481136.04048
 94 02 12 13 27 30.0000000  0  1 28
   1718164.80248   1338829.64846         0.00041  21544584.87946  21544583.60548
 94 02 12 13 28 00.0000000  0  1 28
   1764230.99048   1374725.35746         0.00041  21553351.40746  21553349.72548
 94 02 12 13 28 30.0000000  0  2 12 28
        -0.43618        -0.80516  24190869.59618  24190868.72016         0.00011
   1811461.01048   1411527.93946         0.00041  21562338.83246  21562336.72848
 94 02 12 13 29 00.0000000  0  3 12 23 28
    -21579.65208    -16815.81706  24186762.85708  24186761.98706         0.00001
        -0.18458         0.62956         0.00051  22405656.29256  22405654.21758
   1859260.72548   1448774.44846         0.00041  21571435.33746  21571433.03348
 94 02 12 13 29 30.0000000  0  3 12 23 28
    -42589.12607    -33186.85406  24182764.64407  24182763.19806         0.00001
     55687.72148     43393.81046         0.00041  22416252.08546  22416250.59448
   1907584.14148   1486429.05246         0.00041  21580630.28446  21580628.58848
 94 02 12 13 30 00.0000000  0  3 12 23 28
    -63036.97007    -49120.20806  24178872.71707  24178872.67706         0.00001
    111427.88848     86827.70046         0.00041  22426858.22446  22426858.19048
   1956418.48248   1524481.78746         0.00041  21589924.29246  21589921.57748
 94 02 12 13 30 30.0000000  0  4 09 12 23 28
         0.05757         0.25554         0.00051  24243583.59354  24243585.21257
    -82905.76107    -64602.39806  24175091.59107  24175092.56106         0.00001
    167255.26748    130329.54546         0.00041  22437483.66546  22437482.01148
   2005769.48548   1562937.10546         0.00041  21599314.55046  21599313.23348
 94 02 12 13 31 00.0000000  0  4 09 12 23 28
     34770.79048     27094.37444         0.00041  24250204.71744  24250206.29848
   -102158.96707    -79604.89206  24171427.02107  24171429.05406         0.00001
    223208.71248    173929.64446         0.00041  22448130.15546  22448130.28248
   2055659.77448   1601812.67546         0.00041  21608807.82446  21608806.77548
 94 02 12 13 31 30.0000000  0  4 09 12 23 28
     70148.52748     54661.44344         0.00041  24256938.03644  24256940.06848
   -120763.64307    -94102.00706  24167886.10907  24167888.29006         0.00001
    279320.57248    217653.14646         0.00041  22458809.74246  22458808.19048
   2106117.01348   1641129.99346         0.00041  21618410.80546  21618409.09748
 94 02 12 13 32 00.0000000  0  4 09 12 23 28
    106051.28448     82637.56344         0.00041  24263770.51044  24263771.05648
   -138786.10807   -108145.46706  24164455.86407  24164458.75406         0.00001
    335529.77548    261452.52546         0.00041  22469503.30546  22469503.22948
   2157055.40948   1680822.25046         0.00041  21628103.14246  21628101.67648
 94 02 12 13 32 30.0000000  0  4 09 12 23 28
    142433.82948    110987.62144         0.00041  24270692.77144  24270694.94448
   -156250.15707   -121753.81606  24161132.14407  24161135.80406         0.00001
    391794.32948    305295.04546         0.00041  22480214.47446  22480209.44848
   2208439.93448   1720862.11846         0.00041  21637881.77746  21637879.21048
 94 02 12 13 33 00.0000000  0  4 09 12 23 28
    179344.18348    139748.95744         0.00041  24277717.23944  24277718.03048
   -173100.28407   -134883.81406  24157925.64707  24157929.78306         0.00001
    448167.37448    349222.08346         0.00041  22490939.27946  22490937.89648
   2260339.79348   1761303.56046         0.00041  21647756.97946  21647756.42548
 94 02 12 13 33 30.0000000  0  3 09 23 28
    216793.40948    168930.13945         0.00041  24284848.00445  24284844.36248
    504669.89748    393250.01545         0.00041  22501692.88545  22501690.05848
   2312779.14448   1802165.37646         0.00041  21657737.03846  21657735.13348
 94 02 12 13 34 00.0000000  0  3 09 23 28
    254807.69548    198551.68544         0.00041  24292085.31844  24292078.78848
    561352.77048    437418.50246         0.00041  22512477.48446  22512476.77348
   2365810.43048   1843488.42746         0.00041  21667827.78046  21667825.66448
 94 02 12 13 34 30.0000000  0  3 09 23 28
    293348.32248    228583.32244         0.00041  24299414.28344  24299413.64748
    618166.11348    481688.62146         0.00041  22523289.23146  22523287.47148
   2419399.99348   1885246.52946         0.00041  21678025.33246  21678024.58248
 94 02 12 13 35 00.0000000  0  3 09 23 28
    332407.33548    259018.91145         0.00041  24306847.68545  24306847.89748
    675097.91148    526051.03046         0.00041  22534125.17446  22534121.15548
   2473541.29648   1927434.55946         0.00041  21688328.22146  21688327.36348
 94 02 12 13 35 30.0000000  0  3 09 23 28
    371967.11148    289844.68844         0.00041  24314374.88844  24314376.77548
    732115.00748    570479.95446         0.00041  22544973.86346  22544971.76448
   2528209.73048   1970033.35446         0.00041  21698731.84146  21698730.34448
 94 02 12 13 36 00.0000000  0  3 09 23 28
    411981.22048    321024.50944         0.00041  24321989.44644  24321991.61148
    789156.75548    614928.07346         0.00041  22555828.22046  22555826.32048
   2583351.49048   2013000.94046         0.00041  21709225.16646  21709222.99748
 94 02 12 13 36 30.0000000  0  3 09 23 28
    452540.01548    352628.78444         0.00041  24329706.35844  24329708.67748
    846281.26948    659440.64646         0.00041  22566699.20846  22566696.00948
   2639016.77848   2056376.47246         0.00041  21719818.18646  21719816.88148
 94 02 12 13 37 00.0000000  0  3 09 23 28
    493564.70548    384596.02144         0.00041  24337514.59744  24337513.77748
    903428.78748    703971.19846         0.00041  22577571.41046  22577570.13048
   2695115.16748   2100089.49246         0.00041  21730492.09146  21730491.38748
 94 02 12 13 37 30.0000000  0  3 09 23 28
    535092.27848    416955.21444         0.00041  24345412.45344  24345415.16048
    960655.68048    748563.56746         0.00041  22588462.27146  22588459.90848
   2751674.49648   2144161.66246         0.00041  21741256.24546  21741254.08548
 94 02 12 13 38 00.0000000  0  3 09 23 28
    577069.17248    449664.47244         0.00041  24353406.39144  24353403.60848
   1017935.68148    793197.34546         0.00041  22599362.34546  22599360.46848
   2808644.98248   2188554.22446         0.00041  21752096.80346  21752094.51148
 94 02 12 13 38 30.0000000  0  3 09 23 28
    619549.13048    482765.73544         0.00041  24361484.58144  24361488.92248
   1075336.81748    837925.47946         0.00041  22610284.90246  22610284.91248
   2866088.17548   2233315.14546         0.00041  21763027.40846  21763026.57648
 94 02 12 13 39 00.0000000  0  3 09 23 28
    662483.86948    516221.33644         0.00041  24369659.84044  24369658.40048
   1132832.66248    882727.43246         0.00041  22621224.53046  22621224.17848
   2923986.55948   2278430.77246         0.00041  21774046.11346  21774044.42948
 94 02 12 13 39 30.0000000  0  4 09 12 23 28
    705854.30448    550016.51844         0.00041  24377910.73544  24377910.70648
        -0.38817        -0.34417  24126928.35417  24126930.69617         0.00011
   1190394.96148    927581.17346         0.00041  22632180.53546  22632178.21348
   2982326.67848   2323890.60646         0.00041  21785147.36646  21785145.83748
 94 02 12 13 40 00.0000000  0  4 09 12 23 28
    749570.94348    584081.34844         0.00041  24386224.91644  24386227.37548
     -8484.88807     -6611.63707  24125313.38807  24125316.05007         0.00001
   1247910.27848    972398.28246         0.00041  22643124.43546  22643123.11048
   3041009.26748   2369617.30146         0.00041  21796313.18946  21796312.48248
 94 02 12 13 40 30.0000000  0  4 09 12 23 28
    793794.64448    618541.33844         0.00041  24394639.90844  24394642.61648
    -16351.59307    -12741.53406  24123815.98807  24123818.14806         0.00001
   1305514.88948   1017285.00746         0.00041  22654085.17646  22654085.76648
   3100174.84248   2415720.34346         0.00041  21807572.57146  21807571.14148
 94 02 12 13 41 00.0000000  0  4 09 12 23 28
    838545.39948    653412.09644         0.00041  24403159.98544  24403157.60248
    -23575.34308    -18370.44806  24122441.92108  24122443.27706         0.00001
   1363221.86548   1062251.45946         0.00041  22665067.91546  22665066.89848
   3159835.02548   2462208.77646         0.00041  21818926.88746  21818924.76448
 94 02 12 13 41 30.0000000  0  4 09 12 23 28
    883796.04848    688672.23744         0.00041  24411772.52944  24411769.74048
    -30176.15408    -23513.92407  24121186.08108  24121187.96307         0.00001
   1420993.87948   1107268.61446         0.00041  22676063.23346  22676060.12548
   3219956.72348   2509056.83846         0.00041  21830367.24546  21830364.97348
 94 02 12 13 42 00.0000000  0  4 09 12 23 28
    929546.22948    724321.75544         0.00041  24420477.93144  24420475.90948
    -36144.29208    -28164.43307  24120050.45108  24120051.70607         0.00001
   1478840.88848   1152344.18646         0.00041  22687068.49046  22687068.13148
   3280559.63148   2556279.86346         0.00041  21841899.46946  21841897.77148
 94 02 12 13 42 30.0000000  0  4 09 12 23 28
    975781.63848    760349.36044         0.00041  24429274.25144  24429275.61148
    -41480.33808    -32322.39306  24119034.92408  24119036.15706         0.00001
   1536770.38348   1197484.06146         0.00041  22698093.78246  22698092.72348
   3341638.68848   2603873.91746         0.00041  21853522.28046  21853521.24748
 94 02 12 13 43 00.0000000  0  3 12 23 28
    -46201.86608    -36001.51806  24118136.56108  24118137.19106         0.00001
   1594767.26248   1242676.42346         0.00041  22709130.56846  22709130.67848
   3403170.90148   2651821.09246         0.00041  21865231.86546  21865230.31748
 94 02 12 13 43 30.0000000  0  4 12 15 23 28
    -50213.10207    -39127.17706  24117373.06507  24117374.19106         0.00001
         0.05757         0.78954         0.00051  25196747.58654  25196737.46957
   1652949.34248   1288013.09245         0.00041  22720201.76845  22720201.42648
   3465252.48348   2700196.35146         0.00041  21877045.06546  21877043.26548
 94 02 12 13 44 00.0000000  0  4 12 15 23 28
    -53610.47707    -41774.50106  24116725.99207  24116728.14306         0.00001
   -106087.77747    -82665.15644         0.00041  25176550.06444  25176549.14147
   1711235.41748   1333430.81545         0.00041  22731293.50845  22731291.95348
   3527769.04648   2748910.54346         0.00041  21888942.09846  21888939.93648
 94 02 12 13 44 30.0000000  0  4 12 15 23 28
    -56451.52607    -43988.31506  24116185.32407  24116186.73306         0.00001
   -212273.41947   -165407.17344         0.00041  25156336.15244  25156340.34747
   1769565.78548   1378883.04645         0.00041  22742393.26545  22742392.59048
   3590640.52748   2797901.28646         0.00041  21900905.61346  21900904.46048
 94 02 12 13 45 00.0000000  0  4 12 15 23 28
    -58741.44707    -45772.64706  24115750.10607  24115751.75606         0.00001
   -318561.39747   -248228.81544         0.00041  25136111.36444  25136112.55947
   1827932.64648   1424363.71545         0.00041  22753501.20145  22753499.45348
   3653873.08548   2847173.38746         0.00041  21912938.07846  21912937.01348
 94 02 12 13 45 30.0000000  0  3 12 23 28
    -60444.93407    -47100.08906  24115426.26907  24115426.51806         0.00001
   1886362.16848   1469893.18745         0.00041  22764618.36545  22764617.60748
   3717504.80448   2896756.53046         0.00041  21925047.25846  21925045.43048
 94 02 12 13 46 00.0000000  0  3 12 23 28
    -61442.05807    -47877.04506  24115235.64907  24115236.87606         0.00001
   1944953.46548   1515548.75945         0.00041  22775768.85845  22775768.17648
   3781664.37148   2946750.99646         0.00041  21937256.31746  21937255.17448
 94 02 12 13 46 30.0000000  0  3 12 23 28
    -61773.65307    -48135.45206  24115172.51707  24115174.71606         0.00001
   2003663.62948   1561296.90345         0.00041  22786940.18245  22786940.64248
   3846329.31848   2997139.25946         0.00041  21949561.63146  21949560.29148
 94 02 12 13 47 00.0000000  0  4 12 15 23 28
    -61483.79707    -47909.59506  24115228.24307  24115229.86706         0.00001
        -1.17057        -1.09554         0.00051  25055195.31654  25055191.69157
   2062443.77848   1607099.61045         0.00041  22798126.55545  22798126.19348
   3911453.18148   3047885.12846         0.00041  21961955.24646  21961952.90048
 94 02 12 13 47 30.0000000  0  3 15 23 28
   -106363.29447    -82880.65044         0.00041  25034952.79044  25034950.96247
   2121264.84048   1652934.18245         0.00041  22809317.07545  22809320.26648
   3976993.97748   3098955.86246         0.00041  21974426.16446  21974424.79148
 94 02 12 13 48 00.0000000  0  3 15 23 28
   -212822.42247   -165835.74544         0.00041  25014691.22444  25014692.25647
   2180077.87348   1698762.49845         0.00041  22820509.79145  22820511.12248
   4042885.31148   3150299.75146         0.00041  21986964.95446  21986963.04748
 94 02 12 13 48 30.0000000  0  3 15 23 28
   -319237.23347   -248756.30244         0.00041  24994445.89344  24994444.26647
   2239028.55348   1744698.10245         0.00041  22831725.54645  22831727.24248
   4109240.61248   3202005.17446         0.00041  21999593.27846  21999590.85348
 94 02 12 13 49 00.0000000  0  4 12 15 23 28
         0.28617        -0.11216  24116591.64817  24116595.30116         0.00011
   -425712.59748   -331724.21944         0.00041  24974191.93944  24974185.58248
   2298003.16948   1790652.31645         0.00041  22842951.10345  22842950.25548
   4175937.14348   3253976.49046         0.00041  22012284.58146  22012282.92248
 94 02 12 13 49 30.0000000  0  4 12 15 23 28
      3372.85807      2627.87106  24117233.38307  24117237.24306         0.00001
   -532175.54548   -414682.48744         0.00041  24953935.42244  24953926.24148
   2357078.21448   1836684.81345         0.00041  22854192.65945  22854192.24948
   4243053.29248   3306274.77746         0.00041  22025055.57946  22025053.82648
 94 02 12 13 50 00.0000000  0  4 12 15 23 28
      7368.90207      5741.64706  24117994.31907  24117997.51306         0.00001
   -638657.82248   -497655.46744         0.00041  24933660.75044  24933663.20148
   2416233.79148   1882780.03945         0.00041  22865449.92445  22865450.70748
   4310558.77248   3358876.43146         0.00041  22037901.48646  22037899.50348
 94 02 12 13 50 30.0000000  0  4 12 15 23 28
     11979.32007      9334.14106  24118871.65307  24118873.60606         0.00001
   -745167.41148   -580649.18444         0.00041  24913399.06844  24913393.47948
   2475461.18648   1928931.22645         0.00041  22876720.62045  22876721.38548
   4378449.44248   3411778.24346         0.00041  22050820.77746  22050819.11748
 94 02 12 13 51 00.0000000  0  3 15 23 28
   -851590.95147   -663576.56644         0.00041  24893142.79644  24893141.08047
   2534865.44948   1975220.26145         0.00041  22888023.68945  22888024.58048
   4446842.79048   3465071.75246         0.00041  22063835.96646  22063833.97248
 94 02 12 13 51 30.0000000  0  3 15 23 28
   -957927.17347   -746435.89944         0.00041  24872911.62444  24872905.94047
   2594452.04548   2021651.35245         0.00041  22899365.45545  22899363.65548
   4515733.48248   3518752.79646         0.00041  22076946.47846  22076943.81348
 94 02 12 13 52 00.0000000  0  3 15 23 28
  -1064284.96747   -829312.07844         0.00041  24852667.65344  24852666.31747
   2654116.91248   2068143.46245         0.00041  22910718.95045  22910716.64448
   4585008.10748   3572733.01546         0.00041  22090128.13446  22090126.19248
 94 02 12 13 52 30.0000000  0  3 15 23 28
  -1170616.30347   -912167.66544         0.00041  24832430.41244  24832432.23347
   2713897.66348   2114725.83545         0.00041  22922094.44545  22922093.50948
   4654707.35048   3627044.10446         0.00041  22103390.37346  22103389.69348
 94 02 12 13 53 00.0000000  0  3 15 23 28
  -1276993.06748   -995058.72544         0.00041  24812191.94844  24812191.76248
   2773725.69548   2161345.03545         0.00041  22933478.51045  22933477.25048
   4724767.23848   3681636.21146         0.00041  22116722.93346  22116721.63448
 94 02 12 13 53 30.0000000  0  3 15 23 28
  -1383334.93448  -1077922.27444         0.00041  24791954.67944  24791956.53848
   2833686.58448   2208067.80145         0.00041  22944885.62045  22944887.29348
   4795278.46448   3736580.01246         0.00041  22130141.61846  22130139.09748
 94 02 12 13 54 00.0000000  0  4 12 15 23 28
        -0.46717        -0.11716  24128603.90317  24128607.19916         0.00011
  -1489710.12948  -1160812.27744         0.00041  24771716.96644  24771715.03048
   2893703.85648   2254834.51145         0.00041  22956308.65745  22956307.30448
   4866178.33348   3791826.64646         0.00041  22143633.60046  22143630.63548
 94 02 12 13 54 30.0000000  0  4 12 15 23 28
      9784.15907      7624.25806  24130466.59207  24130469.24406         0.00001
  -1596127.84448  -1243735.23544         0.00041  24751468.16744  24751462.48848
   2953752.32148   2301625.52145         0.00041  22967735.26945  22967735.05048
   4937440.58348   3847355.66546         0.00041  22157193.39546  22157191.77348
 94 02 12 13 55 00.0000000  0  4 12 15 23 28
     20033.82107     15611.00006  24132416.65507  24132419.77706         0.00001
  -1702708.71848  -1326785.18444         0.00041  24731183.44044  24731179.30748
   3013703.95048   2348341.03645         0.00041  22979144.58745  22979145.39548
   5008945.63548   3903073.87646         0.00041  22170801.06246  22170799.22248
 94 02 12 13 55 30.0000000  0  3 15 23 28
  -1809476.10947  -1409980.49344         0.00041  24710863.23544  24710861.94847
   3073530.33648   2394958.95845         0.00041  22990530.42245  22990527.96748
   5080649.18048   3958946.76846         0.00041  22184445.21846  22184443.72048
 94 02 12 13 56 00.0000000  0  3 15 23 28
  -1916178.09147  -1493125.14244         0.00041  24690555.70844  24690555.92947
   3133478.94848   2441672.13745         0.00041  23001936.59245  23001936.66948
   5152776.73548   4015150.04946         0.00041  22198169.71146  22198168.45348
 94 02 12 13 56 30.0000000  0  4 12 15 23 28
        -0.94717        -0.75416  24138923.44117  24138926.47516         0.00011
  -2022761.05747  -1576176.62244         0.00041  24670277.52344  24670271.99047
   3193599.37248   2488519.20645         0.00041  23013379.18945  23013378.14348
   5225368.73748   4071715.21746         0.00041  22211986.13846  22211982.08748
 94 02 12 13 57 00.0000000  0  4 12 15 23 28
     12782.52707      9960.38306  24141356.53707  24141358.26806         0.00001
  -2129303.97447  -1659197.13544         0.00041  24649999.06244  24649997.16447
   3253822.87148   2535446.60045         0.00041  23024838.81145  23024839.79148
   5298357.86048   4128589.83246         0.00041  22225873.34546  22225872.44848
 94 02 12 13 59 00.0000000  0  1 12
        -0.34717         0.11016  24152230.05217  24152232.18516         0.00011
 94 02 12 13 59 30.0000000  0  1 12
     16052.39607     12508.72206  24155284.94707  24155287.76906         0.00001
 94 02 12 14 00 00.0000000  0  3 01 12 25
        -0.86159        -0.02956         0.00051  20226761.16056  20226758.64059
     32813.05607     25568.98106  24158474.60807  24158476.90206         0.00001
        -0.00257         0.83054         0.00051  24043705.28854  24043698.29357
 94 02 12 14 00 30.0000000  0  2 01 12
      6790.90848      5292.25946         0.00041  20228052.79246  20228050.78248
     50219.50507     39132.43206  24161785.90707  24161789.29906         0.00001
 94 02 12 14 01 00.0000000  0  2 01 12
     14045.99148     10945.57746         0.00041  20229433.06746  20229431.57348
     68224.02307     53161.91506  24165211.88707  24165215.90206         0.00001
 94 02 12 14 01 30.0000000  0  2 01 12
     21774.32148     16967.65846         0.00041  20230903.33846  20230901.60448
     86844.51207     67671.36606  24168756.20207  24168758.80806         0.00001
 94 02 12 14 02 00.0000000  0  3 01 12 15
     30009.27549     23384.50646         0.00041  20232470.97046  20232469.37649
    106107.97407     82681.87306  24172421.97207  24172424.66506         0.00001
        -0.65158        -0.43354         0.00051  24447581.83354  24447574.11158
 94 02 12 14 02 30.0000000  0  3 01 12 15
     38754.76549     30199.17446         0.00041  20234135.16846  20234133.36549
    126016.38207     98194.85706  24176210.71207  24176213.46806         0.00001
   -106120.37348    -82691.03844         0.00041  24427376.20844  24427379.94848
 94 02 12 14 03 00.0000000  0  3 01 12 15
     48001.50949     37404.43746         0.00041  20235894.49446  20235893.04249
    146549.61707    114194.75706  24180117.88607  24180120.81306         0.00001
   -212211.35747   -165359.31644         0.00041  24407192.36544  24407189.21447
 94 02 12 14 03 30.0000000  0  3 01 12 15
     57716.77148     44974.77546         0.00041  20237743.80046  20237741.63648
    167684.35507    130663.33906  24184139.16207  24184142.35806         0.00001
   -318294.91147   -248021.88644         0.00041  24387000.36244  24387003.66547
 94 02 12 14 04 00.0000000  0  3 01 12 15
     67935.45248     52937.39246         0.00041  20239688.39846  20239685.95148
    189466.76107    147636.63506  24188284.01007  24188287.88806         0.00001
   -424321.98848   -330640.35044         0.00041  24366828.31944  24366829.34248
 94 02 12 14 04 30.0000000  0  3 01 12 15
     78621.50648     61264.19346         0.00041  20241721.72746  20241719.86248
    211882.86107    165103.70606  24192549.35107  24192553.54406         0.00001
   -530304.26948   -413223.91944         0.00041  24346660.82844  24346660.26648
 94 02 12 14 05 00.0000000  0  3 01 12 15
     89762.96549     69945.84446         0.00041  20243841.45646  20243840.07949
    234931.17607    183063.40906  24196935.09107  24196939.04506         0.00001
   -636240.96747   -495772.01144         0.00041  24326495.02944  24326498.43447
 94 02 12 14 05 30.0000000  0  3 01 12 15
    101292.13849     78929.61946         0.00041  20246035.94646  20246033.86549
    258557.88807    201473.83906  24201431.84707  24201435.51506         0.00001
   -742182.86047   -578324.13544         0.00041  24306336.73744  24306337.12147
 94 02 12 14 06 00.0000000  0  3 01 12 15
    113302.28548     88288.17446         0.00041  20248321.30946  20248319.42748
    282840.25507    220395.13006  24206053.00407  24206056.30506         0.00001
   -848050.56247   -660818.50244         0.00041  24286194.12644  24286192.70747
 94 02 12 14 06 30.0000000  0  3 01 12 15
    125799.49148     98026.25746         0.00041  20250699.81346  20250697.31348
    307765.81707    239817.62406  24210796.15807  24210799.10606         0.00001
   -953854.13448   -743262.74144         0.00041  24266058.78744  24266060.35248
 94 02 12 14 07 00.0000000  0  3 01 12 15
    138775.90248    108137.74546         0.00041  20253168.46346  20253166.63848
    333312.26507    259723.89806  24215657.74907  24215660.90306         0.00001
  -1059612.97248   -825672.24344         0.00041  24245938.03544  24245935.88548
 94 02 12 14 07 30.0000000  0  2 01 15
    152210.59348    118606.33246         0.00041  20255725.47046  20255723.12348
  -1165350.06548   -908064.89044         0.00041  24225811.67444  24225815.98948
 94 02 12 14 08 00.0000000  0  2 01 15
    166178.85748    129490.69646         0.00041  20258383.29646  20258381.15948
  -1270985.50948   -990378.14944         0.00041  24205719.06644  24205711.68048
 94 02 12 14 08 30.0000000  0  3 01 12 15
    180584.03449    140715.51646         0.00041  20261125.15646  20261122.87149
         0.35817        -0.49016  24230949.46917  24230953.68916         0.00011
  -1376592.28047  -1072669.10644         0.00041  24185614.36244  24185613.20447
 94 02 12 14 09 00.0000000  0  3 01 12 15
    195457.87349    152305.52046         0.00041  20263955.01946  20263953.13949
     28058.13407     21862.66306  24236290.23707  24236293.90706         0.00001
  -1482117.14848  -1154896.31944         0.00041  24165539.38744  24165536.33848
 94 02 12 14 09 30.0000000  0  2 01 15
    210738.26148    164212.31146         0.00041  20266862.71246  20266860.45148
  -1587615.86048  -1237103.13444         0.00041  24145464.50444  24145463.98548
 94 02 12 14 10 00.0000000  0  2 01 15
    226506.04749    176498.89246         0.00041  20269863.77146  20269861.52349
  -1693003.50948  -1319223.28944         0.00041  24125401.61444  24125409.64148
 94 02 12 14 10 30.0000000  0  2 01 15
    242706.43149    189122.56846         0.00041  20272946.05446  20272944.22749
  -1798335.04248  -1401299.80644         0.00041  24105366.02244  24105366.11348
 94 02 12 14 11 00.0000000  0  3 01 12 15
    259374.22149    202110.45646         0.00041  20276117.71246  20276116.30549
        -0.00917         0.37816  24258831.32417  24258835.43116         0.00011
  -1903583.90648  -1483311.89844         0.00041  24085339.00044  24085337.68848
 94 02 12 14 11 30.0000000  0  2 01 15
    276465.61549    215428.42446         0.00041  20279370.47046  20279368.46649
  -2008793.45648  -1565293.35444         0.00041  24065311.68444  24065313.65548
 94 02 12 14 12 00.0000000  0  2 01 15
    294020.72148    229107.72046         0.00041  20282710.81846  20282708.79748
  -2113918.97648  -1647209.30344         0.00041  24045304.76044  24045306.86648
 94 02 12 14 12 30.0000000  0  2 01 15
    312013.07948    243127.74346         0.00041  20286134.18046  20286132.36748
  -2218982.79348  -1729077.17644         0.00041  24025317.09644  24025317.09348
 94 02 12 14 13 00.0000000  0  2 01 15
    330511.56348    257542.13446         0.00041  20289654.44946  20289652.72248
  -2323914.41548  -1810842.08144         0.00041  24005351.63644  24005348.15248
 94 02 12 14 13 30.0000000  0  3 01 15 23
    349445.32449    272295.70746         0.00041  20293257.85446  20293256.17049
  -2428780.21548  -1892555.78344         0.00041  23985392.86544  23985390.33448
        -0.66458         0.25455         0.00051  23413013.19555  23413009.44158
 94 02 12 14 15 00.0000000  0  1 12
        -0.30617        -0.19616  24309603.97117  24309608.44716         0.00011
 94 02 12 14 15 30.0000000  0  3 12 23 31
     36106.47507     28134.89706  24316474.41607  24316479.56006         0.00001
        -0.40258         0.59654         0.00051  23461322.25154  23461319.62858
        -0.58158        -0.05456         0.00051  22644189.66156  22644189.65158
 94 02 12 14 16 00.0000000  0  4 12 15 23 31
     72870.42207     56782.03506  24323471.39707  24323474.07406         0.00001
        -1.04257        -0.54754         0.00051  23885857.58854  23885858.61457
     63681.79347     49622.97244         0.00041  23473443.68344  23473435.70747
     34771.10948     27094.76945         0.00041  22650808.45145  22650806.86848
 94 02 12 14 16 30.0000000  0  4 12 15 23 31
    110186.99007     85859.89106  24330572.76607  24330574.82506         0.00001
   -104381.28148    -81335.74844         0.00041  23865995.33944  23865997.28048
    127366.60747     99247.42644         0.00041  23485562.60144  23485552.07747
     69957.23248     54512.52045         0.00041  22657503.10145  22657500.29548
 94 02 12 14 17 00.0000000  0  5 12 15 23 28 31
    148060.39207    115371.54806  24337780.03707  24337782.70306         0.00001
   -208720.02448   -162638.56944         0.00041  23846148.58444  23846149.36848
    191062.72047    148880.64544         0.00041  23497681.34644  23497674.94647
        -0.71658         0.05754         0.00051  22833025.69254  22833021.88958
    105572.19248     82264.42846         0.00041  22664278.58646  22664278.25748
 94 02 12 14 17 30.0000000  0  5 12 15 23 28 31
    186458.19207    145291.87806  24345087.49607  24345090.12306         0.00001
   -313045.86748   -243931.45344         0.00041  23826296.89144  23826297.04048
    254733.08548    198493.86844         0.00041  23509795.75244  23509796.12448
     85369.02948     66521.92944         0.00041  22849274.67544  22849267.49948
    141587.65048    110328.40446         0.00041  22671133.07746  22671133.06648
 94 02 12 14 18 00.0000000  0  4 15 23 28 31
   -417352.22848   -325209.20044         0.00041  23806447.18944  23806443.74548
    318391.38148    248097.65744         0.00041  23521912.87844  23521908.63248
    170891.95248    133163.25744         0.00041  22865548.41544  22865542.67748
    178005.92248    138706.26346         0.00041  22678063.57846  22678063.73848
 94 02 12 14 18 30.0000000  0  4 15 23 28 31
   -521474.95648   -406343.75444         0.00041  23786630.33444  23786625.95248
    382222.58948    297836.25344         0.00041  23534056.35144  23534056.33948
    256722.37648    200044.04544         0.00041  22881882.94444  22881874.12448
    214981.39548    167518.32446         0.00041  22685101.65746  22685098.03748
 94 02 12 14 19 00.0000000  0  5 12 15 23 28 31
         0.25917        -0.35516  24367697.13817  24367701.50316         0.00011
   -625429.28348   -487347.09344         0.00041  23766850.50244  23766846.17548
    446205.62448    347693.12244         0.00041  23546236.45344  23546233.09848
    342834.33648    267144.08244         0.00041  22898257.65944  22898262.91348
    252488.03248    196744.27845         0.00041  22692236.05645  22692236.18748
 94 02 12 14 19 30.0000000  0  5 12 15 23 28 31
     40957.38907     31914.23006  24375491.18307  24375494.87706         0.00001
   -729206.54248   -568212.56144         0.00041  23747103.55144  23747098.19448
    510342.69348    397669.95144         0.00041  23558439.35544  23558438.69648
    429244.84048    334477.13444         0.00041  22914704.51144  22914707.04348
    290522.16848    226381.25745         0.00041  22699474.43545  22699473.80648
 94 02 12 14 20 00.0000000  0  5 12 15 23 28 31
     82577.05007     64345.06606  24383412.72707  24383414.80306         0.00001
   -832815.10548   -648946.49744         0.00041  23727387.85644  23727381.69048
    574636.85248    447769.25344         0.00041  23570672.89544  23570672.48748
    515934.94348    402027.84144         0.00041  22931197.33044  22931202.89848
    329074.09648    256421.69145         0.00041  22706810.31645  22706808.79048
 94 02 12 14 20 30.0000000  0  5 12 15 23 28 31
    124874.92507     97304.42106  24391462.45407  24391463.96606         0.00001
   -936235.38148   -729533.75344         0.00041  23707705.76144  23707702.47348
    639099.14248    497999.58445         0.00041  23582940.29345  23582939.05548
    602915.53248    469804.91544         0.00041  22947759.36344  22947753.85848
    368154.88848    286874.25345         0.00041  22714245.71045  22714246.82448
 94 02 12 14 21 00.0000000  0  5 12 15 23 28 31
    167511.42407    130527.63006  24399575.99407  24399577.15406         0.00001
  -1039803.43048   -810236.14344         0.00041  23687998.79744  23687993.45648
    703389.24548    548095.73944         0.00041  23595167.44944  23595173.67248
    689840.35748    537538.53444         0.00041  22964299.73044  22964294.64648
    407425.67348    317474.86246         0.00041  22721721.25146  22721719.97748
 94 02 12 14 21 30.0000000  0  5 12 15 23 28 31
    210810.35007    164267.03706  24407814.90507  24407816.77906         0.00001
  -1143191.68048   -890798.41644         0.00041  23668326.62444  23668319.59848
    767835.84448    598313.77544         0.00041  23607435.67244  23607437.76248
    777039.60247    605485.95944         0.00041  22980883.12444  22980886.82447
    447209.90348    348475.55646         0.00041  22729293.39146  22729290.25848
 94 02 12 14 22 00.0000000  0  5 12 15 23 28 31
    254732.17407    198491.80806  24416172.46007  24416176.06706         0.00001
  -1246436.00748   -971248.50444         0.00041  23648674.60944  23648674.88248
    832407.73748    648629.47845         0.00041  23619723.05345  23619724.44748
    864467.12647    673611.13744         0.00041  22997524.90244  22997525.34947
    487471.99048    379848.59345         0.00041  22736954.73145  22736951.09948
 94 02 12 14 22 30.0000000  0  5 12 15 23 28 31
    299268.37707    233195.32106  24424647.63107  24424651.16106         0.00001
  -1349541.19948  -1051590.24044         0.00041  23629053.24744  23629054.18048
    897094.86948    699034.98545         0.00041  23632031.61845  23632033.91048
    952121.44947    741913.23444         0.00041  23014197.48944  23014206.00747
    528199.24248    411584.10645         0.00041  22744703.51645  22744702.32448
 94 02 12 14 23 00.0000000  0  5 12 15 23 28 31
    344363.59307    268334.41506  24433229.46507  24433233.22106         0.00001
  -1452558.40348  -1131863.38344         0.00041  23609450.41444  23609451.74148
    961850.10748    749493.56845         0.00041  23644356.83845  23644355.62648
   1039933.65847    810338.33744         0.00041  23030918.62644  23030916.81447
    569333.71948    443636.93845         0.00041  22752532.73345  22752530.53848
 94 02 12 14 23 30.0000000  0  5 12 15 23 28 31
    390058.27307    303940.56406  24441925.98807  24441928.20106         0.00001
  -1555443.48948  -1212033.55245         0.00041  23589877.27145  23589875.19048
   1026710.47148    800034.07745         0.00041  23656697.16745  23656698.19248
   1127946.23047    878919.51544         0.00041  23047676.60044  23047665.70947
    610920.35848    476042.10645         0.00041  22760444.19245  22760442.92948
 94 02 12 14 24 00.0000000  0  5 12 15 23 28 31
    436393.16607    340045.66606  24450743.47207  24450744.75206         0.00001
  -1658151.45348  -1292065.74244         0.00041  23570329.57444  23570328.45848
   1091720.33848    850691.00845         0.00041  23669069.83945  23669068.16248
   1216196.22747    947685.72144         0.00041  23064455.31944  23064458.01747
    653010.98448    508839.99145         0.00041  22768454.82245  22768452.06148
 94 02 12 14 24 30.0000000  0  5 12 15 23 28 31
    483317.01307    376609.69106  24459671.90107  24459673.71706         0.00001
  -1760729.76048  -1371996.90344         0.00041  23550806.80644  23550803.17648
   1156821.66948    901419.32044         0.00041  23681460.09744  23681458.60548
   1304630.26647   1016595.27844         0.00041  23081281.73444  23081284.82247
    695547.09748    541985.00245         0.00041  22776547.95845  22776547.51648
 94 02 12 14 25 00.0000000  0  5 12 15 23 28 31
    530812.21207    413618.88706  24468710.34307  24468711.69406         0.00001
  -1863192.14548  -1451837.74644         0.00041  23531311.60144  23531306.35048
   1221993.15748    952202.20144         0.00041  23693859.12044  23693859.51448
   1393226.81647   1085631.59444         0.00041  23098143.46844  23098146.81847
    738522.98948    575472.67345         0.00041  22784726.40645  22784726.27148
 94 02 12 14 25 30.0000000  0  4 12 15 23 31
    578901.68407    451091.17206  24477860.70107  24477863.21906         0.00001
  -1965511.62148  -1531567.24844         0.00041  23511837.06944  23511837.58348
   1287250.89548   1003052.34744         0.00041  23706276.41844  23706276.07948
    781971.04348    609328.30645         0.00041  22792993.89645  22792993.31248
 94 02 12 14 27 00.0000000  0  1 12
        -0.21317         0.04916  24505948.39417  24505949.82316         0.00011
 94 02 12 14 29 30.0000000  0  1 28
        -0.61357        -0.57354         0.00051  23251133.73054  23251137.05457
 94 02 12 14 30 00.0000000  0  1 01
        -0.69458        -0.50656         0.00051  20457317.89956  20457315.56958
 94 02 12 14 30 30.0000000  0  1 01
     33033.12649     25740.12246         0.00041  20463604.04346  20463602.47849
 94 02 12 14 31 00.0000000  0  1 01
     66652.19948     51936.78046         0.00041  20470001.55446  20469999.59748
 94 02 12 14 31 30.0000000  0  2 01 23
    100653.97448     78431.65046         0.00041  20476472.09746  20476469.71148
        -0.96458        -0.10054         0.00051  23856318.44954  23856315.13058
 94 02 12 14 32 00.0000000  0  3 01 12 23
    135081.07649    105257.94346         0.00041  20483023.41846  20483021.60249
        -0.92517        -0.15316  24606589.21217  24606591.35516         0.00011
     66484.25548     51806.54344         0.00041  23868967.59944  23868969.58348
 94 02 12 14 32 30.0000000  0  3 01 12 23
    169843.88949    132345.83246         0.00041  20489638.80146  20489636.85449
     56220.62907     43808.83106  24617288.13507  24617290.19606         0.00001
    133051.33448    103676.92844         0.00041  23881637.31744  23881637.03248
 94 02 12 14 33 00.0000000  0  3 01 12 23
    205000.97049    159740.94546         0.00041  20496329.17946  20496326.82149
    113046.23507     88088.48206  24628101.63607  24628104.09606         0.00001
    199760.16248    155657.79844         0.00041  23894322.93144  23894330.38748
 94 02 12 14 33 30.0000000  0  3 01 12 23
    240479.12749    187386.24146         0.00041  20503080.39646  20503078.35649
    170405.62807    132784.04506  24639015.93207  24639019.39706         0.00001
    266540.14848    207694.10544         0.00041  23907034.50444  23907036.73048
 94 02 12 14 34 00.0000000  0  5 01 12 15 23 28
    276353.47449    215340.25946         0.00041  20509906.24246  20509904.69149
    228360.50807    177943.65106  24650044.46807  24650047.18206         0.00001
        -0.46658         0.48254         0.00051  23185082.75954  23185081.85958
    333458.12748    259837.85144         0.00041  23919765.21744  23919770.66148
         0.00958         0.56854         0.00051  23406783.64654  23406786.37458
 94 02 12 14 34 30.0000000  0  4 01 12 15 23
    311795.76348    242957.60446         0.00041  20516651.13846  20516648.63148
    286075.00807    222915.94506  24661027.41807  24661029.93206         0.00001
   -100094.78048    -77995.14445         0.00041  23166038.22645  23166034.62348
    399674.17848    311434.67144         0.00041  23932373.92144  23932370.41248
 94 02 12 14 35 00.0000000  0  4 01 12 15 23
    347118.62048    270481.88746         0.00041  20523373.09246  20523370.31048
    343840.58607    267928.02506  24672019.92907  24672022.79306         0.00001
   -200507.03248   -156238.48045         0.00041  23146929.38745  23146925.08248
    465475.30848    362708.17944         0.00041  23944893.40044  23944890.76448
 94 02 12 14 35 30.0000000  0  4 01 12 15 23
    384286.44348    299443.81146         0.00041  20530445.89446  20530443.35348
    403609.68707    314501.28106  24683393.85407  24683396.58106         0.00001
   -299279.76248   -233204.26745         0.00041  23128131.74445  23128133.26048
    532818.82548    415183.60544         0.00041  23957701.82344  23957708.31148
 94 02 12 14 36 00.0000000  0  4 01 12 15 23
    422255.41049    329030.00346         0.00041  20537671.01046  20537669.40749
    464333.10207    361818.15906  24694948.22607  24694951.13406         0.00001
   -397457.95348   -309706.74845         0.00041  23109450.23945  23109450.43048
    600658.08947    468045.23444         0.00041  23970613.76544  23970616.60947
 94 02 12 14 36 30.0000000  0  3 01 12 15
    460181.16949    358582.52446         0.00041  20544887.89446  20544886.09149
    525176.99607    409228.94906  24706525.23207  24706529.26206         0.00001
   -495870.22948   -386391.65945         0.00041  23090723.94545  23090720.32548
 94 02 12 14 37 00.0000000  0  3 01 12 15
    498576.11549    388500.64946         0.00041  20552194.59746  20552192.38949
    586651.58707    457131.16006  24718223.83907  24718227.47406         0.00001
   -594001.96348   -462857.91945         0.00041  23072047.79945  23072043.95648
 94 02 12 14 37 30.0000000  0  3 01 12 15
    537424.56349    418772.13946         0.00041  20559587.17946  20559585.03749
    648759.90907    505527.18606  24730043.43207  24730046.56106         0.00001
   -691845.24648   -539099.50945         0.00041  23053432.27145  23053430.50648
 94 02 12 14 38 00.0000000  0  3 01 12 15
    576631.94849    449323.32846         0.00041  20567048.00246  20567046.10049
    711419.10507    554352.48006  24741967.88207  24741970.29306         0.00001
   -789478.18948   -615177.14845         0.00041  23034854.69745  23034851.87748
 94 02 12 14 38 30.0000000  0  3 01 12 15
    616201.68949    480156.87346         0.00041  20574577.77346  20574575.83849
    774626.83407    603605.19506  24753996.56007  24753997.82906         0.00001
   -886898.40948   -691089.00045         0.00041  23016312.97645  23016308.86148
 94 02 12 14 39 00.0000000  0  3 01 12 15
    656087.67449    511236.83646         0.00041  20582167.58946  20582165.88449
    838325.95807    653240.81806  24766118.54707  24766119.60706         0.00001
   -984158.21248   -766875.90845         0.00041  22997802.60945  22997802.82348
 94 02 12 14 39 30.0000000  0  3 01 12 15
    696386.13949    542638.21446         0.00041  20589837.20546  20589834.88949
    902615.61107    703336.63706  24778352.35507  24778354.36306         0.00001
  -1081153.57348   -842456.69845         0.00041  22979344.03845  22979345.21948
 94 02 12 14 40 00.0000000  0  3 01 12 15
    737049.44048    574323.88746         0.00041  20597574.30246  20597571.79348
    967435.23307    753845.37206  24790686.90907  24790689.23906         0.00001
  -1177940.03348   -917874.77345         0.00041  22960924.74645  22960925.18248
 94 02 12 14 40 30.0000000  0  3 01 12 15
    778062.74748    606282.28746         0.00041  20605379.16846  20605376.65948
   1032772.04407    804757.12406  24803120.01807  24803122.24806         0.00001
  -1274525.61548   -993136.25945         0.00041  22942552.54445  22942547.22348
 94 02 12 14 41 00.0000000  0  4 01 12 15 23
    819379.59549    638477.21646         0.00041  20613241.04646  20613239.38949
   1098591.86407    856045.22306  24815645.22207  24815647.54806         0.00001
  -1370939.72848  -1068264.17244         0.00041  22924200.76644  22924201.70848
        -0.88758        -0.10054         0.00051  24100157.79554  24100159.62558
 94 02 12 14 41 30.0000000  0  4 01 12 15 23
    861090.40648    670979.12546         0.00041  20621179.00946  20621176.42548
   1164984.96707    907780.08406  24828279.50607  24828281.35306         0.00001
  -1467086.83748  -1143184.00345         0.00041  22905904.13045  22905905.10948
     68646.64948     53491.37844         0.00041  24113220.35544  24113223.75448
 94 02 12 14 42 00.0000000  0  4 01 12 15 23
    903088.36149    703704.77846         0.00041  20629171.10046  20629168.94749
   1231848.18007    959881.26106  24841003.67607  24841005.17406         0.00001
  -1563065.60748  -1217972.66144         0.00041  22887644.55444  22887643.10348
    137371.93648    107043.49044         0.00041  24126297.51944  24126304.13548
 94 02 12 14 42 30.0000000  0  5 01 12 15 23 28
    945360.25849    736643.89346         0.00041  20637214.76246  20637212.86349
   1299171.90707   1012341.27606  24853815.21107  24853817.57806         0.00001
  -1658880.26948  -1292633.47945         0.00041  22869409.33945  22869407.80648
    206153.88647    160639.93444         0.00041  24139391.03944  24139392.56847
         0.03657         0.26554         0.00051  23706493.76454  23706492.63457
 94 02 12 14 43 00.0000000  0  4 01 12 15 28
    987952.57148    769832.68946         0.00041  20645320.23546  20645317.34748
   1366994.79407   1065190.21006  24866721.40707  24866723.88006         0.00001
  -1754487.07848  -1367132.28745         0.00041  22851217.78445  22851210.84348
     93453.67247     72821.29044         0.00041  23724284.21644  23724273.51847
 94 02 12 14 43 30.0000000  0  5 01 12 15 28 31
   1030854.83548    803263.00946         0.00041  20653484.29546  20653481.55448
   1435307.40507   1118420.76806  24879719.82907  24879723.43506         0.00001
  -1849890.45848  -1441472.61145         0.00041  22833063.05645  22833057.88648
    186941.60947    145668.79344         0.00041  23742078.16044  23742067.71047
        -0.69158        -0.29154         0.00051  23142875.88354  23142873.50158
 94 02 12 14 44 00.0000000  0  5 01 12 15 28 31
   1074045.62449    836918.14346         0.00041  20661702.94346  20661701.26449
   1504096.11807   1172022.31906  24892810.09107  24892813.05306         0.00001
  -1945099.17648  -1515661.24545         0.00041  22814945.12445  22814942.03948
    280448.43347    218531.26544         0.00041  23759861.78644  23759860.10947
     58146.36948     45309.01044         0.00041  23153939.51244  23153938.04448
 94 02 12 14 44 30.0000000  0  6 01 12 15 25 28 31
   1117575.65248    870837.61346         0.00041  20669986.41046  20669984.43648
   1573409.11607   1226032.44706  24905999.64307  24906002.76906         0.00001
  -2040059.72248  -1589656.49645         0.00041  22796874.31145  22796871.76648
        -0.64658        -0.35754         0.00051  22412960.20654  22412958.54158
    374034.51047    291455.30044         0.00041  23777666.28344  23777670.48047
    116642.92248     90890.73744         0.00041  23165067.84544  23165069.50548
 94 02 12 14 45 00.0000000  0  6 01 12 15 25 28 31
   1161385.60248    904975.22046         0.00041  20678322.96646  20678320.37748
   1643183.30507   1280401.90706  24919277.70407  24919281.00906         0.00001
  -2134829.97748  -1663503.46245         0.00041  22778838.53345  22778838.69848
    -88627.23448    -69060.02744         0.00041  22396092.61044  22396091.57148
    467618.92147    364378.00444         0.00041  23795476.11244  23795477.57147
    175438.44448    136705.35844         0.00041  23176258.25044  23176258.32648
 94 02 12 14 45 30.0000000  0  5 01 12 15 25 31
   1205519.68349    939365.38946         0.00041  20686722.00546  20686719.47749
   1713456.37707   1335160.10506  24932650.06707  24932653.08206         0.00001
  -2229367.06548  -1737168.74145         0.00041  22760851.87245  22760850.34548
   -177021.72348   -137938.87945         0.00041  22379274.01445  22379271.15948
    234571.05048    182782.72144         0.00041  23187508.90144  23187510.42048
 94 02 12 14 46 00.0000000  0  5 01 12 15 25 31
   1249836.56549    973897.99946         0.00041  20695154.75346  20695152.76449
   1784076.15607   1390188.45806  24946088.49007  24946091.60906         0.00001
  -2323818.27548  -1810767.11045         0.00041  22742878.47445  22742876.51648
   -265338.98548   -206757.54745         0.00041  22362467.72745  22362465.35748
    293886.63548    229002.52344         0.00041  23198806.10644  23198798.25248
 94 02 12 14 46 30.0000000  0  5 01 12 15 25 31
   1294659.08749   1008824.62146         0.00041  20703685.04346  20703682.49849
   1855360.14307   1445734.36706  24959652.56307  24959657.46106         0.00001
  -2417860.97548  -1884047.16245         0.00041  22724980.18045  22724980.62748
   -353246.24848   -275256.75844         0.00041  22345740.30344  22345737.09248
    353695.63048    275606.93444         0.00041  23210179.77844  23210179.49248
 94 02 12 14 47 00.0000000  0  6 01 12 15 25 28 31
   1339980.35249   1044139.86146         0.00041  20712308.92046  20712306.73549
   1927298.36907   1501790.08306  24973342.04807  24973345.88806         0.00001
  -2511500.06848  -1957012.72245         0.00041  22707161.58345  22707159.70548
   -440744.48648   -343437.20745         0.00041  22329087.56845  22329086.82348
        -1.18157        -0.87654         0.00051  23866782.62454  23866779.13957
    413963.43647    322568.81544         0.00041  23221652.40144  23221647.88047
 94 02 12 14 47 30.0000000  0  7 01 12 15 23 25 28 31
   1385583.97349   1079675.12646         0.00041  20720987.09446  20720984.81449
   1999689.25207   1558198.51206  24987118.13807  24987120.90606         0.00001
  -2604931.35448  -2029816.35345         0.00041  22689382.60845  22689380.63948
        -0.02358         0.90754         0.00051  24271004.41354  24271006.89158
   -528026.38048   -411449.02145         0.00041  22312477.68845  22312475.88648
     93879.04748     73152.37944         0.00041  23884643.62544  23884646.01848
    474475.57847    369721.04144         0.00041  23233170.14744  23233161.46247
 94 02 12 14 48 00.0000000  0  6 01 12 15 23 25 28
   1431411.20148   1115384.63546         0.00041  20729707.69246  20729705.11148
   2072491.50107   1614927.46506  25000971.83007  25000975.01406         0.00001
  -2698191.10248  -2102486.32245         0.00041  22671634.24845  22671635.30848
     69717.40348     54325.97744         0.00041  24284279.20544  24284272.99148
   -615121.57848   -479315.47145         0.00041  22295905.02745  22295903.57148
    187715.76448    146270.99944         0.00041  23902496.84444  23902501.35148
 94 02 12 14 48 30.0000000  0  6 01 12 15 23 25 28
   1477392.82748   1151214.45546         0.00041  20738456.82446  20738454.83548
   2145640.40007   1671926.56406  25014891.15107  25014895.32606         0.00001
  -2791338.72948  -2175068.90245         0.00041  22653906.74545  22653907.92648
    139372.91548    108602.88444         0.00041  24297529.46944  24297529.47448
   -702083.01948   -547077.60845         0.00041  22279356.63645  22279355.70348
    281461.49347    219319.18444         0.00041  23920336.43844  23920339.01947
 94 02 12 14 49 00.0000000  0  8 01 12 15 21 23 25 28 31
   1523845.02448   1187410.94746         0.00041  20747297.46346  20747294.96348
   2219457.91707   1729446.66606  25028939.13107  25028943.02106         0.00001
  -2884047.40348  -2247309.49045         0.00041  22636264.89045  22636264.89048
        -0.86058        -0.67656         0.00051  21427833.42156  21427831.11958
    209298.52048    163090.41144         0.00041  24310844.35744  24310836.42948
   -788585.01948   -614481.77645         0.00041  22262896.44645  22262894.19348
    375430.97647    292541.86944         0.00041  23938220.13744  23938219.92447
         0.06658         0.55454         0.00051  23267971.98654  23267967.57658
 94 02 12 14 49 30.0000000  0  7 01 12 15 21 25 28 31
   1570685.36348   1223909.87946         0.00041  20756211.05446  20756208.35948
   2293861.98307   1787423.85106  25043097.91507  25043100.70106         0.00001
  -2976393.49548  -2319267.53845         0.00041  22618696.17245  22618692.30848
     43370.16448     33794.89346         0.00041  21436087.27746  21436084.43348
   -874702.76048   -681586.49545         0.00041  22246510.39545  22246506.65748
    469536.44247    365870.99944         0.00041  23956131.81244  23956131.30447
     61774.33048     48136.21544         0.00041  23279713.96144  23279723.19448
 94 02 12 14 50 00.0000000  0  6 01 12 15 21 25 31
   1617617.00548   1260479.96746         0.00041  20765141.81346  20765138.43148
   2368538.72007   1845613.45806  25057308.27807  25057311.14106         0.00001
  -3068685.65148  -2391183.52545         0.00041  22601131.35845  22601129.11748
     86748.45148     67596.12246         0.00041  21444341.05846  21444339.49848
   -960741.10748   -748629.33145         0.00041  22230137.38345  22230133.57048
    123682.98548     96376.65844         0.00041  23291509.66644  23291503.64448
 94 02 12 14 50 30.0000000  0  6 01 12 15 21 25 31
   1664677.13948   1297150.18246         0.00041  20774096.87646  20774094.30548
   2443514.29707   1904035.91206  25071575.71007  25071579.88106         0.00001
  -3160892.20048  -2463032.81345         0.00041  22583584.36145  22583581.77448
    130162.18948    101424.96046         0.00041  21452601.29146  21452600.49648
  -1046671.44048   -815588.02146         0.00041  22213782.72846  22213781.66948
    185759.53547    144748.25244         0.00041  23303307.72644  23303314.23547
 94 02 12 14 51 00.0000000  0  7 01 12 15 21 25 28 31
   1712227.73249   1334202.57146         0.00041  20783144.77846  20783143.32049
   2519149.21707   1962972.17006  25085968.85407  25085972.69306         0.00001
  -3252647.60248  -2534530.57845         0.00041  22566124.74945  22566122.76748
    173967.82348    135559.19346         0.00041  21460938.79946  21460936.37448
  -1132132.84848   -882181.33946         0.00041  22197520.18846  22197519.50748
        -1.09857        -0.22354         0.00051  24009729.12454  24009733.14657
    248340.90048    193512.75144         0.00041  23315223.51244  23315225.00348
 94 02 12 14 51 30.0000000  0  6 01 12 15 21 25 31
   1760124.42049   1371524.63646         0.00041  20792259.42646  20792257.95449
   2595284.46807   2022298.28806  25100456.73007  25100460.71206         0.00001
  -3344105.26848  -2605796.30745         0.00041  22548723.57845  22548719.83848
    217994.98348    169866.03746         0.00041  21469317.06146  21469314.78248
  -1217285.55748   -948534.10446         0.00041  22181317.39046  22181315.52148
    311253.66448    242535.59644         0.00041  23327197.08944  23327197.48048
 94 02 12 14 52 00.0000000  0  6 01 12 15 21 25 31
   1808188.90148   1408977.45446         0.00041  20801406.11646  20801403.89248
   2671731.10607   2081867.03006  25115004.33407  25115008.08806         0.00001
  -3435448.96048  -2676973.22345         0.00041  22531340.04445  22531338.59148
    262059.71648    204202.16746         0.00041  21477701.15846  21477699.64848
  -1302321.95148  -1014796.25646         0.00041  22165135.52346  22165133.23048
    374284.19248    291650.28044         0.00041  23339194.77444  23339191.92048
 94 02 12 14 52 30.0000000  0  6 01 12 15 21 25 31
   1856630.93449   1446724.46146         0.00041  20810624.44546  20810622.57649
   2748692.45907   2141836.84406  25129649.97807  25129652.51806         0.00001
  -3526469.31648  -2747898.21245         0.00041  22514019.90845  22514017.27248
    306372.83948    238731.83646         0.00041  21486134.53246  21486131.53748
  -1387037.44948  -1080808.33746         0.00041  22149015.06746  22149011.94648
    437638.29448    341017.10144         0.00041  23351248.66044  23351247.17648
 94 02 12 14 53 00.0000000  0  7 01 12 15 21 23 25 31
   1905576.48248   1484863.83246         0.00041  20819938.74646  20819936.78848
   2826279.95707   2202294.58906  25144414.64807  25144416.23206         0.00001
  -3617049.90748  -2818480.51945         0.00041  22496784.43145  22496780.74548
    351048.71748    273544.16646         0.00041  21494636.76346  21494634.45648
        -0.83557         0.15854         0.00051  24417830.83254  24417826.76157
  -1471311.80448  -1146476.67946         0.00041  22132977.33046  22132975.76948
    501436.35648    390729.89844         0.00041  23363394.05644  23363386.84448
 94 02 12 14 53 30.0000000  0  7 01 12 15 21 23 25 31
   1954913.45148   1523308.21146         0.00041  20829327.29646  20829324.18848
   2904373.66907   2263146.78306  25159275.97207  25159276.40606         0.00001
  -3707305.24648  -2888809.35645         0.00041  22479608.01445  22479606.63248
    395993.53348    308566.06746         0.00041  21503191.23646  21503186.47148
     70798.49647     55168.48844         0.00041  24431299.44044  24431301.45147
  -1555253.70448  -1211885.95746         0.00041  22117002.62046  22117002.31548
    565574.26348    440707.39444         0.00041  23375589.54044  23375592.35048
 94 02 12 14 54 00.0000000  0  6 01 12 15 21 25 31
   2004524.75348   1561966.34946         0.00041  20838768.08646  20838764.49048
   2982873.96007   2324315.82106  25174214.11107  25174214.90606         0.00001
  -3797329.53248  -2958958.17245         0.00041  22462480.18645  22462476.34048
    441126.72648    343734.73346         0.00041  21511778.56246  21511774.36748
  -1638952.03248  -1277105.44346         0.00041  22101077.33746  22101075.01948
    629952.29348    490872.05544         0.00041  23387832.85944  23387842.22648
 94 02 12 14 54 30.0000000  0  6 01 12 15 21 25 31
   2054362.02948   1600800.56646         0.00041  20848251.61146  20848248.97248
   3061755.59907   2385781.98806  25189224.22807  25189226.53006         0.00001
  -3887142.87748  -3028942.62345         0.00041  22445389.15045  22445385.14248
    486431.61348    379037.21446         0.00041  21520399.59146  21520395.85748
  -1722414.33848  -1342141.00746         0.00041  22085194.02246  22085192.36648
    694549.49148    541207.49944         0.00041  23400139.76044  23400136.90348
 94 02 12 14 55 00.0000000  0  6 01 12 15 21 25 31
   2104507.85948   1639875.21446         0.00041  20857794.39546  20857791.85548
   3141119.35507   2447623.79506  25204326.85907  25204329.69206         0.00001
  -3976638.64848  -3098679.63445         0.00041  22428355.26445  22428351.75748
    532020.47648    414560.96746         0.00041  21529074.70446  21529071.88148
  -1805529.51948  -1406906.08346         0.00041  22069378.84446  22069376.51748
    759453.12248    591781.71244         0.00041  23412481.85344  23412488.24748
 94 02 12 14 55 30.0000000  0  6 01 12 15 21 25 31
   2154961.92748   1679190.04446         0.00041  20867394.89946  20867393.07648
   3220985.88907   2509857.44206  25219524.85007  25219527.28406         0.00001
  -4065790.41948  -3168148.58545         0.00041  22411390.98445  22411387.99848
    577920.50748    450327.17746         0.00041  21537808.70746  21537805.98948
  -1888267.04548  -1471376.88446         0.00041  22053634.74846  22053632.20748
    824660.32448    642592.53244         0.00041  23424898.93744  23424894.92548
 94 02 12 14 56 00.0000000  0  6 01 12 15 21 25 31
   2205707.21748   1718731.80646         0.00041  20877052.04546  20877049.71548
   3301351.59707   2572480.09406  25234817.75707  25234819.73706         0.00001
  -4154596.53048  -3237348.14845         0.00041  22394493.82045  22394489.28048
    624120.82248    486327.40146         0.00041  21546600.09946  21546597.49748
  -1970636.41348  -1535560.80546         0.00041  22037959.21146  22037957.29848
    890165.56548    693635.38644         0.00041  23437360.64344  23437360.86648
 94 02 12 14 56 30.0000000  0  6 01 12 15 21 25 31
   2256711.57148   1758475.43746         0.00041  20886757.71846  20886754.89448
   3382168.25307   2635454.07606  25250197.22407  25250198.67006         0.00001
  -4243099.68748  -3306311.66245         0.00041  22377645.91445  22377647.42448
    670567.51748    522519.60146         0.00041  21555437.72546  21555436.75048
  -2052686.26548  -1599495.76046         0.00041  22022346.91646  22022343.77948
    955926.70648    744877.98844         0.00041  23449874.98444  23449874.39148
 94 02 12 14 57 00.0000000  0  6 01 12 15 21 25 31
   2307994.28948   1798435.98046         0.00041  20896516.12146  20896513.69748
   3463440.96207   2698783.45306  25265662.57207  25265664.55106         0.00001
  -4331289.15348  -3375030.73545         0.00041  22360865.61245  22360862.86148
    717264.61648    558906.92446         0.00041  21564324.76646  21564323.80548
  -2134421.79748  -1663185.78546         0.00041  22006792.86646  22006790.06948
   1021948.90847    796323.68844         0.00041  23462443.34544  23462435.30347
 94 02 12 14 57 30.0000000  0  3 01 21 25
   2359249.59548   1838375.14646         0.00041  20906269.36046  20906267.52748
    763897.72348    595244.07145         0.00041  21573180.75545  21573184.08348
  -2216160.14948  -1726878.01546         0.00041  21991237.76946  21991235.84048
 94 02 12 14 58 00.0000000  0  3 01 21 25
   2410860.41448   1878591.34846         0.00041  20916090.71946  20916088.89748
    811542.25248    632369.44344         0.00041  21582126.80144  21582131.47048
  -2297520.14448  -1790275.41246         0.00041  21975756.07646  21975753.47948
 94 02 12 14 58 30.0000000  0  3 01 15 25
   2462219.18448   1918611.15246         0.00041  20925864.88146  20925862.16548
        -1.14158        -0.66155         0.00051  22310639.40555  22310637.67958
  -2379103.12248  -1853846.55446         0.00041  21960231.40346  21960228.85048
 94 02 12 14 59 00.0000000  0  3 01 15 25
   2512273.76048   1957614.69346         0.00041  20935389.01646  20935386.27548
    -89252.16548    -69546.92446         0.00041  22293653.45646  22293652.11648
  -2461945.42248  -1918399.01546         0.00041  21944466.51346  21944464.42648
 94 02 12 14 59 30.0000000  0  4 01 12 15 25
   2563906.61048   1997848.06546         0.00041  20945214.92446  20945212.40848
        -0.03117        -0.92216  25343382.37217  25343386.74916         0.00011
   -176882.44548   -137830.28746         0.00041  22276981.46346  22276979.10648
  -2543152.16448  -1981677.00646         0.00041  21929012.52046  21929011.05448
 94 02 12 15 00 00.0000000  0  5 01 15 21 25 31
   2618353.27548   2040274.00546         0.00041  20955575.57346  20955573.82048
   -261665.89848   -203895.34646         0.00041  22260847.55446  22260844.71448
        -0.44458        -0.19856         0.00051  21617961.92956  21617958.56158
  -2621479.11648  -2042711.02346         0.00041  21914108.72146  21914106.23448
        -0.31057         0.16354         0.00051  23538272.41254  23538274.26257
 94 02 12 15 00 30.0000000  0  5 01 15 21 25 31
   2672548.31148   2082503.86946         0.00041  20965888.20946  20965886.35748
   -346665.85748   -270129.10246         0.00041  22244671.15946  22244669.06348
     49248.34648     38375.44946         0.00041  21627332.59146  21627329.68348
  -2699998.78148  -2103895.16746         0.00041  21899166.99246  21899164.09448
     68811.04547     53619.26644         0.00041  23551379.11344  23551368.93847
 94 02 12 15 01 00.0000000  0  6 01 12 15 21 25 31
   2726682.43848   2124686.27746         0.00041  20976190.16046  20976187.28948
        -0.46817        -0.54116  25392118.13317  25392122.96716         0.00011
   -431677.16548   -336371.70845         0.00041  22228493.53645  22228493.20648
     98393.83548     76670.60846         0.00041  21636685.48946  21636682.42848
  -2778511.12948  -2165073.62046         0.00041  21884226.30446  21884224.40648
    137561.57847    107191.06144         0.00041  23564450.33744  23564453.62347
 94 02 12 15 01 30.0000000  0  5 01 15 21 25 31
   2781003.29948   2167014.19646         0.00041  20986526.72446  20986524.37548
   -516449.83648   -402428.34246         0.00041  22212365.94446  22212363.61448
    147690.63448    115083.62046         0.00041  21646068.25046  21646064.15248
  -2856762.85148  -2226048.99946         0.00041  21869335.70446  21869334.03648
    206492.48147    160903.31244         0.00041  23577564.48544  23577570.95547
 94 02 12 15 02 00.0000000  0  5 01 15 21 25 31
   2835311.73848   2209332.43446         0.00041  20996861.13346  20996858.79848
   -601172.86448   -468446.30046         0.00041  22196243.31746  22196241.42048
    196948.13248    153466.06446         0.00041  21655440.33246  21655438.31748
  -2934953.44148  -2286976.72846         0.00041  21854456.94346  21854454.40948
    275389.77647    214589.69744         0.00041  23590680.80744  23590681.30547
 94 02 12 15 02 30.0000000  0  5 01 15 21 25 31
   2889823.36148   2251808.99046         0.00041  21007234.30346  21007232.02148
   -685622.54248   -534251.27246         0.00041  22180175.14146  22180171.12348
    246395.71548    191996.60246         0.00041  21664850.94646  21664847.38848
  -3012864.01948  -2347686.26946         0.00041  21839630.28246  21839627.96948
    344466.19247    268415.56244         0.00041  23603824.64344  23603825.16747
 94 02 12 15 03 00.0000000  0  5 01 15 21 25 31
   2944546.97948   2294450.74346         0.00041  21017648.33546  21017646.29048
   -769788.56848   -599835.20846         0.00041  22164157.75646  22164155.16548
    296050.52448    230688.61746         0.00041  21674297.82746  21674295.47148
  -3090481.18148  -2408167.15646         0.00041  21824859.25946  21824857.83048
    413713.97747    322374.55744         0.00041  23617000.12344  23617003.67647
 94 02 12 15 03 30.0000000  0  5 01 15 21 25 31
   2999505.02648   2337275.15746         0.00041  21028106.33746  21028103.89048
   -853650.37048   -665182.11446         0.00041  22148199.03046  22148195.52048
    345919.76748    269547.71046         0.00041  21683788.54946  21683784.54948
  -3167787.41548  -2468405.78646         0.00041  21810149.04146  21810147.28648
    483124.17947    376460.44344         0.00041  23630209.99744  23630211.26247
 94 02 12 15 04 00.0000000  0  5 01 15 21 25 31
   3054691.48948   2380277.56246         0.00041  21038607.95646  21038606.00548
   -937207.36948   -730291.48046         0.00041  22132298.52346  22132295.86348
    395987.12948    308561.19446         0.00041  21693316.04046  21693312.07648
  -3244796.50348  -2528412.89446         0.00041  21795495.08446  21795492.59548
    552699.23547    430674.83544         0.00041  23643457.25444  23643450.48647
 94 02 12 15 04 30.0000000  0  6 01 15 21 23 25 31
   3110118.12548   2423467.12046         0.00041  21049155.57046  21049153.61448
  -1020436.86748   -795145.63946         0.00041  22116457.94346  22116456.07748
    446265.82648    347739.36746         0.00041  21702884.65246  21702881.56948
        -0.62157        -0.40654         0.00051  24732413.76554  24732407.93057
  -3321479.27848  -2588165.72446         0.00041  21780902.91246  21780900.42748
    622463.08347    485036.20444         0.00041  23656727.02044  23656726.61347
 94 02 12 15 05 00.0000000  0  5 01 15 21 25 31
   3165753.17148   2466819.07646         0.00041  21059742.76446  21059739.78548
  -1103357.45448   -859759.07946         0.00041  22100678.73446  22100676.34748
    496721.50848    387055.43646         0.00041  21712485.74146  21712482.89248
  -3397853.09748  -2647677.79346         0.00041  21766368.92946  21766367.06448
    692389.10247    539523.92444         0.00041  23670038.51744  23670033.54347
 94 02 12 15 05 30.0000000  0  5 01 15 21 25 31
   3221595.41848   2510332.48746         0.00041  21070369.58046  21070366.32448
  -1185964.26248   -924128.04046         0.00041  22084960.58846  22084956.72648
    547345.63748    426502.75746         0.00041  21722119.29746  21722116.26648
  -3473908.32348  -2706941.61046         0.00041  21751895.66246  21751894.22148
    762487.91547    594146.53344         0.00041  23683379.67044  23683372.52447
 94 02 12 15 07 00.0000000  0  2 15 25
        -0.64858        -0.01856         0.00051  22038210.97456  22038207.53958
        -0.49258        -0.42956         0.00051  21708906.79556  21708904.09558
 94 02 12 15 07 30.0000000  0  5 01 15 21 23 25
        -0.25258         0.19756         0.00051  21113377.01056  21113373.91458
    -80919.72348    -63053.86746         0.00041  22022812.55746  22022808.54348
        -1.21758        -0.22856         0.00051  21761129.91256  21761127.95658
        -0.62257        -0.38654         0.00051  24816267.88654  24816257.39457
    -74295.98248    -57893.02246         0.00041  21694768.96546  21694766.03148
 94 02 12 15 08 00.0000000  0  5 01 15 21 23 25
     57257.72948     44616.78546         0.00041  21124272.41146  21124269.52148
   -161507.55748   -125849.62646         0.00041  22007475.68646  22007474.44448
     52002.63048     40522.21146         0.00041  21771025.76046  21771023.75548
     73898.42747     57583.61644         0.00041  24830319.87444  24830320.25247
   -148252.59648   -115521.54446         0.00041  21680695.20946  21680693.46948
 94 02 12 15 08 30.0000000  0  5 01 15 21 23 25
    114733.84448     89403.33946         0.00041  21135210.62646  21135207.50948
   -241765.30648   -188388.13046         0.00041  21992202.00446  21992201.76548
    104217.01548     81208.72146         0.00041  21780960.72846  21780958.61048
    147861.12247    115216.85044         0.00041  24844393.03444  24844395.56047
   -221871.28048   -172886.75646         0.00041  21666685.81446  21666683.83348
 94 02 12 15 09 00.0000000  0  5 01 15 21 23 25
    172235.88648    134210.10346         0.00041  21146152.52146  21146150.46848
   -321881.95648   -250816.70946         0.00041  21976957.91546  21976956.19948
    156441.66448    121903.19246         0.00041  21790899.03946  21790897.23948
    221698.76647    172752.43344         0.00041  24858448.37644  24858446.49247
   -295351.63748   -230144.19446         0.00041  21652702.13446  21652700.94448
 94 02 12 15 09 30.0000000  0  4 01 15 21 25
    229850.69148    179104.73546         0.00041  21157116.34546  21157114.08348
   -401765.29148   -313063.49446         0.00041  21961754.79146  21961754.94048
    208758.00448    162669.13446         0.00041  21800855.31146  21800852.52548
   -368590.31048   -287213.32346         0.00041  21638766.35946  21638764.01348
 94 02 12 15 10 00.0000000  0  4 01 15 21 25
    287810.45948    224268.15546         0.00041  21168145.86946  21168142.69748
   -481180.91748   -374945.82046         0.00041  21946644.15246  21946643.82448
    261405.76548    203693.33746         0.00041  21810873.70646  21810870.22448
   -441344.65848   -343905.04146         0.00041  21624921.71346  21624919.34448
 94 02 12 15 10 30.0000000  0  4 01 15 21 25
    345993.96248    269605.91946         0.00041  21179217.74046  21179214.29248
   -560227.20748   -436540.33646         0.00041  21931604.20946  21931600.99248
    314285.63748    244898.37746         0.00041  21820936.41746  21820932.87048
   -513708.10748   -400292.15446         0.00041  21611150.46246  21611148.78248
 94 02 12 15 11 00.0000000  0  4 01 15 21 25
    404461.95448    315165.36846         0.00041  21190343.66846  21190340.41448
   -638811.46248   -497774.87646         0.00041  21916650.31546  21916648.11448
    367480.68348    286348.99646         0.00041  21831059.48146  21831056.71648
   -585596.21648   -456308.87246         0.00041  21597471.31946  21597469.62148
 94 02 12 15 11 30.0000000  0  4 01 15 21 25
    463155.56448    360900.63146         0.00041  21201512.53646  21201509.36948
   -716981.38748   -558686.54146         0.00041  21901773.98646  21901772.65448
    420939.77448    328005.39746         0.00041  21841233.79146  21841230.09748
   -657068.67948   -512001.70246         0.00041  21583870.35146  21583868.20248
 94 02 12 15 12 00.0000000  0  4 01 15 21 25
    522067.68348    406806.15046         0.00041  21212722.80446  21212720.69348
   -794740.92348   -619278.38446         0.00041  21886975.80046  21886974.62748
    474660.35248    369865.54046         0.00041  21851455.09546  21851453.31248
   -728141.38448   -567383.03646         0.00041  21570346.22046  21570343.55848
 94 02 12 15 12 30.0000000  0  4 01 15 21 25
    581183.33648    452870.25446         0.00041  21223972.30146  21223970.59448
   -872111.08448   -679566.83046         0.00041  21872253.77846  21872250.42048
    528596.98448    411894.05046         0.00041  21861719.54246  21861715.61548
   -798843.42748   -622475.55646         0.00041  21556891.63446  21556888.92848
 94 02 12 15 13 00.0000000  0  4 01 15 21 25
    640544.57348    499125.73946         0.00041  21235269.47546  21235266.60048
   -949069.99248   -739534.84046         0.00041  21857609.33146  21857605.50048
    582768.62548    454105.65446         0.00041  21872028.88646  21872023.41848
   -869146.47248   -677257.15346         0.00041  21543514.25446  21543510.95348
 94 02 12 15 13 30.0000000  0  4 01 15 21 25
    700201.60148    545611.70646         0.00041  21246620.57346  21246618.76548
  -1025599.80548   -799168.47346         0.00041  21843047.73546  21843043.30148
    637200.46648    496520.01046         0.00041  21882385.39046  21882381.34848
   -939022.19948   -731705.76646         0.00041  21530217.09946  21530214.02548
 94 02 12 15 14 00.0000000  0  4 01 15 21 25
    760172.18948    592341.99346         0.00041  21258033.05946  21258031.09048
  -1101680.71348   -858452.33446         0.00041  21828569.65246  21828565.14448
    691923.59648    539161.36846         0.00041  21892798.65346  21892795.46748
  -1008424.80048   -785785.70646         0.00041  21517009.67246  21517007.07348
 94 02 12 15 14 30.0000000  0  4 01 15 21 25
    820325.47748    639214.64046         0.00041  21269479.93946  21269477.27348
  -1177427.03848   -917475.45546         0.00041  21814154.75946  21814152.31948
    746826.92248    581943.11646         0.00041  21903245.28046  21903243.15748
  -1077469.95348   -839587.12546         0.00041  21503870.69546  21503868.25248
 94 02 12 15 15 00.0000000  0  5 01 15 21 23 25
    880819.80348    686353.04546         0.00041  21280992.25346  21280988.12448
  -1252660.21448   -976098.73646         0.00041  21799839.40646  21799835.53748
    802101.95648    625014.47545         0.00041  21913765.48045  21913762.16648
        -0.17357         0.18054         0.00051  25028850.54654  25028844.55757
  -1145981.90148   -892973.07946         0.00041  21490833.81246  21490831.40948
 94 02 12 15 15 30.0000000  0  4 01 15 21 25
    941536.01248    733664.34546         0.00041  21292546.68946  21292543.71548
  -1327473.03948  -1034394.46846         0.00041  21785603.33446  21785599.99848
    857648.53348    668297.47045         0.00041  21924333.71945  21924331.64648
  -1214056.75348   -946018.43246         0.00041  21477879.39446  21477877.31848
 94 02 12 15 16 00.0000000  0  4 01 15 21 25
   1002199.09148    780934.24046         0.00041  21304090.52246  21304087.75448
  -1402111.33948  -1092554.23746         0.00041  21771399.34746  21771395.73348
    913206.98448    711589.71145         0.00041  21934904.88445  21934903.96848
  -1281945.23448   -998918.56246         0.00041  21464959.74546  21464958.48248
 94 02 12 15 16 30.0000000  0  4 01 15 21 25
   1063071.20048    828367.00446         0.00041  21315674.10646  21315671.11748
  -1476314.24948  -1150374.71546         0.00041  21757279.66046  21757275.91148
    969017.75948    755078.55945         0.00041  21945528.90545  21945525.26048
  -1349400.84948  -1051481.39046         0.00041  21452123.46646  21452121.75348
 94 02 12 15 17 00.0000000  0  4 01 15 21 25
   1124266.90048    876051.92646         0.00041  21327318.32346  21327316.82848
  -1549964.92748  -1207764.86946         0.00041  21743263.69146  21743261.49548
   1025202.08648    798858.53046         0.00041  21956217.75546  21956217.52648
  -1416296.69348  -1103608.04346         0.00041  21439394.15346  21439392.22548
 94 02 12 15 17 30.0000000  0  4 01 15 21 25
   1185718.98048    923936.62546         0.00041  21339012.99746  21339010.42048
  -1623137.13948  -1264782.18646         0.00041  21729339.11146  21729337.46948
   1081690.18848    842875.14845         0.00041  21966969.02245  21966966.62748
  -1482708.04848  -1155357.16446         0.00041  21426755.97346  21426754.52748
 94 02 12 15 18 00.0000000  0  4 01 15 21 25
   1247226.47748    971864.50546         0.00041  21350716.57146  21350713.84948
  -1696033.57548  -1321584.63946         0.00041  21715468.94046  21715466.77548
   1138288.90048    886977.95845         0.00041  21977741.03645  21977736.96048
  -1548846.59348  -1206893.71546         0.00041  21414171.12046  21414169.01048
 94 02 12 15 18 30.0000000  0  4 01 15 21 25
   1309095.26848   1020073.91746         0.00041  21362490.51846  21362487.44148
  -1768351.77148  -1377936.52146         0.00041  21701706.54546  21701703.79248
   1195310.14048    931410.02045         0.00041  21988589.06145  21988588.25448
  -1614413.24748  -1257984.64846         0.00041  21401693.91946  21401691.68348
 94 02 12 15 19 00.0000000  0  4 01 15 21 25
   1371141.95048   1068421.94546         0.00041  21374297.57146  21374294.81548
  -1840273.59848  -1433979.52246         0.00041  21688019.50546  21688017.42148
   1252581.64448    976037.12045         0.00041  21999486.40245  21999485.48348
  -1679590.79248  -1308772.35746         0.00041  21389290.68246  21389289.00748
 94 02 12 15 19 30.0000000  0  4 01 15 21 25
   1433296.00548   1116853.64446         0.00041  21386125.41846  21386122.41648
  -1911867.18148  -1489766.75846         0.00041  21674395.15946  21674392.85648
   1310013.64448   1020789.26146         0.00041  22010419.97246  22010415.39448
  -1744449.80548  -1359311.86746         0.00041  21376949.01446  21376946.69648
 94 02 12 15 20 00.0000000  0  4 01 15 21 25
   1495676.66748   1165461.91246         0.00041  21397995.38046  21397993.07448
  -1983001.37748  -1545196.04046         0.00041  21660859.26446  21660857.18748
   1367715.00848   1065751.29145         0.00041  22021398.98745  22021396.52548
  -1808855.63548  -1409498.24146         0.00041  21364692.71346  21364690.74448
 94 02 12 15 20 30.0000000  0  4 01 15 21 25
   1558219.21948   1214196.34346         0.00041  21409897.62346  21409894.39048
  -2053740.73248  -1600317.64146         0.00041  21647398.10346  21647394.73648
   1425611.83348   1110865.63245         0.00041  22032417.35145  22032413.28548
  -1872872.76448  -1459381.72446         0.00041  21352511.30346  21352508.38948
 94 02 12 15 21 00.0000000  0  4 01 15 21 25
   1620901.03248   1263039.29246         0.00041  21421825.14346  21421821.85948
  -2124094.34648  -1655138.66446         0.00041  21634010.21646  21634005.53148
   1483681.52148   1156114.67645         0.00041  22043467.45345  22043464.01048
  -1936509.04548  -1508968.44746         0.00041  21340401.24146  21340399.06548
 94 02 12 15 21 30.0000000  0  4 01 15 21 25
   1683843.82648   1312085.59446         0.00041  21433802.86346  21433800.47848
  -2193932.96248  -1709558.37746         0.00041  21620720.63846  21620716.26348
   1542038.61848   1201587.67245         0.00041  22054572.23445  22054568.79448
  -1999633.86248  -1558156.63246         0.00041  21328389.81846  21328386.78448
 94 02 12 15 22 00.0000000  0  4 01 15 21 25
   1746879.60148   1361204.34946         0.00041  21445798.41646  21445796.30248
  -2263441.21348  -1763720.68146         0.00041  21607491.22146  21607488.42148
   1600509.18648   1247149.10545         0.00041  22065696.00345  22065694.20548
  -2062442.19548  -1607098.18246         0.00041  21316436.83646  21316435.05248
 94 02 12 15 22 30.0000000  0  4 01 15 21 25
   1810358.83448   1410668.65546         0.00041  21457877.92646  21457875.08148
  -2332277.55048  -1817359.40646         0.00041  21594392.83646  21594388.32148
   1659445.33248   1293073.29645         0.00041  22076913.42745  22076910.40548
  -2124589.53248  -1655524.67546         0.00041  21304611.00746  21304608.24248
 94 02 12 15 23 00.0000000  0  4 01 15 21 25
   1874068.17648   1460312.28246         0.00041  21470001.47746  21469998.65348
  -2400650.37348  -1870636.94546         0.00041  21581383.39146  21581377.71148
   1718622.42048   1339185.24045         0.00041  22088175.21045  22088171.17348
  -2186273.98748  -1703590.49046         0.00041  21292872.75846  21292870.55548
 94 02 12 15 23 30.0000000  0  4 01 15 21 25
   1937925.07748   1510070.87246         0.00041  21482152.58946  21482150.59748
  -2468650.16348  -1923623.83146         0.00041  21568443.12746  21568439.32448
   1777954.91348   1385418.28445         0.00041  22099464.93745  22099460.37648
  -2247591.40548  -1751370.31446         0.00041  21281204.02046  21281202.26948
 94 02 12 15 24 00.0000000  0  4 01 15 21 25
   2002002.83648   1560001.55546         0.00041  21494346.84846  21494343.93248
  -2536181.08248  -1976245.35246         0.00041  21555591.62946  21555588.11248
   1837546.16348   1431852.93945         0.00041  22110807.07345  22110799.99548
  -2308441.55148  -1798786.02346         0.00041  21269624.36546  21269622.60648
 94 02 12 15 24 30.0000000  0  4 01 15 21 25
   2066331.22148   1610127.53846         0.00041  21506587.65946  21506585.26448
  -2603171.20448  -2028445.45546         0.00041  21542842.70346  21542841.09148
   1897456.03048   1478535.84145         0.00041  22122204.28545  22122200.23548
  -2368740.03448  -1845771.85146         0.00041  21258150.64646  21258148.03048
 94 02 12 15 25 00.0000000  0  5 01 14 15 21 25
   2130886.90948   1660430.64246         0.00041  21518871.18446  21518869.06348
        -0.33557         0.33654         0.00051  24700215.45554  24700218.93457
  -2669625.10848  -2080227.73446         0.00041  21530200.41146  21530196.45448
   1957685.51248   1525467.81845         0.00041  22133668.63045  22133664.76348
  -2428496.65848  -1892335.46546         0.00041  21246779.27446  21246776.41448
 94 02 12 15 25 30.0000000  0  5 01 14 15 21 25
   2195692.98248   1710928.83246         0.00041  21531204.08946  21531200.71648
    -82434.81747    -64234.63044         0.00041  24684523.53144  24684532.46247
  -2735506.76648  -2131564.12846         0.00041  21517662.87346  21517659.33448
   2018297.26248   1572697.65546         0.00041  22145198.59546  22145198.76948
  -2487681.01748  -1938453.16246         0.00041  21235516.59346  21235514.28948
 94 02 12 15 26 00.0000000  0  5 01 14 15 21 25
   2260617.27948   1761519.16246         0.00041  21543559.30046  21543555.85848
   -164926.53847   -128513.68244         0.00041  24668835.26444  24668834.64047
  -2800941.94848  -2182552.62446         0.00041  21505211.84046  21505208.01348
   2079163.85248   1620126.11345         0.00041  22156784.19045  22156781.52148
  -2546411.19448  -1984216.95546         0.00041  21224341.27746  21224338.62948
 94 02 12 15 26 30.0000000  0  5 01 14 15 21 25
   2325649.25848   1812193.39246         0.00041  21555935.79846  21555931.65848
   -247508.06547   -192863.07444         0.00041  24653116.51444  24653117.72547
  -2865971.97748  -2233225.37746         0.00041  21492834.91646  21492833.76248
   2140237.91148   1667716.19045         0.00041  22168405.09745  22168402.43848
  -2604735.04948  -2029664.11946         0.00041  21213242.04346  21213239.75148
 94 02 12 15 27 00.0000000  0  5 01 14 15 21 25
   2390843.41748   1862993.99746         0.00041  21568341.02846  21568338.01748
   -330130.85047   -257244.51744         0.00041  24637391.59244  24637393.77147
  -2930554.73948  -2283549.63046         0.00041  21480545.22146  21480542.84248
   2201567.30448   1715505.24245         0.00041  22180075.57445  22180073.02348
  -2662616.88748  -2074766.85246         0.00041  21202227.62746  21202225.79248
 94 02 12 15 27 30.0000000  0  3 01 15 25
   2455935.57448   1913714.79946         0.00041  21580698.39846  21580699.68548
  -2995031.37248  -2333791.18046         0.00041  21468277.15446  21468274.56548
  -2720389.69648  -2119784.64946         0.00041  21191233.44746  21191231.78448
 94 02 12 15 28 00.0000000  0  3 01 15 25
   2521917.52448   1965128.87744         0.00041  21593125.34644  21593125.02748
  -3059014.44048  -2383648.13046         0.00041  21456101.15446  21456097.91548
  -2777667.72148  -2164416.88046         0.00041  21180334.23046  21180332.10348
 94 02 12 15 28 30.0000000  0  2 15 25
  -3122474.65848  -2433097.68146         0.00041  21444025.67946  21444022.28448
  -2834422.13948  -2208641.11046         0.00041  21169534.62546  21169531.45848
 94 02 12 15 29 00.0000000  0  2 15 25
  -3185249.92448  -2482013.49046         0.00041  21432081.44646  21432077.34448
  -2890489.62348  -2252330.04946         0.00041  21158865.56746  21158862.85348
 94 02 12 15 29 30.0000000  0  3 15 21 25
  -3247369.25848  -2530418.19346         0.00041  21420258.35746  21420256.20048
        -0.36958        -0.30855         0.00051  22238913.50955  22238909.72958
  -2945901.99348  -2295508.52446         0.00041  21148320.38146  21148318.20948
 94 02 12 15 30 00.0000000  0  3 15 21 25
  -3309013.04248  -2578452.31446         0.00041  21408527.15946  21408524.91848
     62819.63548     48950.25445         0.00041  22250867.43545  22250865.05948
  -3000848.94248  -2338324.33646         0.00041  21137864.22946  21137862.18148
 94 02 12 15 30 30.0000000  0  3 15 21 25
  -3370227.87848  -2626152.20646         0.00041  21396879.17246  21396875.16848
    125837.15148     98054.71545         0.00041  22262860.73645  22262856.77448
  -3055380.76548  -2380816.67346         0.00041  21127487.23846  21127485.02148
 94 02 12 15 31 00.0000000  0  3 15 21 25
  -3430935.18548  -2673456.64346         0.00041  21385327.54046  21385324.37448
    189120.48748    147366.29545         0.00041  22274903.23345  22274897.36048
  -3109428.03448  -2422931.42846         0.00041  21117202.59146  21117200.14148
 94 02 12 15 32 00.0000000  0  1 21
        -0.16858         0.44455         0.00051  22299189.48955  22299186.13558
 94 02 12 15 32 30.0000000  0  1 21
     63966.74148     49844.69645         0.00041  22311362.90245  22311358.32648
 94 02 12 15 33 00.0000000  0  2 14 21
        -0.31857         0.55454         0.00051  24448037.72154  24448030.45657
    128247.96648     99933.86745         0.00041  22323596.47345  22323591.66148
 94 02 12 15 33 30.0000000  0  2 14 21
    -83076.03648    -64733.99444         0.00041  24432224.87044  24432222.02648
    192788.79348    150225.35345         0.00041  22335876.76445  22335874.93548
 94 02 12 15 34 00.0000000  0  2 14 21
   -166238.10548   -129535.51944         0.00041  24416399.24244  24416399.03048
    257534.06048    200676.14545         0.00041  22348196.36245  22348195.23948
 94 02 12 15 34 30.0000000  0  2 14 21
   -249431.82148   -194361.85744         0.00041  24400569.28644  24400567.29648
    322528.62048    251321.13845         0.00041  22360568.15345  22360561.60948
 94 02 12 15 35 00.0000000  0  2 14 21
   -332681.23848   -259231.59444         0.00041  24384737.53644  24384724.57448
    387748.67148    302141.88945         0.00041  22372977.85345  22372973.42548
 94 02 12 15 35 30.0000000  0  2 14 21
   -415949.48347   -324115.94444         0.00041  24368880.27144  24368875.54847
    453231.56548    353167.42645         0.00041  22385440.11245  22385433.78248
 94 02 12 15 36 00.0000000  0  2 14 21
   -499298.27648   -389063.17844         0.00041  24353025.76744  24353015.64848
    518907.04248    404343.05445         0.00041  22397934.40145  22397930.75848
 94 02 12 15 36 30.0000000  0  2 14 21
   -582657.88048   -454018.73444         0.00041  24337161.88544  24337155.63648
    584829.28048    455710.91845         0.00041  22410479.41145  22410474.66548
 94 02 12 15 37 00.0000000  0  2 14 21
   -666027.02548   -518981.67744         0.00041  24321295.78444  24321292.43748
    651008.73748    507279.23644         0.00041  22423072.38144  22423070.23248
 94 02 12 15 37 30.0000000  0  3 14 20 21
   -749305.37348   -583873.88844         0.00041  24305447.22944  24305445.21448
        -0.98858        -0.54854         0.00051  25004265.98554  25004270.25258
    717554.03048    559132.65145         0.00041  22435738.27745  22435734.09848
 94 02 12 15 38 00.0000000  0  3 14 20 21
   -832616.08348   -648791.34944         0.00041  24289593.49444  24289591.65748
    -41537.01148    -32366.24544         0.00041  24996364.84644  24996367.42648
    784353.17048    611183.83145         0.00041  22448447.91645  22448442.37848
 94 02 12 15 38 30.0000000  0  3 14 20 21
   -915958.24448   -713733.33344         0.00041  24273732.12544  24273732.02048
    -82714.72648    -64453.53644         0.00041  24988531.76044  24988530.37848
    851427.72248    663449.64345         0.00041  22461211.52045  22461208.14048
 94 02 12 15 39 00.0000000  0  3 14 20 21
   -999367.24948   -778727.35044         0.00041  24257858.98344  24257861.55048
   -123562.05248    -96282.79644         0.00041  24980751.68844  24980755.33548
    918763.58748    715919.04345         0.00041  22474025.48945  22474023.15448
 94 02 12 15 39 30.0000000  0  3 14 20 21
  -1082806.10848   -843744.66644         0.00041  24241980.90544  24241983.36548
   -164044.98447   -127827.86044         0.00041  24973047.34444  24973048.84747
    986383.76348    768609.98545         0.00041  22486893.57045  22486889.49248
 94 02 12 15 40 00.0000000  0  3 14 20 21
  -1166287.26048   -908794.93244         0.00041  24226099.50244  24226097.89048
   -204195.57247   -159114.06844         0.00041  24965404.80144  24965408.49747
   1054247.61948    821490.86145         0.00041  22499806.70245  22499800.32348
 94 02 12 15 40 30.0000000  0  3 14 20 21
  -1249801.17548   -973870.72545         0.00041  24210204.58345  24210204.22948
   -243996.59948   -190127.61744         0.00041  24957840.90044  24957837.68948
   1122359.75648    874565.13345         0.00041  22512769.34145  22512764.43548
 94 02 12 15 41 00.0000000  0  3 14 20 21
  -1333377.63548  -1038995.25445         0.00041  24194303.31145  24194298.83248
   -283472.99148   -220888.44244         0.00041  24950327.60944  24950324.78848
   1190676.70348    927799.07045         0.00041  22525769.37945  22525764.79248
 94 02 12 15 41 30.0000000  0  3 14 20 21
  -1416938.75448  -1104107.82344         0.00041  24178402.59744  24178397.12948
   -322541.50948   -251331.21644         0.00041  24942896.76544  24942889.60548
   1259262.59448    981242.52145         0.00041  22538822.06745  22538816.47248
 94 02 12 15 42 00.0000000  0  3 14 20 21
  -1500572.32648  -1169276.88145         0.00041  24162484.47145  24162482.66148
   -361283.93348   -281520.04644         0.00041  24935520.24244  24935516.10448
   1328040.24448   1034835.38245         0.00041  22551911.03345  22551904.47748
 94 02 12 15 42 30.0000000  0  3 14 20 21
  -1584231.83548  -1234466.09844         0.00041  24146568.36144  24146563.75748
   -399637.60248   -311406.02244         0.00041  24928224.11544  24928217.74148
   1397068.45348   1088623.55044         0.00041  22565044.15244  22565039.86048
 94 02 12 15 43 00.0000000  0  3 14 20 21
  -1667969.15348  -1299715.99944         0.00041  24130633.92044  24130628.20648
   -437672.88848   -341043.87744         0.00041  24920981.22644  24920983.53048
   1466275.09948   1142550.72345         0.00041  22578216.55645  22578209.54348
 94 02 12 15 43 30.0000000  0  3 14 20 21
  -1751708.81948  -1364967.71944         0.00041  24114702.17144  24114693.44848
   -475319.03148   -370378.49444         0.00041  24913819.97444  24913819.58948
   1535743.04848   1196681.52745         0.00041  22591434.27345  22591430.40248
 94 02 12 15 44 00.0000000  0  3 14 20 21
  -1835453.79647  -1430223.58944         0.00041  24098759.05644  24098753.44747
   -512591.93648   -399422.31444         0.00041  24906727.33644  24906727.22148
   1605459.52748   1251005.94445         0.00041  22604703.02745  22604696.50048
 94 02 12 15 44 30.0000000  0  3 14 20 21
  -1919178.59048  -1495463.66644         0.00041  24082827.96044  24082822.67548
   -549472.09548   -428160.00344         0.00041  24899708.57744  24899708.46548
   1675437.29248   1305534.01945         0.00041  22618019.16445  22618012.90348
 94 02 12 15 45 00.0000000  0  3 14 20 21
  -2002916.71348  -1560714.17644         0.00041  24066898.91644  24066890.70048
   -585989.74347   -456615.33244         0.00041  24892756.70744  24892757.45247
   1745653.13448   1360247.59345         0.00041  22631380.37745  22631376.60648
 94 02 12 15 45 30.0000000  0  3 14 20 21
  -2086653.62048  -1625963.75844         0.00041  24050957.68844  24050955.75848
   -622102.09548   -484754.63844         0.00041  24885888.65944  24885888.42948
   1816139.92748   1415172.32145         0.00041  22644791.20745  22644788.79848
 94 02 12 15 46 00.0000000  0  3 14 20 21
  -2170467.29548  -1691273.18744         0.00041  24035013.45744  24035007.85248
   -657871.56648   -512626.90644         0.00041  24879082.04644  24879080.64448
   1886810.99048   1470240.66445         0.00041  22658238.62445  22658235.93348
 94 02 12 15 46 30.0000000  0  3 14 20 21
  -2254333.79748  -1756623.70144         0.00041  24019049.29144  24019046.77648
   -693246.09348   -540191.35244         0.00041  24872356.91944  24872348.54248
   1957724.28048   1525497.61645         0.00041  22671736.42845  22671730.23448
 94 02 12 15 47 00.0000000  0  3 14 20 21
  -2338278.54348  -1822035.21044         0.00041  24003071.67844  24003073.97948
   -728241.03948   -567460.23344         0.00041  24865694.62144  24865688.56648
   2028866.75448   1580933.19745         0.00041  22685274.26545  22685268.29248
 94 02 12 15 47 30.0000000  0  3 14 20 21
  -2422247.07448  -1887465.26344         0.00041  23987097.70444  23987098.19948
   -762813.36348   -594399.56544         0.00041  24859109.35644  24859110.20748
   2100274.25648   1636575.39045         0.00041  22698860.16245  22698855.56848
 94 02 12 15 48 00.0000000  0  3 14 20 21
  -2506278.81748  -1952944.55144         0.00041  23971110.81144  23971108.15348
   -797015.31848   -621050.37444         0.00041  24852605.66244  24852599.37248
   2171901.02848   1692388.37644         0.00041  22712492.88144  22712485.35748
 94 02 12 15 48 30.0000000  0  3 14 20 21
  -2590297.75448  -2018413.84844         0.00041  23955119.53844  23955118.27648
   -830791.37747   -647369.32444         0.00041  24846176.18144  24846169.64747
   2243818.38148   1748427.75444         0.00041  22726178.78144  22726171.85248
 94 02 12 15 49 00.0000000  0  3 14 20 21
  -2674371.98048  -2083926.30244         0.00041  23939123.55944  23939117.53148
   -864231.27947   -673426.34244         0.00041  24839817.40744  24839809.68747
   2315930.11748   1804618.67645         0.00041  22739900.04645  22739896.35148
 94 02 12 15 49 30.0000000  0  3 14 20 21
  -2758390.78848  -2149395.52144         0.00041  23923134.47844  23923127.91548
   -897228.52947   -699138.36044         0.00041  24833537.29044  24833530.75947
   2388337.87848   1861040.19244         0.00041  22753679.90944  22753674.18548
 94 02 12 15 50 00.0000000  0  3 14 20 21
  -2842422.60648  -2214874.94044         0.00041  23907138.37944  23907138.88848
   -929852.58748   -724559.75344         0.00041  24827321.96444  24827323.62248
   2460973.19848   1917639.06344         0.00041  22767505.02444  22767494.08148
 94 02 12 15 50 30.0000000  0  3 14 20 21
  -2926421.49148  -2280328.62444         0.00041  23891157.85044  23891154.15048
   -962053.89348   -749651.51344         0.00041  24821198.11644  24821195.70748
   2533885.14148   1974453.50144         0.00041  22781378.50744  22781367.41448
 94 02 12 15 51 00.0000000  0  3 14 20 21
  -3010446.55748  -2345802.70044         0.00041  23875171.20744  23875164.89448
   -993878.44447   -774449.96844         0.00041  24815143.62144  24815138.32147
   2607008.53748   2031432.55744         0.00041  22795293.48244  22795283.51648
 94 02 12 15 51 30.0000000  0  2 14 21
  -3094440.66948  -2411252.68944         0.00041  23859181.13044  23859180.46148
   2680404.19248   2088623.90044         0.00041  22809258.15744  22809249.02348
 94 02 12 15 52 00.0000000  0  2 14 21
  -3178551.68548  -2476793.78044         0.00041  23843172.35944  23843173.79548
   2753939.31448   2145923.80944         0.00041  22823249.21544  22823245.85648
 94 02 12 15 52 30.0000000  0  2 14 21
  -3262695.67948  -2542360.54744         0.00041  23827166.54944  23827163.39148
   2827707.44748   2203405.49444         0.00041  22837284.58044  22837285.56848
 94 02 12 15 53 00.0000000  0  2 14 21
  -3346896.03048  -2607971.27144         0.00041  23811142.64444  23811140.44748
   2901677.94348   2261044.79944         0.00041  22851363.32844  22851361.48448
 94 02 12 15 53 30.0000000  0  2 14 21
  -3431054.04548  -2673548.93844         0.00041  23795125.72744  23795125.52848
   2975971.84047   2318935.86744         0.00041  22865490.69244  22865491.61347
 94 02 12 15 54 00.0000000  0  2 14 21
  -3515233.82248  -2739143.60844         0.00041  23779112.48044  23779107.02948
   3050521.94147   2377026.91244         0.00041  22879685.68844  22879680.15847
 94 02 12 15 54 30.0000000  0  3 14 20 21
  -3599355.80648  -2804693.23344         0.00041  23763100.10844  23763100.72048
        -0.35758         0.05154         0.00051  24774883.77354  24774890.27958
   3125381.03048   2435358.56844         0.00041  22893935.66044  22893928.75848
 94 02 12 15 55 00.0000000  0  2 14 21
  -3683512.91748  -2870270.22344         0.00041  23747088.80544  23747087.07648
   3200444.13348   2493849.21444         0.00041  22908217.67044  22908212.20048
 94 02 12 15 55 30.0000000  0  2 14 21
  -3767717.55948  -2935884.25445         0.00041  23731065.64845  23731062.23748
   3275687.76448   2552480.56444         0.00041  22922542.11944  22922532.63348
 94 02 12 15 56 00.0000000  0  2 14 21
  -3851912.09848  -3001490.36144         0.00041  23715047.47344  23715040.39848
   3351146.73848   2611279.61044         0.00041  22936894.30444  22936894.11648
 94 02 12 15 56 30.0000000  0  2 14 21
  -3936124.09148  -3067110.05044         0.00041  23699017.59844  23699015.80448
   3426798.73248   2670229.19544         0.00041  22951291.70344  22951290.32948
 94 02 12 15 57 00.0000000  0  2 14 21
  -4020360.16048  -3132748.56044         0.00041  23682990.03244  23682986.76648
   3502652.60648   2729336.04144         0.00041  22965725.57744  22965721.92348
 94 02 12 15 58 30.0000000  0  1 20
        -1.03757        -0.13354         0.00051  24733518.87954  24733511.72557
 94 02 12 15 59 00.0000000  0  1 20
    -25108.54248    -19564.47444         0.00041  24728739.33344  24728738.26248
 94 02 12 15 59 30.0000000  0  1 20
    -49769.37848    -38780.54344         0.00041  24724043.32644  24724041.32848
 94 02 12 16 00 00.0000000  0  1 20
    -73835.48048    -57533.28344         0.00041  24719467.92944  24719461.48048
 94 02 12 16 00 30.0000000  0  1 20
    -97576.48248    -76032.76044         0.00041  24714946.61944  24714946.85048
 94 02 12 16 01 00.0000000  0  1 20
   -120890.73348    -94199.68544         0.00041  24710512.68844  24710509.14648
 94 02 12 16 01 30.0000000  0  1 20
   -143773.77348   -112030.47044         0.00041  24706158.65944  24706150.32848
 94 02 12 16 02 00.0000000  0  1 20
   -166174.84447   -129486.17244         0.00041  24701886.69544  24701887.00047
 94 02 12 16 02 30.0000000  0  1 20
   -188137.68848   -146599.85844         0.00041  24697701.22144  24697709.17348
 94 02 12 16 03 00.0000000  0  1 20
   -209679.44048   -163385.77844         0.00041  24693606.36544  24693610.69948
 94 02 12 16 03 30.0000000  0  1 20
   -230800.36247   -179844.36944         0.00041  24689593.26844  24689592.17747
 94 02 12 16 04 00.0000000  0  1 20
   -251576.25747   -196033.52044         0.00041  24685636.66044  24685636.54147
 94 02 12 16 04 30.0000000  0  1 20
   -271744.01247   -211748.66344         0.00041  24681800.74544  24681797.63547
 94 02 12 16 06 00.0000000  0  1 20
        -0.31458        -0.30554         0.00051  24670803.69954  24670802.08158
 94 02 12 16 06 30.0000000  0  1 20
    -18264.26848    -14231.90644         0.00041  24667327.21344  24667327.31548
 94 02 12 16 07 00.0000000  0  1 20
    -35977.34848    -28034.47644         0.00041  24663955.76344  24663953.70048
 94 02 12 16 07 30.0000000  0  1 20
    -53355.96048    -41576.08944         0.00041  24660647.33744  24660647.41648
 94 02 12 16 08 00.0000000  0  1 20
    -70402.45648    -54859.02744         0.00041  24657407.20744  24657406.01248
 94 02 12 16 08 30.0000000  0  1 20
    -87010.78648    -67800.55044         0.00041  24654250.93744  24654243.63348
 94 02 12 16 09 00.0000000  0  1 20
   -103156.88848    -80381.89244         0.00041  24651171.35144  24651171.79948
 94 02 12 16 09 30.0000000  0  1 20
   -118833.43748    -92597.33044         0.00041  24648191.33744  24648187.04848
 94 02 12 16 10 00.0000000  0  1 20
   -134022.26848   -104432.63344         0.00041  24645305.52744  24645298.35448
 94 02 12 16 10 30.0000000  0  1 20
   -148728.05548   -115891.82244         0.00041  24642506.15944  24642500.94648
 94 02 12 16 11 00.0000000  0  1 20
   -162972.20048   -126991.08744         0.00041  24639794.12944  24639788.25148
 94 02 12 16 11 30.0000000  0  1 20
   -176773.07848   -137744.99644         0.00041  24637160.51844  24637160.00348
 94 02 12 16 12 00.0000000  0  2 20 21
   -190032.11348   -148076.67744         0.00041  24634642.93144  24634638.85048
        -0.29858         0.19054         0.00051  23419647.76254  23419647.42458
 94 02 12 16 12 30.0000000  0  2 20 21
   -202807.93548   -158031.86944         0.00041  24632209.08444  24632206.48148
     83004.46248     64679.16344         0.00041  23435446.68144  23435441.86048
 94 02 12 16 15 00.0000000  0  1 15
        -0.20158         0.23556         0.00051  20778186.06656  20778182.22858
 94 02 12 16 15 30.0000000  0  1 15
     -9813.92148     -7646.83446         0.00041  20776317.92946  20776315.08448
 94 02 12 16 16 00.0000000  0  1 15
    -18971.51848    -14782.61846         0.00041  20774575.75146  20774572.26048
 94 02 12 16 16 30.0000000  0  1 15
    -27515.77548    -21440.49646         0.00041  20772950.46546  20772946.64648
 94 02 12 16 17 00.0000000  0  1 15
    -35435.18048    -27611.48646         0.00041  20771443.13346  20771439.20848
 94 02 12 16 18 30.0000000  0  2 14 20
        -1.22558        -0.94455         0.00051  22994908.48955  22994905.63858
        -0.24058         0.34954         0.00051  24610316.35354  24610306.51958
 94 02 12 16 19 00.0000000  0  2 14 20
    -83604.83848    -65146.59745         0.00041  22979001.27345  22978997.01548
     -6463.19448     -5035.64944         0.00041  24609073.49744  24609075.15248
 94 02 12 16 19 30.0000000  0  2 14 20
   -167208.22048   -130292.11445         0.00041  22963095.19945  22963089.85748
    -12460.91448     -9709.05744         0.00041  24607933.75644  24607932.50748
 94 02 12 16 20 00.0000000  0  2 14 20
   -250653.91348   -195314.73245         0.00041  22947215.80345  22947211.49048
    -17841.73948    -13901.97944         0.00041  24606906.57044  24606906.97948
 94 02 12 16 20 30.0000000  0  2 14 20
   -334048.65948   -260297.66845         0.00041  22931345.81545  22931341.12748
    -22725.85648    -17707.79044         0.00041  24605979.94944  24605980.16248
 94 02 12 16 21 00.0000000  0  2 14 20
   -417394.78548   -325242.69945         0.00041  22915483.88745  22915480.14848
    -27123.06948    -21134.20244         0.00041  24605147.74744  24605144.86248
 94 02 12 16 21 30.0000000  0  3 14 20 21
   -500646.30348   -390114.04145         0.00041  22899641.43745  22899635.81448
    -30990.42248    -24147.76544         0.00041  24604409.87244  24604409.24748
         0.21858         0.25354         0.00051  23727033.58854  23727028.12358
 94 02 12 16 22 00.0000000  0  3 14 20 21
   -583819.60348   -454924.38845         0.00041  22883810.10545  22883807.59348
    -34338.67548    -26756.77544         0.00041  24603773.32144  24603771.72448
     87236.11148     67976.13044         0.00041  23743635.43744  23743628.32348
 94 02 12 16 22 30.0000000  0  3 14 20 21
   -666944.06548   -519696.70045         0.00041  22867995.05045  22867989.44748
    -37188.27648    -28977.22544         0.00041  24603236.78144  24603228.42648
    174672.24448    136108.05544         0.00041  23760267.90644  23760266.22748
 94 02 12 16 23 00.0000000  0  3 14 20 21
   -750045.00348   -584450.66845         0.00041  22852181.25545  22852177.49248
    -39546.86148    -30815.03844         0.00041  24602786.38444  24602778.83948
    262312.79648    204399.08844         0.00041  23776952.82144  23776942.02948
 94 02 12 16 23 30.0000000  0  3 14 20 21
   -833104.15948   -649172.13445         0.00041  22836377.33445  22836373.69848
    -41395.35348    -32255.43244         0.00041  24602429.25444  24602427.66948
    350174.25248    272862.33444         0.00041  23793669.29044  23793665.61348
 94 02 12 16 24 00.0000000  0  3 14 20 21
   -916114.95948   -713855.84345         0.00041  22820581.43445  22820578.49448
    -42727.94648    -33293.85044         0.00041  24602180.40944  24602176.84148
    438268.72848    341507.23644         0.00041  23810435.11644  23810427.71448
 94 02 12 16 24 30.0000000  0  3 14 20 21
   -998964.58948   -778414.02045         0.00041  22804818.74245  22804814.47948
    -43425.45048    -33837.35844         0.00041  24602048.04544  24602041.68948
    526711.92848    410423.86144         0.00041  23827262.97544  23827260.09748
 94 02 12 16 30 30.0000000  0  1 25
        -0.29059         0.67056         0.00051  20606942.94356  20606941.08359
 94 02 12 16 31 00.0000000  0  1 25
     11036.59449      8600.81646         0.00041  20609042.80846  20609041.12849
 94 02 12 16 31 30.0000000  0  2 20 25
        -0.43057        -0.35754         0.00051  24604838.27054  24604834.88157
     22691.61849     17682.61846         0.00041  20611261.44546  20611259.15149
 94 02 12 16 32 00.0000000  0  2 20 25
      6822.70847      5316.44544         0.00041  24606127.77544  24606131.89047
     34672.01349     27017.97146         0.00041  20613540.78346  20613538.31649
 94 02 12 16 32 30.0000000  0  2 20 25
     14080.70947     10972.07844         0.00041  24607521.51244  24607512.96047
     47126.15948     36722.48946         0.00041  20615910.13846  20615908.52548
 94 02 12 16 33 00.0000000  0  3 20 21 25
     21805.22647     16991.14644         0.00041  24608990.99844  24608986.80647
        -0.00957         0.85354         0.00051  24113457.57154  24113457.01857
     60089.81548     46824.02946         0.00041  20618377.12046  20618375.29948
 94 02 12 16 33 30.0000000  0  3 20 21 25
     30023.95647     23395.18644         0.00041  24610549.47544  24610548.50047
     91629.18548     71400.00044         0.00041  24130907.19044  24130897.74348
     73589.82749     57343.51046         0.00041  20620947.11146  20620944.63449
 94 02 12 16 34 00.0000000  0  2 21 25
    183638.61448    143095.50944         0.00041  24148412.99144  24148408.43948
     87785.37048     68404.95646         0.00041  20623647.74046  20623645.58248
 94 02 12 16 34 30.0000000  0  3 01 21 25
        -1.00358        -0.26055         0.00051  23425482.94755  23425479.87758
    275761.96648    214879.70244         0.00041  24165947.72844  24165939.28248
    102394.00649     79788.30246         0.00041  20626428.09746  20626425.85849
 94 02 12 16 35 00.0000000  0  3 01 21 25
     75997.69248     59219.42645         0.00041  23439943.42345  23439942.74048
    368256.61248    286953.05044         0.00041  24183548.16044  24183540.45248
    117673.06849     91694.05446         0.00041  20629335.97446  20629332.99649
 94 02 12 16 35 30.0000000  0  3 01 21 25
    152210.98748    118606.32045         0.00041  23454444.16345  23454445.48548
    461153.84747    359340.33044         0.00041  24201223.68744  24201217.01347
    133666.20249    104156.24146         0.00041  20632378.71346  20632376.33649
 94 02 12 16 36 00.0000000  0  4 01 20 21 25
    228033.73548    177688.94545         0.00041  23468873.69645  23468873.61848
        -0.78157        -0.55254         0.00051  24620008.20054  24619999.81757
    553852.95447    431573.03544         0.00041  24218863.99444  24218858.53947
    149787.62648    116718.38246         0.00041  20635446.82946  20635444.85748
 94 02 12 16 37 30.0000000  0  4 01 14 15 25
        -0.46458         0.33654         0.00051  23512260.29654  23512258.65158
        -0.05658         0.82856         0.00051  22393731.86556  22393727.80658
        -0.90658        -0.30856         0.00051  20807805.55456  20807802.29358
        -0.74459         0.08256         0.00051  20645377.53956  20645375.29359
 94 02 12 16 38 00.0000000  0  5 01 14 15 21 25
     75886.98848     59133.32245         0.00041  23526696.96145  23526698.99748
    -80989.53348    -63107.83845         0.00041  22378322.09545  22378318.18948
     18396.78848     14335.56046         0.00041  20811307.11546  20811303.11348
         0.17258         0.46854         0.00051  24289876.22254  24289871.10058
     18393.62948     14333.36146         0.00041  20648877.90946  20648876.19148
 94 02 12 16 38 30.0000000  0  5 01 14 15 21 25
    152116.01548    118532.51845         0.00041  23541204.56945  23541204.17648
   -161540.24748   -125874.61046         0.00041  22362993.85346  22362989.31548
     37755.01748     29419.89046         0.00041  20814990.64646  20814986.96448
     93985.88148     73235.94544         0.00041  24307753.74644  24307756.30848
     37672.76049     29356.06346         0.00041  20652546.97946  20652544.25449
 94 02 12 16 39 00.0000000  0  6 01 14 15 21 25 29
    228170.41148    177795.62044         0.00041  23555674.76844  23555675.92248
   -242155.31448   -188691.52546         0.00041  22347652.18546  22347648.77948
     57554.90248     44848.35446         0.00041  20818758.81046  20818754.12148
    187978.27148    146476.45444         0.00041  24325650.11944  24325643.35648
     57316.49948     44662.88546         0.00041  20656284.26846  20656281.99248
        -0.16457         0.51454         0.00051  23536861.59654  23536866.47357
 94 02 12 16 39 30.0000000  0  6 01 14 15 21 25 29
    304235.87448    237067.34645         0.00041  23570153.23545  23570150.29248
   -322662.30848   -251424.22546         0.00041  22332332.11746  22332328.80148
     77980.36448     60764.27446         0.00041  20822646.09246  20822641.62648
    282152.67248    219858.87244         0.00041  24343571.82044  24343564.39648
     77503.39549     60392.93946         0.00041  20660126.60146  20660124.58549
    -65402.13948    -50962.01844         0.00041  23524428.99344  23524422.09948
 94 02 12 16 40 00.0000000  0  8 01 14 15 20 21 22 25 29
    380703.14648    296652.20345         0.00041  23584701.37745  23584701.59448
   -402641.97948   -313746.01846         0.00041  22317112.13046  22317108.79048
     99436.56948     77483.37646         0.00041  20826727.93646  20826724.90048
        -0.43657        -0.05554         0.00051  24640435.70954  24640436.03157
    376920.03847    293703.16444         0.00041  24361599.85344  24361596.11447
        -0.26257         0.47554         0.00051  24576368.01554  24576373.15957
     98645.48749     76867.29246         0.00041  20664148.84346  20664147.20749
   -130238.99648   -101484.11644         0.00041  23512086.23844  23512085.66848
 94 02 12 16 40 30.0000000  0  8 01 14 15 20 21 22 25 29
    456923.03948    356044.26345         0.00041  23599207.09645  23599207.09448
   -482729.21748   -376151.65146         0.00041  22301870.58946  22301867.98848
    121273.01348     94498.77046         0.00041  20830883.76146  20830880.32748
     15926.61448     12410.59544         0.00041  24643471.19244  24643468.49948
    471647.57148    367516.64244         0.00041  24379629.66944  24379625.12548
    -89821.60447    -69990.79944         0.00041  24559289.87144  24559280.11547
    120092.41749     93579.19446         0.00041  20668230.86946  20668228.22149
   -195168.86148   -152078.75044         0.00041  23499729.91044  23499729.67648
 94 02 12 16 41 00.0000000  0  8 01 14 15 20 21 22 25 29
    533019.03848    415339.81044         0.00041  23613684.05644  23613686.78848
   -562818.11448   -438558.55046         0.00041  22286630.72946  22286627.85348
    143607.55648    111902.29146         0.00041  20835134.12746  20835129.47248
     32258.36347     25136.78944         0.00041  24646583.20444  24646577.12147
    566460.45548    441396.49144         0.00041  24397666.52844  24397665.28348
   -179858.75447   -140149.39244         0.00041  24542149.35044  24542145.71347
    141950.97648    110611.84846         0.00041  20672390.18146  20672387.80048
   -260084.15947   -202661.91744         0.00041  23487384.32044  23487375.60147
 94 02 12 16 41 30.0000000  0  8 01 14 15 20 21 22 25 29
    608749.00648    474350.16645         0.00041  23628100.32045  23628097.98248
   -643155.79348   -501159.31346         0.00041  22271342.97446  22271341.41048
    166190.70348    129499.52746         0.00041  20839431.54146  20839427.01048
     48746.56347     37984.74344         0.00041  24649712.91344  24649711.53447
    661109.25548    515148.60444         0.00041  24415687.30644  24415676.64348
   -270356.18447   -210666.45944         0.00041  24524931.89644  24524926.79247
    163970.59249    127769.98146         0.00041  20676580.91846  20676578.33749
   -325245.33648   -253436.90744         0.00041  23474973.99944  23474976.71548
 94 02 12 16 42 00.0000000  0  7 01 14 15 21 22 25 29
    684503.89948    533379.85944         0.00041  23642517.23344  23642511.96648
   -723356.90748   -563653.69545         0.00041  22256082.67245  22256078.52648
    189407.75748    147590.70646         0.00041  20843848.60246  20843845.78848
    755988.24048    589079.93944         0.00041  24433732.84744  24433733.96448
   -360909.72447   -281227.47344         0.00041  24507697.95744  24507692.49047
    186536.73948    145353.99246         0.00041  20680874.37446  20680871.81348
   -390266.79747   -304102.82644         0.00041  23462599.70644  23462603.40347
 94 02 12 16 42 30.0000000  0  6 01 14 15 21 25 29
    760195.59048    592360.32344         0.00041  23656921.96244  23656916.30348
   -803523.99148   -626121.52245         0.00041  22240826.31645  22240822.14648
    213161.52248    166100.09846         0.00041  20848369.20446  20848366.12448
    850989.27048    663106.61444         0.00041  24451814.51444  24451811.24748
    209542.45248    163280.53046         0.00041  20685252.17446  20685250.04148
   -455241.13747   -354732.04144         0.00041  23450240.40644  23450237.59947
 94 02 12 16 43 00.0000000  0  7 01 14 15 21 22 25 29
    836221.36248    651601.15944         0.00041  23671386.93344  23671380.28748
   -883261.38948   -688254.53146         0.00041  22225653.86246  22225649.45248
    237847.78848    185336.10646         0.00041  20853067.57246  20853063.72448
    946473.26048    737509.44344         0.00041  24469986.18544  24469980.52848
        -0.38558         0.05954         0.00051  24473233.87454  24473229.09958
    233391.05349    181863.83846         0.00041  20689790.88346  20689788.58649
   -519735.85148   -404987.61544         0.00041  23437970.49544  23437963.31448
 94 02 12 16 43 30.0000000  0  7 01 14 15 21 22 25 29
    912394.42347    710956.75344         0.00041  23685883.10144  23685873.66847
   -962741.84048   -750187.33446         0.00041  22210530.07646  22210525.11148
    263281.92648    205154.88246         0.00041  20857907.73346  20857903.31948
   1042234.83348    812128.65644         0.00041  24488210.99544  24488203.21248
    -90341.30448    -70394.98544         0.00041  24456036.48444  24456036.20548
    257904.88349    200965.52446         0.00041  20694455.99046  20694453.22549
   -583931.64548   -455010.26244         0.00041  23425752.71644  23425747.53448
 94 02 12 16 44 00.0000000  0  7 01 14 15 20 22 25 29
    988456.85747    770226.07744         0.00041  23700356.93444  23700347.92447
  -1042211.67748   -812111.87346         0.00041  22195404.10346  22195402.49248
    289210.03548    225358.57046         0.00041  20862841.02246  20862837.00948
         0.09558         0.19754         0.00051  24667072.44354  24667068.15458
   -180855.21848   -140925.03844         0.00041  24438817.97444  24438812.36448
    282812.76949    220374.26146         0.00041  20699194.90846  20699193.18449
   -648086.29548   -505000.74544         0.00041  23413536.87744  23413539.76548
 94 02 12 16 44 30.0000000  0  7 01 14 15 20 22 25 29
   1064383.39747    829389.62344         0.00041  23714801.06544  23714796.35947
  -1121682.43148   -874037.10446         0.00041  22180281.85446  22180279.77848
    315604.64948    245925.79546         0.00041  20867863.28146  20867860.54348
     19766.93348     15403.02744         0.00041  24670835.96344  24670831.85948
   -271581.21648   -211620.35244         0.00041  24421545.93744  24421547.96148
    308084.31449    240066.35746         0.00041  20704003.83346  20704002.40849
   -712228.86948   -554981.99244         0.00041  23401343.54444  23401336.69348
 94 02 12 16 45 00.0000000  0  8 01 14 15 20 21 22 25 29
   1140340.75447    888577.08744         0.00041  23729256.03144  23729249.38547
  -1201000.52248   -935843.39446         0.00041  22165188.05846  22165186.13448
    342619.01648    266975.92246         0.00041  20873004.37146  20873000.66248
     40068.52147     31222.49844         0.00041  24674691.25644  24674690.95047
        -1.12957        -0.57054         0.00051  24542931.71654  24542924.99057
   -362375.27948   -282368.81344         0.00041  24404269.90644  24404268.51348
    333880.79749    260167.50146         0.00041  20708913.04146  20708910.90449
   -776223.09648   -604847.64644         0.00041  23389157.90144  23389158.15548
 94 02 12 16 45 30.0000000  0  8 01 14 15 20 21 22 25 29
   1216302.19847    947767.86844         0.00041  23743707.23144  23743704.76747
  -1280190.58048   -997549.91246         0.00041  22150119.70546  22150116.58648
    370229.67848    288490.68646         0.00041  20878258.79346  20878254.42248
     60881.90847     47440.60044         0.00041  24678662.12144  24678651.32547
     96147.45347     74920.35544         0.00041  24561219.78544  24561220.44847
   -453258.48948   -353186.77544         0.00041  24386988.14944  24386974.91748
    360168.44749    280651.38146         0.00041  20713915.27846  20713913.34949
   -840132.54148   -654647.09044         0.00041  23377002.43644  23376994.44648
 94 02 12 16 46 00.0000000  0  7 14 15 20 21 22 25 29
  -1359294.28948  -1059189.16146         0.00041  22135068.05346  22135063.09648
    398398.63448    310440.48646         0.00041  20883619.49746  20883615.61148
     82170.51047     64029.11944         0.00041  24682707.36644  24682703.04547
    192447.48048    149959.03544         0.00041  24579551.20144  24579546.79348
   -544256.17748   -424093.86944         0.00041  24369668.82144  24369658.89348
    386920.32149    301496.98546         0.00041  20719006.28546  20719003.98849
   -903987.38848   -704404.16844         0.00041  23364845.17044  23364843.45848
 94 02 12 16 46 30.0000000  0  7 14 15 20 21 22 25 29
  -1438348.47748  -1120789.80546         0.00041  22120022.97046  22120019.19748
    427096.18948    332802.19446         0.00041  20889079.65446  20889076.72548
    103905.75547     80965.74144         0.00041  24686837.85844  24686841.89547
    288858.08748    225084.11044         0.00041  24597893.92544  24597892.88348
   -635383.32748   -495102.04344         0.00041  24352320.79944  24352317.80148
    414129.62548    322699.02946         0.00041  20724184.05946  20724182.11448
   -967802.39948   -754130.12844         0.00041  23352707.53144  23352700.22948
 94 02 12 16 47 00.0000000  0  7 14 15 20 21 22 25 29
  -1517247.12948  -1182269.25346         0.00041  22105008.99146  22105004.22548
    456436.44548    355664.70646         0.00041  20894663.01246  20894659.45548
    126202.80347     98340.02344         0.00041  24691088.09444  24691084.65047
    385481.96148    300375.19844         0.00041  24616292.27244  24616280.68048
   -726510.05948   -566109.86044         0.00041  24334984.38044  24334977.66348
    441910.56048    344346.50946         0.00041  20729470.97346  20729468.03948
  -1031465.65648   -803737.81544         0.00041  23340585.48044  23340588.39348
 94 02 12 16 47 30.0000000  0  7 14 15 20 21 22 25 29
  -1595949.83648  -1243596.01646         0.00041  22090033.41846  22090028.24748
    486453.16848    379054.31746         0.00041  20900376.10446  20900370.52848
    149096.47047    116179.71244         0.00041  24695430.59444  24695437.63447
    482333.51748    375843.69144         0.00041  24634711.50144  24634709.44248
   -817595.07048   -637085.26644         0.00041  24317650.05444  24317644.79348
    470294.81348    366464.10846         0.00041  20734871.69546  20734869.37948
  -1094933.66448   -853193.43544         0.00041  23328513.14544  23328510.09048
 94 02 12 16 48 00.0000000  0  7 14 15 20 21 22 25 29
  -1674476.97848  -1304785.98146         0.00041  22075088.40246  22075086.19348
    517128.21548    402956.91646         0.00041  20906212.74946  20906209.24648
    172569.70147    134471.02844         0.00041  24699900.92744  24699906.48947
    579394.68948    451475.43444         0.00041  24653187.77244  24653180.53048
   -908638.33448   -708028.16144         0.00041  24300322.61844  24300318.92748
    499263.23248    389036.90246         0.00041  20740384.12846  20740382.16048
  -1158194.21748   -902487.39144         0.00041  23316471.34144  23316471.48448
 94 02 12 16 48 30.0000000  0  7 01 14 15 20 22 25 29
        -0.39957         0.16854         0.00051  23830430.25854  23830425.72557
  -1752910.53048  -1365903.02046         0.00041  22060163.56746  22060161.82448
    548379.66848    427308.68146         0.00041  20912159.01946  20912156.13248
    196541.95647    153151.42744         0.00041  24704471.42644  24704468.43947
   -999721.62048   -779002.19544         0.00041  24282994.33344  24282987.05248
    528718.00649    411988.66946         0.00041  20745989.40246  20745987.38849
  -1221331.78548   -951685.46544         0.00041  23304456.56944  23304456.05448
 94 02 12 16 49 00.0000000  0  7 01 14 15 20 22 25 29
     75846.41947     59101.62644         0.00041  23844871.36844  23844859.86947
  -1831312.64248  -1426995.55746         0.00041  22045244.77946  22045242.51348
    580136.62548    452054.34946         0.00041  20918202.87046  20918199.40248
    220942.91747    172165.51844         0.00041  24709114.66844  24709110.60047
  -1090930.07748   -850073.78344         0.00041  24265640.47144  24265629.52448
    558587.17548    435263.35046         0.00041  20751673.48046  20751670.61548
  -1284414.71348  -1000840.95744         0.00041  23292458.07844  23292450.92148
 94 02 12 16 49 30.0000000  0  7 01 14 15 20 22 25 29
    151637.60547    118159.72144         0.00041  23859281.90744  23859280.82447
  -1909603.44648  -1488001.36046         0.00041  22030346.49846  22030344.90648
    612466.10448    477246.13846         0.00041  20924354.28846  20924350.72348
    245840.78848    191566.31744         0.00041  24713855.73344  24713850.33648
  -1182201.90848   -921194.75444         0.00041  24248272.07844  24248261.69948
    588938.27549    458913.56846         0.00041  20757449.76346  20757447.25649
  -1347359.55948  -1049888.92045         0.00041  23280476.54745  23280473.77848
 94 02 12 16 50 00.0000000  0  7 01 14 15 20 22 25 29
    227472.68947    177251.91244         0.00041  23873716.60244  23873711.19947
  -1987689.11648  -1548847.32446         0.00041  22015487.60846  22015483.90048
    645454.38748    502951.28246         0.00041  20930633.52846  20930628.85048
    271323.24347    211422.71444         0.00041  24718694.97744  24718698.01947
  -1273445.45748   -992293.65745         0.00041  24230905.52545  24230899.17648
    619856.91449    483006.01846         0.00041  20763333.14046  20763330.72349
  -1410084.78048  -1098765.63745         0.00041  23268539.43945  23268536.54548
 94 02 12 16 50 30.0000000  0  7 01 14 15 20 22 25 29
    303345.13248    236373.24244         0.00041  23888150.30144  23888154.33648
  -2065561.32448  -1609526.93546         0.00041  22000669.44646  22000662.79748
    679090.89548    529161.52946         0.00041  20937033.72146  20937029.45048
    297380.64447    231727.22344         0.00041  24723660.67044  24723655.73547
  -1364686.21348  -1063390.32044         0.00041  24213540.58844  24213535.07048
    651345.24149    507542.39146         0.00041  20769325.20146  20769322.40449
  -1472617.96548  -1147492.76445         0.00041  23256638.33745  23256635.26948
 94 02 12 16 51 00.0000000  0  8 01 14 15 20 21 22 25 29
    379266.13248    295532.36944         0.00041  23902603.10344  23902603.56048
  -2143218.46248  -1670038.97946         0.00041  21985889.77946  21985885.97148
    713365.32848    555868.85646         0.00041  20943555.69746  20943551.73848
    324003.68648    252472.37044         0.00041  24728720.56344  24728726.05048
        -0.77858        -0.70654         0.00051  24764574.10154  24764575.38558
  -1455920.82748  -1134482.12144         0.00041  24196182.79044  24196174.10648
    683402.72249    532522.25346         0.00041  20775425.49446  20775423.19449
  -1534971.34248  -1196079.77745         0.00041  23244772.10845  23244769.19448
 94 02 12 16 51 30.0000000  0  8 01 14 15 20 21 22 25 29
    455118.63948    354638.10344         0.00041  23917041.55744  23917037.66348
  -2220776.40748  -1730473.74146         0.00041  21971132.08446  21971128.61148
    748162.15448    582983.23946         0.00041  20950177.56046  20950173.30248
    351077.80748    273569.21744         0.00041  24733883.17944  24733880.10948
     98134.48448     76468.31844         0.00041  24783248.47944  24783250.21548
  -1547242.40348  -1205641.64844         0.00041  24178801.93944  24178794.67948
    715903.93149    557847.86446         0.00041  20781610.24346  20781607.85149
  -1597274.12748  -1244627.36845         0.00041  23232917.29545  23232914.49148
 94 02 12 16 52 00.0000000  0  8 01 14 15 20 21 22 25 29
    530964.64848    413738.82745         0.00041  23931473.54245  23931469.71248
  -2298180.12248  -1790788.31346         0.00041  21956401.92246  21956400.15648
    783539.62648    610550.08846         0.00041  20956909.32246  20956905.87548
    378662.40948    295063.59744         0.00041  24739133.04944  24739129.31248
    196436.34348    153067.38444         0.00041  24801961.34944  24801955.47448
  -1638589.43548  -1276820.97144         0.00041  24161421.92644  24161411.78448
    748913.34248    583569.48146         0.00041  20787891.63146  20787888.80348
  -1659474.47648  -1293095.11844         0.00041  23221082.07544  23221079.34548
 94 02 12 16 52 30.0000000  0  8 01 14 15 20 21 22 25 29
    606815.41948    472843.30044         0.00041  23945908.89344  23945902.99748
  -2375433.78548  -1850985.95646         0.00041  21941703.01246  21941699.93148
    819496.38848    638568.34046         0.00041  20963751.76646  20963748.16748
    406757.54847    316955.74044         0.00041  24744471.40644  24744472.44447
    294900.23248    229792.18044         0.00041  24820691.27144  24820693.59548
  -1729964.30848  -1348021.95844         0.00041  24144032.23444  24144024.27248
    782434.11848    609689.57846         0.00041  20794270.12846  20794267.46648
  -1721558.31148  -1341472.07345         0.00041  23209269.20545  23209264.55548
 94 02 12 16 53 00.0000000  0  8 01 14 15 20 21 22 25 29
    682652.08848    531936.69044         0.00041  23960341.41844  23960334.74748
  -2452557.40548  -1911082.26246         0.00041  21927026.04446  21927021.72248
    856014.31348    667023.85246         0.00041  20970700.00546  20970696.50348
    435345.90348    339232.40744         0.00041  24749916.70344  24749914.10948
    393517.40147    306636.16444         0.00041  24839468.55044  24839459.62247
  -1821372.25548  -1419248.76544         0.00041  24126638.12644  24126631.55348
    816432.61249    636181.90546         0.00041  20800739.42546  20800737.56549
  -1783535.85748  -1389766.20745         0.00041  23197472.39445  23197471.48548
 94 02 12 16 53 30.0000000  0  7 01 14 15 20 22 25 29
    758472.68648    591017.58344         0.00041  23974770.25344  23974763.31348
  -2529545.39248  -1971072.88346         0.00041  21912374.92146  21912370.27748
    893100.09048    695921.87246         0.00041  20977757.59646  20977754.04748
    464435.14948    361899.20444         0.00041  24755454.86844  24755449.97848
  -1912815.89648  -1490503.31644         0.00041  24109233.12944  24109230.89148
    850912.65149    663049.46546         0.00041  20807301.10046  20807299.28949
  -1845400.13448  -1437972.12045         0.00041  23185701.15045  23185699.35148
 94 02 12 16 55 30.0000000  0  3 14 20 21
        -0.59358         0.29056         0.00051  21854039.61856  21854036.21658
        -1.09957        -0.42854         0.00051  24778530.93154  24778527.16557
        -0.54058         0.31254         0.00051  24933712.15854  24933710.64658
 94 02 12 16 56 00.0000000  0  5 14 15 20 21 22
    -76134.90248    -59325.13346         0.00041  21839550.38946  21839547.28048
         0.07058         0.09856         0.00051  21014656.81556  21014654.10558
     31679.86348     24686.09144         0.00041  24784561.08044  24784558.58748
     99530.38348     77557.08044         0.00041  24952660.92844  24952653.51948
        -0.17758         0.29454         0.00051  24022160.89254  24022162.16458
 94 02 12 16 56 30.0000000  0  5 14 15 20 21 22
   -151933.10648   -118388.65346         0.00041  21825128.64346  21825124.43248
     40730.99348     31738.46546         0.00041  21022407.70046  21022404.22048
     64036.46147     49899.43844         0.00041  24790717.66244  24790714.13947
    199324.12548    155318.00344         0.00041  24971639.18244  24971644.30348
    -91263.02448    -71113.33044         0.00041  24004792.06344  24004793.21548
 94 02 12 16 57 00.0000000  0  4 14 15 21 22
   -227519.26848   -177286.95546         0.00041  21810744.18846  21810741.73748
     82077.97348     63956.87946         0.00041  21030276.69646  21030271.87448
    299272.25048    233200.13944         0.00041  24990669.05444  24990663.03748
   -182470.36648   -142184.54844         0.00041  23987429.51044  23987437.74348
 94 02 12 16 57 30.0000000  0  2 14 15
   -303523.29348   -236510.84546         0.00041  21796281.34046  21796279.61548
    123407.33748     96161.54746         0.00041  21038140.61746  21038136.88848
 94 02 12 16 58 00.0000000  0  2 14 15
   -379414.61348   -295646.96146         0.00041  21781840.74546  21781837.37448
    165250.66548    128766.71246         0.00041  21046103.97546  21046100.10048
 94 02 12 16 58 30.0000000  0  3 01 14 15
        -0.00958         0.60654         0.00051  24118775.98754  24118777.68558
   -454909.57448   -354474.18846         0.00041  21767473.84946  21767469.93848
    207899.46948    161999.51946         0.00041  21054219.08746  21054215.31848
 94 02 12 16 59 00.0000000  0  3 01 14 15
     75674.39248     58967.65444         0.00041  24133172.41444  24133174.39148
   -530130.84248   -413088.15446         0.00041  21753158.90946  21753155.21248
    251233.88548    195766.54946         0.00041  21062465.98746  21062461.82948
 94 02 12 16 59 30.0000000  0  4 01 14 15 22
    151304.89648    117900.45844         0.00041  24147575.54544  24147570.15348
   -605230.28548   -471607.19946         0.00041  21738869.05746  21738864.98548
    295095.12848    229944.10946         0.00041  21070812.43546  21070808.73548
        -0.97858        -0.75154         0.00051  23900283.11954  23900288.67258
 94 02 12 17 00 00.0000000  0  4 01 14 15 22
    227139.98148    176992.51545         0.00041  24162006.23045  24162000.51948
   -679951.51848   -529831.53246         0.00041  21724650.43546  21724647.59648
    339738.49848    264731.11746         0.00041  21079307.48246  21079303.41848
    -91206.57448    -71069.98744         0.00041  23882939.47544  23882933.18748
 94 02 12 17 00 30.0000000  0  4 01 14 15 22
    302941.10748    236058.24544         0.00041  24176432.36744  24176427.36848
   -754508.37348   -587927.79246         0.00041  21710463.84846  21710459.23248
    384936.99248    299950.69446         0.00041  21087908.95146  21087904.51448
   -182386.81548   -142119.36644         0.00041  23865592.61744  23865581.75548
 94 02 12 17 01 00.0000000  0  5 01 14 15 20 22
    378617.95348    295027.17444         0.00041  24190832.14344  24190828.97848
   -828988.73948   -645964.44046         0.00041  21696289.40746  21696284.60948
    430583.55548    335519.41846         0.00041  21096594.64946  21096591.26248
        -0.22257         0.23054         0.00051  24850077.16954  24850072.36857
   -273641.28348   -213226.61844         0.00041  23848218.10144  23848216.55648
 94 02 12 17 01 30.0000000  0  5 01 14 15 20 22
    454302.04948    354001.70144         0.00041  24205236.45344  24205233.00648
   -903251.11948   -703831.24946         0.00041  21682157.55146  21682152.33748
    476797.68848    371530.41446         0.00041  21105389.79146  21105385.58748
     37297.79347     29063.67844         0.00041  24857172.07444  24857171.12247
   -364852.29748   -284299.89344         0.00041  23830865.50444  23830859.46448
 94 02 12 17 02 00.0000000  0  5 01 14 15 20 22
    530147.66148    413102.04944         0.00041  24219665.96544  24219664.42648
   -977138.54348   -761405.85246         0.00041  21668095.41346  21668092.13948
    523731.33448    408102.03546         0.00041  21114321.38246  21114316.08548
     75267.27547     58650.26944         0.00041  24864396.68544  24864396.72047
   -455853.39648   -355209.68444         0.00041  23813551.40844  23813542.51948
 94 02 12 17 02 30.0000000  0  5 01 14 15 20 22
    606229.47048    472386.58844         0.00041  24234138.97744  24234140.05148
  -1050569.98948   -818625.15546         0.00041  21654122.61446  21654120.74148
    571456.38248    445290.34246         0.00041  21123402.88046  21123398.40948
    113981.29247     88816.86344         0.00041  24871773.52144  24871761.92447
   -546555.73548   -425886.72344         0.00041  23796291.58944  23796281.81548
 94 02 12 17 03 00.0000000  0  5 01 14 15 20 22
    682206.12248    531589.03344         0.00041  24248602.65244  24248597.36448
  -1123900.87648   -875766.10846         0.00041  21640168.81046  21640166.17748
    619619.73748    482820.19646         0.00041  21132567.79146  21132563.72948
    153087.87347    119289.65444         0.00041  24879209.98944  24879206.32147
   -637321.65748   -496613.41144         0.00041  23779019.77044  23779010.22148
 94 02 12 17 03 30.0000000  0  5 01 14 15 20 22
    758138.15948    590756.75244         0.00041  24263055.77144  24263044.83548
  -1197061.76648   -932774.59146         0.00041  21626245.81346  21626243.15048
    668300.94248    520753.56746         0.00041  21141830.83746  21141827.39348
    192667.47048    150130.92144         0.00041  24886738.97844  24886740.70148
   -728066.15148   -567323.33144         0.00041  23761751.32744  23761741.37048
 94 02 12 17 04 00.0000000  0  5 01 14 15 20 22
    833959.88147    649838.51044         0.00041  24277478.58944  24277472.77247
  -1270120.89048   -989703.78646         0.00041  21612345.05846  21612340.36048
    717442.95548    559046.03046         0.00041  21151182.33346  21151178.69248
    232664.40848    181297.09944         0.00041  24894359.60144  24894351.26948
   -818843.50448   -638058.85644         0.00041  23744470.65044  23744467.65848
 94 02 12 17 04 30.0000000  0  5 01 14 15 20 22
    909709.91347    708864.50744         0.00041  24291893.39544  24291886.77947
  -1343035.64048  -1046520.48046         0.00041  21598469.07746  21598464.48948
    767082.81248    597726.39746         0.00041  21160628.88346  21160624.76748
    273116.77748    212818.47044         0.00041  24902055.47644  24902049.18248
   -909623.39748   -708796.43444         0.00041  23727201.27744  23727193.11048
 94 02 12 17 05 00.0000000  0  5 01 14 15 20 22
    985410.36647    767851.76844         0.00041  24306304.14344  24306292.68247
  -1415782.27948  -1103206.16746         0.00041  21584626.61146  21584623.50048
    817243.32148    636812.46946         0.00041  21170173.92246  21170170.59148
    314048.91747    244713.71544         0.00041  24909847.82844  24909836.47647
  -1000398.22348   -779530.00044         0.00041  23709926.24144  23709919.30548
 94 02 12 17 05 30.0000000  0  4 14 15 20 22
  -1488370.63648  -1159768.52746         0.00041  21570812.65846  21570809.94548
    867904.47748    676288.67646         0.00041  21179814.74146  21179811.04048
    355441.67047    276967.84744         0.00041  24917705.95644  24917712.10447
  -1091183.79248   -850272.02044         0.00041  23692650.79244  23692642.52848
 94 02 12 17 06 00.0000000  0  4 14 15 20 22
  -1560710.21448  -1216137.01346         0.00041  21557047.57046  21557043.78948
    919137.83248    716210.72246         0.00041  21189564.45246  21189559.82948
    397367.44547    309637.22244         0.00041  24925694.87544  24925689.79047
  -1181895.83448   -920956.71044         0.00041  23675394.79744  23675380.90548
 94 02 12 17 06 30.0000000  0  4 14 15 20 22
  -1632892.03848  -1272382.58846         0.00041  21543311.55746  21543307.50148
    970834.02748    756493.41746         0.00041  21199400.99746  21199397.09748
    439718.14147    342637.96244         0.00041  24933749.74944  24933750.45247
  -1272633.47948   -991661.39044         0.00041  23658122.24544  23658115.15948
 94 02 12 17 07 00.0000000  0  4 14 15 20 22
  -1704951.27348  -1328532.63046         0.00041  21529598.20646  21529594.85848
   1022952.14948    797104.92146         0.00041  21209319.13346  21209316.24948
    482454.26247    375938.44844         0.00041  24941884.09344  24941883.30747
  -1363412.44048  -1062398.21844         0.00041  23640844.02744  23640839.55948
 94 02 12 17 07 30.0000000  0  4 14 15 20 22
  -1776733.35848  -1384466.71246         0.00041  21515938.44046  21515936.04248
   1075639.60648    838160.07346         0.00041  21219344.85146  21219341.36448
    525724.17848    409655.35744         0.00041  24950126.27144  24950118.75948
  -1454052.14848  -1133026.50644         0.00041  23623598.16644  23623591.99548
 94 02 12 17 08 00.0000000  0  4 14 15 20 22
  -1848202.07348  -1440156.62046         0.00041  21502339.80746  21502337.03748
   1128930.72548    879685.58046         0.00041  21229485.63646  21229482.38648
    569563.15848    443815.52944         0.00041  24958462.83744  24958463.79148
  -1544516.06848  -1203517.85444         0.00041  23606384.06144  23606376.46748
 94 02 12 17 08 30.0000000  0  4 14 15 20 22
  -1919542.37748  -1495746.46146         0.00041  21488763.72946  21488760.83748
   1182650.31348    921544.97446         0.00041  21239708.69146  21239704.74948
    613797.11447    478283.26244         0.00041  24966877.67944  24966876.69347
  -1634976.76248  -1274006.64145         0.00041  23589167.89645  23589162.76148
 94 02 12 17 09 00.0000000  0  4 14 15 20 22
  -1990570.71348  -1551093.20146         0.00041  21475246.78446  21475242.87948
   1236994.31448    963890.91546         0.00041  21250050.37646  21250046.71648
    658622.97847    513212.68944         0.00041  24975413.48244  24975404.73647
  -1725228.10448  -1344332.30145         0.00041  23571990.81945  23571989.69848
 94 02 12 17 09 30.0000000  0  4 14 15 20 22
  -2061476.36048  -1606344.36746         0.00041  21461754.71946  21461750.40748
   1291771.22548   1006574.19046         0.00041  21260474.51346  21260470.78548
    703850.62648    548454.93844         0.00041  24984025.02744  24984015.66848
  -1815469.75048  -1414650.41344         0.00041  23554824.80644  23554816.38448
 94 02 12 17 10 00.0000000  0  4 14 15 20 22
  -2132014.66548  -1661309.29946         0.00041  21448331.67846  21448326.47448
   1347219.66148   1049780.74446         0.00041  21271025.58046  21271020.91048
    749719.85948    584197.11044         0.00041  24992743.42044  24992744.02248
  -1905465.50048  -1484776.89044         0.00041  23537693.52044  23537689.79848
 94 02 12 17 10 30.0000000  0  4 14 15 20 22
  -2202456.80048  -1716199.28346         0.00041  21434927.37046  21434922.76748
   1403070.31148   1093300.68146         0.00041  21281653.90746  21281649.40148
    795962.49747    620230.38244         0.00041  25001544.80844  25001544.05947
  -1995467.92648  -1554908.59544         0.00041  23520572.04444  23520562.27648
 94 02 12 17 11 00.0000000  0  4 14 15 20 22
  -2272873.69548  -1771069.59346         0.00041  21421526.98046  21421522.92248
   1459234.06948   1137064.60646         0.00041  21292341.42746  21292337.11848
    842490.54447    656485.82744         0.00041  25010399.85344  25010397.90047
  -2085570.95148  -1625118.59644         0.00041  23503424.96444  23503417.75948
 94 02 12 17 11 30.0000000  0  4 14 15 20 22
  -2343221.00448  -1825885.68446         0.00041  21408139.92146  21408136.43948
   1515735.05148   1181091.29646         0.00041  21303093.23646  21303088.39748
    889329.01747    692983.30944         0.00041  25019310.74544  25019309.32747
  -2175749.37748  -1695387.33744         0.00041  23486267.55744  23486256.42948
 94 02 12 17 12 00.0000000  0  4 14 15 20 22
  -2412966.83048  -1880233.08646         0.00041  21394866.54246  21394864.03348
   1573099.33548   1225790.68046         0.00041  21314009.17146  21314005.33948
    937005.21248    730134.40644         0.00041  25028376.56744  25028382.71548
  -2265469.78248  -1765299.15544         0.00041  23469187.23344  23469182.49548
 94 02 12 17 12 30.0000000  0  5 01 14 15 20 22
        -0.50758         0.43054         0.00051  24521612.79754  24521616.45958
  -2482317.37748  -1934272.49646         0.00041  21381671.10146  21381667.35248
   1631117.05048   1270999.24946         0.00041  21325049.26646  21325045.56848
    985310.49547    767775.00344         0.00041  25037574.70744  25037572.47247
  -2354941.29848  -1835017.05444         0.00041  23452166.53044  23452157.05448
 94 02 12 17 13 00.0000000  0  5 01 14 15 20 22
     75706.94648     58993.15344         0.00041  24536021.51644  24536019.98548
  -2551217.31248  -1987960.78546         0.00041  21368560.37446  21368556.04948
   1689830.67648   1316750.08346         0.00041  21336222.84546  21336218.13948
   1034288.06247    805938.93744         0.00041  25046897.30444  25046893.68047
  -2444112.74648  -1904501.03544         0.00041  23435195.60544  23435187.92648
 94 02 12 17 13 30.0000000  0  5 01 14 15 20 22
    151221.18948    117835.33244         0.00041  24550386.56944  24550387.48648
  -2620066.04748  -2041609.14546         0.00041  21355458.92046  21355454.47148
   1748850.32948   1362739.39146         0.00041  21347454.06446  21347449.18448
   1083549.44447    844324.67144         0.00041  25056264.80744  25056269.91247
  -2533353.04348  -1974038.67944         0.00041  23418213.59344  23418207.65648
 94 02 12 17 14 00.0000000  0  5 01 14 15 20 22
    226728.85848    176672.33544         0.00041  24564754.11844  24564757.50048
  -2688677.11748  -2095072.31746         0.00041  21342402.74946  21342399.01448
   1808374.11448   1409121.51546         0.00041  21358780.72846  21358776.64148
   1133293.74747    883086.55344         0.00041  25065736.11544  25065733.48447
  -2622461.19048  -2043473.39244         0.00041  23401255.35044  23401248.87148
 94 02 12 17 14 30.0000000  0  5 01 14 15 20 22
    302197.17248    235478.80744         0.00041  24579121.24544  24579120.32648
  -2757067.29048  -2148363.39346         0.00041  21329387.56346  21329383.49748
   1868381.76748   1455880.69146         0.00041  21370200.18646  21370195.70448
   1183502.12747    922209.74644         0.00041  25075283.90544  25075288.28847
  -2711448.95248  -2112814.29744         0.00041  23384322.45044  23384315.46448
 94 02 12 17 15 00.0000000  0  5 01 14 15 20 22
    377670.14248    294288.72044         0.00041  24593478.62644  24593483.87848
  -2825195.96148  -2201450.69146         0.00041  21316423.72046  21316419.63548
   1928921.34748   1503054.33346         0.00041  21381720.23146  21381715.87948
   1234223.63447    961732.87144         0.00041  25084943.23144  25084939.88347
  -2800274.31048  -2182028.54444         0.00041  23367415.72044  23367412.29748
 94 02 12 17 16 00.0000000  0  3 01 25 29
        -0.26558        -0.11754         0.00051  24622225.18154  24622221.44658
         0.00358         0.96656         0.00051  21195379.99756  21195377.89758
        -0.65458        -0.26856         0.00051  22681486.88756  22681484.01858
 94 02 12 17 16 30.0000000  0  4 01 20 25 29
     75345.44948     58710.72744         0.00041  24636560.21644  24636560.56448
         0.10457         0.61854         0.00051  25114468.85954  25114467.62957
     55531.52448     43272.24746         0.00041  21205946.79346  21205944.42648
    -55930.41048    -43581.90846         0.00041  22670842.99346  22670842.14848
 94 02 12 17 17 00.0000000  0  7 01 14 15 20 22 25 29
    150583.27948    117337.46844         0.00041  24650878.07344  24650878.70248
        -0.35758         0.21656         0.00051  21265013.52156  21265010.99558
        -1.19158        -1.02256         0.00051  21428744.06056  21428739.60458
     52504.12047     40912.80444         0.00041  25124455.33444  25124457.91847
        -0.92058        -0.83154         0.00051  23300036.18354  23300022.66358
    111369.95848     86782.67946         0.00041  21216573.37446  21216571.50748
   -111819.54448    -87131.89645         0.00041  22660210.51245  22660206.72248
 94 02 12 17 17 30.0000000  0  6 01 14 15 22 25 29
    225696.07548    175866.83444         0.00041  24665173.23544  24665171.89748
    -67129.95748    -52308.58046         0.00041  21252239.42946  21252237.22148
     62768.34348     48910.25946         0.00041  21440688.32146  21440683.99848
    -88445.97648    -68918.80344         0.00041  23283196.92744  23283189.90048
    167501.91848    130521.83646         0.00041  21227255.68646  21227252.05648
   -167694.24248   -130670.64346         0.00041  22649576.63946  22649573.54548
 94 02 12 17 18 00.0000000  0  6 01 14 15 22 25 29
    300766.50148    234363.16744         0.00041  24679462.91744  24679457.20448
   -134015.68848   -104427.32346         0.00041  21239512.57746  21239509.59548
    125987.47748     98171.83946         0.00041  21452719.39646  21452714.65348
   -176779.81148   -137750.24444         0.00041  23266383.47544  23266381.27548
    224017.53348    174559.94046         0.00041  21238009.77046  21238006.47048
   -223505.56048   -174159.96945         0.00041  22638957.51645  22638951.99448
 94 02 12 17 18 30.0000000  0  6 01 14 15 22 25 29
    375847.43948    292867.69044         0.00041  24693744.62844  24693742.97148
   -200627.92348   -156332.98046         0.00041  21226835.66446  21226832.78648
    189691.64648    147811.37446         0.00041  21464841.54046  21464837.04148
   -264960.07248   -206461.88344         0.00041  23249606.31144  23249601.36848
    280969.40548    218937.98346         0.00041  21248847.34446  21248844.19348
   -279208.72148   -217565.01445         0.00041  22628354.42545  22628352.03648
 94 02 12 17 19 00.0000000  0  6 01 14 15 22 25 29
    451008.44648    351434.59744         0.00041  24708046.33644  24708047.29248
   -266879.71848   -207957.76846         0.00041  21214228.78646  21214225.83348
    253959.86248    197890.45446         0.00041  21477071.58646  21477066.36448
   -352904.50948   -274989.87644         0.00041  23232870.79344  23232866.46948
    338448.16848    263726.59346         0.00041  21259784.84246  21259781.95948
   -334703.05048   -260807.32646         0.00041  22617795.19546  22617793.39348
 94 02 12 17 19 30.0000000  0  7 01 14 15 20 22 25 29
    526175.27448    410005.94844         0.00041  24722349.32944  24722352.42348
   -332855.52348   -259367.48846         0.00041  21201673.58046  21201671.44348
    318706.97548    248342.69746         0.00041  21489392.21646  21489388.08248
        -0.97757        -0.48854         0.00051  25175666.50354  25175669.45157
   -440695.87348   -343398.59045         0.00041  23216164.32445  23216160.97248
    396357.78748    308850.93846         0.00041  21270803.92446  21270801.74748
   -390061.92748   -303944.12345         0.00041  22607261.82745  22607258.12548
 94 02 12 17 20 00.0000000  0  7 01 14 15 20 22 25 29
    601327.95148    468566.36744         0.00041  24736657.60044  24736652.97448
   -398591.18048   -310590.09746         0.00041  21189164.55546  21189162.53648
    383897.25748    299140.26746         0.00041  21501797.63046  21501793.13648
     55242.62847     43046.23044         0.00041  25186189.91144  25186182.27947
   -528365.74348   -411712.63444         0.00041  23199483.51344  23199477.99048
    454646.53748    354270.70846         0.00041  21281896.63346  21281893.68148
   -445313.52048   -346997.30446         0.00041  22596747.10146  22596743.02048
 94 02 12 17 20 30.0000000  0  7 01 14 15 20 22 25 29
    676524.20848    527160.71044         0.00041  24750958.80844  24750962.74048
   -464018.85748   -361572.70646         0.00041  21176713.91346  21176711.83748
    449603.35048    350339.79946         0.00041  21514300.43246  21514296.17748
    110995.40347     86489.88744         0.00041  25196800.13544  25196793.41847
   -615828.69848   -479865.48044         0.00041  23182838.36444  23182832.58248
    513367.52548    400027.26946         0.00041  21293070.57346  21293068.50948
   -500369.27048   -389897.85745         0.00041  22586273.36545  22586268.02448
 94 02 12 17 21 00.0000000  0  7 01 14 15 20 22 25 29
    751686.23248    585728.54444         0.00041  24765262.52644  24765265.32048
   -529200.09048   -412363.29546         0.00041  21164310.66846  21164307.66748
    515754.89448    401886.38446         0.00041  21526889.50746  21526885.19548
    167188.12648    130276.44244         0.00041  25207491.04644  25207490.08848
   -703137.50748   -547898.27545         0.00041  23166223.25145  23166219.39048
    572433.36548    446052.56846         0.00041  21304311.11846  21304307.85648
   -555317.77348   -432714.87446         0.00041  22575814.27146  22575812.01848
 94 02 12 17 21 30.0000000  0  7 01 14 15 20 22 25 29
    826812.50648    644268.20644         0.00041  24779561.22944  24779560.22448
   -594134.46848   -462961.52446         0.00041  21151953.80546  21151951.12948
    582339.30548    453770.30246         0.00041  21539558.96846  21539555.35248
    223809.01347    174396.52544         0.00041  25218261.80844  25218261.32847
   -790295.03248   -615813.10944         0.00041  23149638.53244  23149632.44048
    631816.76248    492325.29946         0.00041  21315611.31546  21315608.88148
   -610184.64548   -475468.28246         0.00041  22565373.97546  22565370.53648
 94 02 12 17 22 00.0000000  0  6 01 14 15 22 25 29
    901868.08048    702752.98844         0.00041  24793845.17944  24793843.01748
   -658834.51448   -513377.15746         0.00041  21139642.18046  21139639.11148
    649337.06548    505976.28846         0.00041  21552310.08846  21552304.55648
   -877311.34548   -683617.89944         0.00041  23133085.40744  23133074.38248
    691514.92548    538843.29446         0.00041  21326971.09946  21326969.47048
   -664980.22548   -518166.12845         0.00041  22554946.00245  22554942.53148
 94 02 12 17 22 30.0000000  0  6 01 14 15 22 25 29
    976843.43948    761175.36844         0.00041  24808101.98544  24808109.21848
   -723274.97548   -563590.51046         0.00041  21127379.60746  21127377.03748
    716761.08548    558514.44746         0.00041  21565140.24546  21565135.71948
   -964166.73948   -751297.34345         0.00041  23116550.78845  23116546.12448
    751552.55048    585625.81246         0.00041  21338396.02046  21338393.25048
   -719697.74348   -560803.13945         0.00041  22544532.30945  22544530.20548
 94 02 12 17 23 00.0000000  0  6 01 14 15 22 25 29
   1051839.36747    819613.54144         0.00041  24822380.85444  24822377.75047
   -787350.49748   -613519.50146         0.00041  21115186.47646  21115183.28148
    784699.89948    611453.73446         0.00041  21578068.04346  21578064.60148
  -1050773.49148   -818783.06845         0.00041  23100070.92945  23100064.75648
    812030.19648    632751.19846         0.00041  21349904.36546  21349902.24348
   -774250.45548   -603311.73546         0.00041  22534150.87346  22534149.69948
 94 02 12 17 23 30.0000000  0  6 01 14 15 22 25 29
   1126799.66547    878024.14244         0.00041  24836642.05244  24836640.62247
   -851125.45248   -663214.28246         0.00041  21103050.04946  21103047.99848
    853088.01748    664743.13646         0.00041  21591082.46446  21591077.45848
  -1137214.92848   -886139.94345         0.00041  23083625.32845  23083616.63548
    872891.86748    680175.83046         0.00041  21361486.75746  21361484.19348
   -828682.39948   -645726.23646         0.00041  22523795.38646  22523791.47648
 94 02 12 17 24 00.0000000  0  5 14 15 22 25 29
   -914580.13848   -712659.51846         0.00041  21090975.26246  21090972.58148
    921942.05448    718395.55846         0.00041  21604184.87346  21604179.72348
  -1223479.31648   -953358.86544         0.00041  23067204.08844  23067199.62248
    934164.43448    727920.63946         0.00041  21373146.93146  21373142.94848
   -882973.48148   -688030.96245         0.00041  22513464.23245  22513460.85348
 94 02 12 17 24 30.0000000  0  5 14 15 22 25 29
   -977679.04048   -761827.51146         0.00041  21078968.69046  21078966.31048
    991291.13148    772433.74746         0.00041  21617381.26546  21617376.64748
  -1309528.97148  -1020410.45345         0.00041  23050832.45845  23050824.73948
    995877.54348    776008.74446         0.00041  21384891.18946  21384887.27848
   -937100.74748   -730208.05246         0.00041  22503164.11146  22503160.93048
 94 02 12 17 26 30.0000000  0  3 14 15 25
        -1.01558        -0.16056         0.00051  21031527.38356  21031523.89658
        -1.15658        -0.81456         0.00051  21671013.60756  21671007.82158
        -0.62758        -0.29956         0.00051  21432631.19456  21432628.51658
 94 02 12 17 27 00.0000000  0  3 14 15 25
    -61554.27248    -47963.75146         0.00041  21019814.01946  21019810.71148
     71555.89748     55757.86246         0.00041  21684629.61746  21684625.52548
     63701.48048     49637.65246         0.00041  21444753.61946  21444750.19848
 94 02 12 17 27 30.0000000  0  3 14 15 25
   -123300.79348    -96077.93846         0.00041  21008063.51346  21008061.08848
    143048.41648    111466.26846         0.00041  21698233.86946  21698230.02748
    127266.53848     99168.81646         0.00041  21456849.68046  21456846.69648
 94 02 12 17 28 00.0000000  0  3 14 15 25
   -184540.23748   -143796.97946         0.00041  20996410.65746  20996407.60648
    215180.83448    167673.31046         0.00041  21711960.80846  21711955.63848
    191381.26848    149128.29846         0.00041  21469049.96146  21469047.92048
 94 02 12 17 28 30.0000000  0  4 14 15 25 29
   -245161.20148   -191034.11246         0.00041  20984874.50446  20984871.79848
    288060.01148    224462.22346         0.00041  21725829.00846  21725824.30848
    256144.58448    199593.15846         0.00041  21481374.26546  21481372.33348
        -0.35058        -0.05255         0.00051  22421523.44655  22421520.74958
 94 02 12 17 29 00.0000000  0  5 14 15 22 25 29
   -305471.82248   -238029.41646         0.00041  20973398.51846  20973394.76748
    361374.35948    281590.22446         0.00041  21739780.45746  21739776.18048
         0.17358         1.06755         0.00051  22904933.71055  22904929.42258
    321264.45848    250335.87446         0.00041  21493765.85346  21493763.35948
    -52937.16748    -41249.49546         0.00041  22411450.23446  22411446.41248
 94 02 12 17 29 30.0000000  0  5 14 15 22 25 29
   -365586.05248   -284871.67846         0.00041  20961959.71246  20961955.89348
    435006.74748    338966.04746         0.00041  21753793.25646  21753788.05548
    -84053.44348    -65495.18345         0.00041  22888942.08945  22888934.65348
    386636.69048    301275.24746         0.00041  21506206.25746  21506203.54648
   -105882.04248    -82505.23845         0.00041  22401375.77145  22401370.07048
 94 02 12 17 30 00.0000000  0  6 01 14 15 22 25 29
         0.10558         0.32654         0.00051  25021928.35654  25021926.89458
   -425347.18948   -331438.81446         0.00041  20950586.60346  20950583.01948
    509102.24648    396702.74146         0.00041  21767891.82846  21767888.08648
   -167804.42548   -130755.61045         0.00041  22873002.34145  22872997.07048
    452408.34448    352525.84546         0.00041  21518723.54146  21518718.89848
   -158689.13348   -123653.61945         0.00041  22391326.17045  22391321.34648
 94 02 12 17 30 30.0000000  0  6 01 14 15 22 25 29
     74876.77348     58345.61544         0.00041  25036183.68744  25036175.43548
   -484811.50948   -377774.66646         0.00041  20939271.34846  20939267.73448
    583598.97848    454752.08946         0.00041  21782069.50046  21782064.19048
   -251323.02948   -195835.01145         0.00041  22857110.89345  22857103.95048
    518533.31548    404051.75646         0.00041  21531305.82146  21531302.40148
   -211407.83448   -164733.13446         0.00041  22381295.28746  22381290.51648
 94 02 12 17 31 00.0000000  0  6 01 14 15 22 25 29
    149648.78447    116609.41044         0.00041  25050407.47944  25050402.16447
   -544065.41948   -423946.54046         0.00041  20927995.09346  20927991.30248
    658395.09248    513034.70946         0.00041  21796302.47846  21796296.81648
   -334714.65348   -260815.45945         0.00041  22841239.32445  22841235.19148
    584908.11748    455772.33146         0.00041  21543936.56846  21543933.04548
   -264124.89548   -205811.32946         0.00041  22371260.91646  22371259.71648
 94 02 12 17 31 30.0000000  0  6 01 14 15 22 25 29
    224417.49547    174870.66244         0.00041  25064629.25644  25064630.58947
   -602977.43648   -469852.00546         0.00041  20916783.86846  20916780.46848
    733594.54148    571631.61746         0.00041  21810612.27546  21810606.86548
   -417885.52048   -325623.88845         0.00041  22825415.82745  22825407.37648
    651629.98448    507763.36246         0.00041  21556634.71046  21556629.55848
   -316721.69948   -246795.84146         0.00041  22361250.74646  22361250.03348
 94 02 12 17 32 00.0000000  0  6 01 14 15 22 25 29
    299164.94048    233115.18344         0.00041  25078857.70744  25078856.45148
   -661557.13648   -515498.54146         0.00041  20905637.13946  20905632.79648
    809181.95948    630530.83946         0.00041  21824996.79246  21824991.42448
   -500841.05548   -390264.51444         0.00041  22809628.35144  22809621.37848
    718688.80348    560016.95746         0.00041  21569395.57946  21569391.36748
   -369207.74448   -287694.06446         0.00041  22351264.01046  22351262.31148
 94 02 12 17 32 30.0000000  0  6 01 14 15 22 25 29
    373889.58048    291342.02544         0.00041  25093081.74344  25093078.00148
   -719804.84448   -560886.37446         0.00041  20894553.55746  20894549.83948
    885158.74948    689733.47346         0.00041  21839454.81746  21839449.20248
   -583577.41048   -454734.33045         0.00041  22793880.98745  22793877.08248
    786087.30548    612535.24346         0.00041  21582220.41446  21582216.61748
   -421576.69448   -328501.02346         0.00041  22341299.46346  22341297.62748
 94 02 12 17 33 00.0000000  0  6 01 14 15 22 25 29
    448604.02348    349560.89244         0.00041  25107293.09744  25107293.38648
   -777691.86048   -605993.14546         0.00041  20883537.77846  20883533.81548
    961546.71248    749256.52046         0.00041  21853989.57146  21853984.92448
   -666065.76448   -519010.94544         0.00041  22778188.20944  22778180.06848
    853849.97948    665337.29446         0.00041  21595115.20946  21595110.57048
   -473810.74248   -369202.87646         0.00041  22331360.48146  22331358.96548
 94 02 12 17 33 30.0000000  0  6 01 14 15 22 25 29
    523302.79248    407767.66544         0.00041  25121504.83444  25121507.66848
   -835234.33348   -650831.44846         0.00041  20872587.58746  20872583.86848
   1038345.75648    809099.87346         0.00041  21868603.89446  21868599.81348
   -748302.53148   -583091.47444         0.00041  22762536.36544  22762530.57548
    921978.81248    718424.68646         0.00041  21608078.86046  21608075.12648
   -525913.19648   -409802.19446         0.00041  22321445.78646  22321443.61848
 94 02 12 17 34 00.0000000  0  6 01 14 15 22 25 29
    598042.84948    466006.56944         0.00041  25135733.26744  25135730.90648
   -892403.38648   -695378.77446         0.00041  20861708.09746  20861705.37748
   1115595.73448    869294.61046         0.00041  21883305.05346  21883299.87248
   -830253.04648   -646949.01244         0.00041  22746943.63244  22746935.87448
    990504.88748    771821.58246         0.00041  21621117.78746  21621115.29448
   -577839.33848   -450264.10846         0.00041  22311565.10946  22311561.48648
 94 02 12 17 34 30.0000000  0  6 01 14 15 22 25 29
    672718.97448    524195.66044         0.00041  25149935.12044  25149941.65848
   -949315.73548   -739726.05246         0.00041  20850878.41346  20850875.41548
   1193174.47648    929745.52146         0.00041  21898067.76946  21898062.83148
   -912040.98948   -710679.84345         0.00041  22731378.24945  22731372.54648
   1059307.38248    825433.89146         0.00041  21634210.92646  21634208.11648
   -629708.64848   -490681.73646         0.00041  22301692.17946  22301690.66848
 94 02 12 17 35 00.0000000  0  6 01 14 15 22 25 29
    747593.99748    582539.60744         0.00041  25164188.96144  25164188.68848
  -1005703.62548   -783664.68346         0.00041  20840148.84546  20840145.39448
   1271332.32848    990647.67946         0.00041  21912940.03846  21912935.51848
   -993392.07948   -774070.28245         0.00041  22715896.13645  22715891.74948
   1128629.11048    879450.78046         0.00041  21647403.15146  21647399.18448
   -681269.25548   -530858.81246         0.00041  22291881.18946  22291880.35248
 94 02 12 17 35 30.0000000  0  6 01 14 15 22 25 29
    822420.04447    640845.38044         0.00041  25178428.95944  25178423.79147
  -1061820.06848   -827391.79646         0.00041  20829469.95746  20829466.09648
   1349804.47448   1051794.73046         0.00041  21927874.34146  21927868.26748
  -1074551.08948   -837311.10245         0.00041  22700454.58645  22700448.42748
   1198194.28548    933657.39146         0.00041  21660640.10746  21660637.53148
   -732777.21048   -570994.89846         0.00041  22282080.45246  22282079.47548
 94 02 12 17 36 00.0000000  0  5 14 15 22 25 29
  -1117752.96948   -870975.88946         0.00041  20818826.12846  20818822.34148
   1428487.44148   1113106.08246         0.00041  21942846.16946  21942841.54948
  -1155610.41148   -900474.21145         0.00041  22685029.26145  22685023.24148
   1267900.95848    987974.24146         0.00041  21673905.81546  21673903.07748
   -784328.14848   -611164.43946         0.00041  22272270.26946  22272267.27048
 94 02 12 17 36 30.0000000  0  5 14 15 22 25 29
  -1173403.30448   -914339.80046         0.00041  20808235.99746  20808232.40848
   1507472.80448   1174653.07246         0.00041  21957876.67046  21957872.15848
  -1236463.30648   -963476.45045         0.00041  22669642.91145  22669637.70948
   1337851.34448   1042481.00446         0.00041  21687217.55646  21687214.40148
   -835828.94748   -651294.91946         0.00041  22262471.92146  22262465.97748
 94 02 12 17 37 00.0000000  0  6 01 14 15 22 25 29
         0.21457         0.39554         0.00051  25221047.46554  25221042.87857
  -1228563.00948   -957321.40746         0.00041  20797739.42246  20797735.51148
   1586961.82148   1236592.52746         0.00041  21973003.24346  21972998.49248
  -1316906.91948  -1026159.75445         0.00041  22654335.35145  22654329.66848
   1408240.64148   1097329.76246         0.00041  21700611.13846  21700608.26048
   -887067.89948   -691221.36146         0.00041  22252721.06446  22252716.19848
 94 02 12 17 37 30.0000000  0  6 01 14 15 22 25 29
     74604.57748     58133.30544         0.00041  25235244.91244  25235242.72648
  -1283420.72048  -1000067.67746         0.00041  20787300.47646  20787296.52148
   1666774.05648   1298783.80246         0.00041  21988190.62046  21988185.98748
  -1397140.16948  -1088679.12145         0.00041  22639067.73945  22639062.39548
   1478901.45248   1152390.08546         0.00041  21714059.12446  21714054.65448
   -938216.77048   -731077.62846         0.00041  22242986.95746  22242982.32348
 94 02 12 17 38 00.0000000  0  6 01 14 15 22 25 29
    149013.98448    116114.75544         0.00041  25249406.04944  25249402.21748
  -1338068.52148  -1042650.37046         0.00041  20776901.48046  20776897.56148
   1746809.64748   1361149.13746         0.00041  22003420.36946  22003416.22448
  -1477269.21248  -1151117.28545         0.00041  22623821.22445  22623814.41948
   1549741.56048   1207590.12146         0.00041  21727538.96046  21727534.91948
   -989374.27848   -770940.58146         0.00041  22233250.77946  22233246.15348
 94 02 12 17 38 30.0000000  0  6 01 14 15 22 25 29
    223457.39448    174122.41744         0.00041  25263562.64344  25263568.09148
  -1392281.01948  -1084893.89346         0.00041  20766585.47246  20766581.81948
   1827279.27748   1423852.67846         0.00041  22018734.32846  22018729.40448
  -1557076.78248  -1213304.92845         0.00041  22608633.93545  22608626.03248
   1620979.61648   1263100.25046         0.00041  21741094.50446  21741092.77348
  -1040337.52448   -810652.18346         0.00041  22223554.75946  22223548.77748
 94 02 12 17 39 00.0000000  0  6 01 14 15 22 25 29
    297915.90248    232141.92544         0.00041  25277738.92144  25277739.38048
  -1446099.15648  -1126830.09846         0.00041  20756343.93246  20756340.14048
   1908134.38048   1486856.60546         0.00041  22034120.48646  22034115.85748
  -1636587.96248  -1275261.56345         0.00041  22593499.42145  22593496.19748
   1692562.39048   1318879.01246         0.00041  21754717.05146  21754714.53648
  -1091168.12148   -850260.42546         0.00041  22213881.91146  22213878.46348
 94 02 12 17 39 30.0000000  0  6 01 14 15 22 25 29
    372305.16848    290107.51744         0.00041  25291892.97044  25291896.03048
  -1499599.14348  -1168518.40746         0.00041  20746163.54846  20746159.77248
   1989289.31148   1550094.14346         0.00041  22049563.85146  22049558.67048
  -1715856.39048  -1337029.05945         0.00041  22578416.06245  22578411.58448
   1764411.43048   1374865.22746         0.00041  21768389.04646  21768385.58948
  -1141963.37348   -889841.13046         0.00041  22204215.93446  22204212.02748
 94 02 12 17 40 00.0000000  0  6 01 14 15 22 25 29
    446733.31847    348103.51744         0.00041  25306053.00244  25306055.59447
  -1552673.89348  -1209875.35646         0.00041  20736063.49746  20736060.47148
   2070846.92448   1613645.45746         0.00041  22065084.28346  22065078.67348
  -1794755.12348  -1398508.53045         0.00041  22563403.49445  22563397.76248
   1836629.50348   1431139.01946         0.00041  21782131.83546  21782128.40448
  -1192622.75648   -929315.98846         0.00041  22194574.77246  22194570.30048
 94 02 12 17 40 30.0000000  0  5 14 15 22 25 29
  -1605345.98148  -1250918.54246         0.00041  20726039.95946  20726036.75348
   2152798.72448   1677503.93646         0.00041  22080677.27446  22080673.33048
  -1873275.90348  -1459693.43445         0.00041  22548464.63245  22548454.77548
   1909202.10848   1487689.07046         0.00041  21795941.25946  21795939.30748
  -1243153.56648   -968690.64346         0.00041  22184957.55046  22184954.14148
 94 02 12 17 41 00.0000000  0  6 14 15 18 22 25 29
  -1657579.80648  -1291620.20946         0.00041  20716100.76846  20716096.33648
   2235190.82348   1741705.51946         0.00041  22096357.11846  22096352.48548
        -0.32357        -0.29454         0.00051  24780716.54654  24780719.23157
  -1951367.30448  -1520543.71845         0.00041  22533600.94645  22533595.36548
   1982168.77048   1544546.17246         0.00041  21809824.80046  21809823.82648
  -1293493.37348  -1007916.44446         0.00041  22175379.75246  22175376.46848
 94 02 12 17 41 30.0000000  0  6 14 15 18 22 25 29
  -1709604.92048  -1332159.26946         0.00041  20706200.59546  20706197.30648
   2317789.96648   1806068.43346         0.00041  22112074.24946  22112070.51648
    -78880.55947    -61464.85844         0.00041  24765710.50044  24765707.14647
  -2029286.26648  -1581259.66345         0.00041  22518775.06845  22518767.43848
   2055298.49148   1601530.31946         0.00041  21823743.42346  21823740.41548
  -1343854.50348  -1047158.88846         0.00041  22165796.00646  22165793.65648
 94 02 12 17 42 00.0000000  0  6 14 15 18 22 25 29
  -1761214.60148  -1372374.60446         0.00041  20696379.96046  20696376.11548
   2400800.04448   1870751.53246         0.00041  22127872.15346  22127866.58648
   -157650.02047   -122843.38444         0.00041  24750721.56844  24750718.07047
  -2106847.79548  -1641697.07446         0.00041  22504013.08046  22504008.25848
   2128785.12148   1658792.59846         0.00041  21837727.49746  21837724.87648
  -1394018.53448  -1086247.73346         0.00041  22156250.50946  22156246.54548
 94 02 12 17 44 00.0000000  0  1 29
        -0.04158         0.03856         0.00051  22118319.10256  22118317.11558
 94 02 12 17 44 30.0000000  0  1 29
    -49555.31948    -38614.46246         0.00041  22108889.46046  22108886.22148
 94 02 12 17 45 00.0000000  0  1 29
    -99085.42248    -77209.30546         0.00041  22099463.41246  22099460.89848
 94 02 12 17 45 30.0000000  0  1 29
   -148504.73948   -115717.84546         0.00041  22090058.97646  22090056.68048
 94 02 12 17 46 00.0000000  0  1 29
   -197914.08748   -154218.60646         0.00041  22080656.34346  22080654.31648
 94 02 12 17 46 30.0000000  0  1 29
   -247156.04048   -192588.93746         0.00041  22071285.18246  22071283.16448
 94 02 12 17 47 00.0000000  0  1 29
   -296261.48348   -230852.91545         0.00041  22061946.03645  22061939.62448
 94 02 12 17 47 30.0000000  0  1 29
   -345526.82848   -269241.54544         0.00041  22052564.84244  22052563.79948
 94 02 12 17 48 00.0000000  0  1 29
   -394763.05648   -307607.51744         0.00041  22043192.95144  22043194.07248
 94 02 12 17 48 30.0000000  0  1 29
   -443933.11548   -345921.65744         0.00041  22033840.46144  22033838.45648
 94 02 12 17 49 00.0000000  0  1 29
   -492952.84948   -384118.77644         0.00041  22024510.51244  22024510.63848
 94 02 12 17 49 30.0000000  0  1 29
   -541871.33348   -422237.19244         0.00041  22015206.36544  22015202.91648
 94 02 12 17 50 00.0000000  0  1 29
   -590551.19948   -460169.47344         0.00041  22005940.80544  22005939.52648
 94 02 12 17 50 30.0000000  0  1 29
   -639043.15648   -497955.42544         0.00041  21996703.20044  21996711.45748
 94 02 12 17 51 00.0000000  0  1 29
   -687506.63948   -535719.28444         0.00041  21987477.00944  21987488.41148
 94 02 12 17 51 30.0000000  0  1 29
   -735898.10748   -573426.75744         0.00041  21978279.42044  21978278.99148
 94 02 12 17 52 00.0000000  0  1 29
   -784245.97048   -611100.70544         0.00041  21969079.29244  21969079.74648
 94 02 12 17 52 30.0000000  0  1 29
   -830430.28748   -647088.30944         0.00041  21960286.63744  21960290.72148
 94 02 12 17 53 00.0000000  0  1 29
   -878361.16848   -684436.91345         0.00041  21951170.64845  21951168.64048
 94 02 12 17 53 30.0000000  0  1 29
   -925832.68548   -721427.71346         0.00041  21942136.73046  21942134.30448
 94 02 12 17 54 00.0000000  0  1 29
   -973406.12248   -758497.91546         0.00041  21933083.70646  21933081.98648
 94 02 12 17 54 30.0000000  0  2 22 29
        -0.28258         0.66356         0.00051  22154006.98656  22154006.63358
  -1020819.15348   -795443.13146         0.00041  21924061.95646  21924059.43248
 94 02 12 17 55 00.0000000  0  2 22 29
    -69060.42748    -53812.46545         0.00041  22140866.72245  22140864.73248
  -1068208.98848   -832370.28746         0.00041  21915045.13046  21915041.08048
 94 02 12 17 55 30.0000000  0  2 22 29
   -137814.81148   -107387.29445         0.00041  22127784.84345  22127779.47148
  -1115553.40448   -869262.03546         0.00041  21906035.53046  21906031.27448
 94 02 12 17 56 00.0000000  0  3 15 22 29
        -1.13658        -0.42354         0.00051  22593122.11354  22593113.34958
   -206087.53948   -160586.77245         0.00041  22114794.52945  22114788.96448
  -1162671.37848   -905977.33246         0.00041  21897069.49946  21897065.13348
 94 02 12 17 56 30.0000000  0  3 15 22 29
     91363.96548     71193.07344         0.00041  22610509.18144  22610499.69948
   -273954.31048   -213469.90145         0.00041  22101879.32845  22101873.73148
  -1209636.23548   -942573.32646         0.00041  21888132.80746  21888128.59948
 94 02 12 17 57 00.0000000  0  3 15 22 29
    182973.52948    142577.03244         0.00041  22627936.00744  22627932.54948
   -341418.50848   -266039.36346         0.00041  22089039.72846  22089035.48448
  -1256476.99948   -979072.60246         0.00041  21879218.41346  21879214.41348
 94 02 12 17 57 30.0000000  0  2 22 29
   -408943.76048   -318656.38546         0.00041  22076190.32846  22076186.05948
  -1303689.28548  -1015861.39346         0.00041  21870234.82346  21870229.19348
 94 02 12 17 58 00.0000000  0  2 22 29
   -475703.32948   -370676.79746         0.00041  22063487.32646  22063483.04948
  -1350458.52848  -1052304.94146         0.00041  21861335.45546  21861329.44948
 94 02 12 18 03 30.0000000  0  1 22
        -0.45558         0.33556         0.00051  21930027.53056  21930023.79858
 94 02 12 18 04 00.0000000  0  1 22
    -61817.35548    -48168.64846         0.00041  21918263.63746  21918260.22348
 94 02 12 18 04 30.0000000  0  1 22
   -123174.77148    -95979.57446         0.00041  21906587.69246  21906583.49748
 94 02 12 18 05 00.0000000  0  2 22 29
   -184157.76948   -143498.72446         0.00041  21894985.18646  21894978.59948
        -0.77858        -0.29756         0.00051  21740244.79156  21740242.50558
 94 02 12 18 05 30.0000000  0  4 14 18 22 29
        -0.58359         0.03456         0.00051  20321586.96056  20321582.78559
        -0.19557         0.50254         0.00051  24053546.91454  24053542.15757
   -244325.94548   -190382.95746         0.00041  21883533.63046  21883529.43748
    -44725.20448    -34850.47646         0.00041  21731733.71346  21731730.97148
 94 02 12 18 06 00.0000000  0  6 14 15 18 22 25 29
    -31348.16248    -24426.65546         0.00041  20315621.94646  20315617.42748
        -0.29057        -0.13954         0.00051  22949669.61454  22949666.64557
    -77050.90547    -60039.32144         0.00041  24038873.28144  24038879.15647
   -304201.19248   -237038.96046         0.00041  21872139.48346  21872136.46648
        -1.10758        -0.59455         0.00051  22566337.99155  22566332.76858
    -89456.73348    -69706.20146         0.00041  21723222.42546  21723218.56648
 94 02 12 18 06 30.0000000  0  6 14 15 18 22 25 29
    -62211.17548    -48475.76246         0.00041  20309748.21846  20309744.57948
     95674.90147     74551.49944         0.00041  22967866.87544  22967874.28847
   -154085.61247   -120066.09144         0.00041  24024213.11544  24024218.10847
   -363665.11148   -283374.48046         0.00041  21860825.04246  21860821.32848
     85228.92448     66412.39345         0.00041  22582557.08645  22582551.12848
   -134067.66348   -104467.95046         0.00041  21714732.65946  21714729.90748
 94 02 12 18 07 00.0000000  0  6 14 15 18 22 25 29
    -92612.85149    -72165.38346         0.00041  20303963.60046  20303959.71549
    191505.08147    149224.10544         0.00041  22986114.46944  22986110.47747
   -231115.02847   -180088.93944         0.00041  24009561.72644  24009560.31747
   -422732.12048   -329400.69346         0.00041  21849585.01346  21849581.17548
    170614.84648    132946.82946         0.00041  22598804.66546  22598800.05048
   -178585.37548   -139157.06846         0.00041  21706260.33346  21706257.31248
 94 02 12 18 07 30.0000000  0  3 14 22 29
   -122528.53448    -95476.30946         0.00041  20298270.61946  20298267.04348
   -481347.72548   -375075.17846         0.00041  21838430.29346  21838426.63748
   -222995.37448   -173762.26746         0.00041  21697808.71846  21697804.91348
 94 02 12 18 08 00.0000000  0  3 14 22 29
   -151816.06448   -118297.75946         0.00041  20292697.46046  20292693.73848
   -539350.37748   -420272.03446         0.00041  21827394.54446  21827388.88948
   -267130.05448   -208152.91046         0.00041  21689411.36546  21689407.67948
 94 02 12 18 08 30.0000000  0  3 14 22 29
   -180811.71749   -140891.77646         0.00041  20287179.67546  20287175.84349
   -597079.98148   -465256.11346         0.00041  21816408.43546  21816403.19848
   -311323.63748   -242589.46346         0.00041  21681002.57646  21680998.78048
 94 02 12 18 09 00.0000000  0  4 14 18 22 29
   -209298.24548   -163089.07446         0.00041  20281758.27146  20281754.40548
        -0.57257         0.00154         0.00051  23951051.22954  23951051.48757
   -654313.52448   -509853.63946         0.00041  21805517.72046  21805511.11348
   -355364.47248   -276906.98346         0.00041  21672621.77046  21672617.53648
 94 02 12 18 09 30.0000000  0  4 14 18 22 29
   -237313.82749   -184919.41146         0.00041  20276427.36646  20276423.62549
    -76802.29147    -59845.43244         0.00041  23936435.63244  23936432.98347
   -711083.55648   -554089.96446         0.00041  21794713.37746  21794707.51048
   -399279.51048   -311126.47246         0.00041  21664264.57846  21664259.49648
 94 02 12 18 10 00.0000000  0  5 14 18 22 25 29
   -264793.24749   -206331.95046         0.00041  20271197.87646  20271194.57449
   -153511.71547   -119618.68244         0.00041  23921840.69044  23921836.83347
   -767329.44548   -597917.89346         0.00041  21784010.35846  21784005.03748
         0.05458         0.17955         0.00051  22697026.94155  22697024.85858
   -443000.99048   -345195.13346         0.00041  21655944.41546  21655939.25148
 94 02 12 18 10 30.0000000  0  5 14 18 22 25 29
   -291792.36749   -227370.22446         0.00041  20266060.89246  20266057.29449
   -230184.91647   -179363.27444         0.00041  23907258.59244  23907247.29947
   -823108.20248   -641381.80646         0.00041  21773395.29346  21773390.34248
     86662.08248     67528.97145         0.00041  22713519.57845  22713515.38248
   -486600.71448   -379168.93346         0.00041  21647647.49546  21647644.00748
 94 02 12 18 11 00.0000000  0  5 14 18 22 25 29
   -318369.89049   -248079.97446         0.00041  20261003.08646  20260999.58549
   -306863.44247   -239112.62444         0.00041  23892647.59344  23892655.36547
   -878469.75548   -684520.64246         0.00041  21762859.77746  21762855.82748
    173433.65948    135143.17945         0.00041  22730032.77445  22730027.26848
   -530122.37048   -413081.89846         0.00041  21639366.89546  21639363.97648
 94 02 12 18 11 30.0000000  0  5 14 18 22 25 29
   -344530.75249   -268465.06646         0.00041  20256024.70646  20256021.01949
   -383551.06547   -298869.19644         0.00041  23878061.33044  23878058.12447
   -933424.59048   -727342.55846         0.00041  21752402.95446  21752399.30548
    260297.67748    202829.35345         0.00041  22746560.65045  22746557.47948
   -573580.90548   -446945.67846         0.00041  21631096.08346  21631094.49248
 94 02 12 18 12 00.0000000  0  5 14 15 22 25 29
   -370238.37348   -288496.99346         0.00041  20251132.56446  20251128.84248
        -0.25557         0.42854         0.00051  23170213.23854  23170209.36357
   -987958.52948   -769836.52146         0.00041  21742025.62446  21742022.61148
    347276.37048    270604.91345         0.00041  22763109.39445  22763109.49048
   -616969.65548   -480755.08746         0.00041  21622839.85046  21622836.62548
 94 02 12 18 12 30.0000000  0  5 14 15 22 25 29
   -395473.27949   -308160.56346         0.00041  20246330.96646  20246327.17549
     97459.47247     75942.81144         0.00041  23188767.63144  23188758.32047
  -1042072.94848   -812003.58846         0.00041  21731728.95746  21731723.99548
    434378.44348    338476.59245         0.00041  22779688.00845  22779685.31848
   -660270.04948   -514495.63846         0.00041  21614599.20446  21614595.40148
 94 02 12 18 13 00.0000000  0  6 14 15 18 22 25 29
   -420024.44249   -327291.34046         0.00041  20241659.08746  20241655.38649
    195224.20247    152122.93044         0.00041  23207355.32644  23207360.64547
        -0.28458         0.05454         0.00051  23834334.04154  23834331.90258
  -1095551.12948   -853674.85246         0.00041  21721551.55646  21721546.03448
    521802.59048    406599.26345         0.00041  22796323.63945  22796321.76248
   -703287.71748   -548015.89546         0.00041  21606413.67146  21606409.74048
 94 02 12 18 13 30.0000000  0  6 14 15 18 22 25 29
   -444117.42249   -346065.09646         0.00041  20237073.97646  20237070.36049
    293062.41747    228360.22744         0.00041  23225974.34744  23225976.97947
    -76506.75448    -59615.32344         0.00041  23819770.55244  23819772.76548
  -1148593.74648   -895006.69746         0.00041  21711458.09146  21711452.50648
    609323.80948    474797.57845         0.00041  22812981.05945  22812976.77648
   -746261.70848   -581502.10546         0.00041  21598234.51446  21598233.00848
 94 02 12 18 14 00.0000000  0  6 14 15 18 22 25 29
   -467725.59648   -364461.08246         0.00041  20232581.72246  20232577.75248
    390992.66947    304668.51044         0.00041  23244617.78744  23244614.55347
   -153023.91248   -119239.05644         0.00041  23805210.83644  23805209.79648
  -1201173.94848   -935978.23646         0.00041  21701450.70546  21701447.62148
    696965.09448    543089.43946         0.00041  22829658.04246  22829653.77748
   -789168.39648   -614935.88546         0.00041  21590069.88146  21590067.88348
 94 02 12 18 14 30.0000000  0  6 14 15 18 22 25 29
   -490835.45448   -382468.77646         0.00041  20228183.52946  20228179.95948
    489041.93247    381070.59544         0.00041  23263270.69544  23263270.99347
   -229524.10347   -178850.04044         0.00041  23790656.57244  23790650.76247
  -1253246.31848   -976554.09346         0.00041  21691542.03346  21691538.34648
    784758.54548    611499.89245         0.00041  22846364.68745  22846359.97948
   -831980.00148   -648295.56846         0.00041  21581923.07346  21581920.45248
 94 02 12 18 15 00.0000000  0  6 14 15 18 22 25 29
   -513447.98449   -400088.93446         0.00041  20223881.06646  20223877.46549
    587221.89147    457574.23844         0.00041  23281966.12244  23281954.92447
   -305977.37048   -238424.33544         0.00041  23776109.10944  23776102.23948
  -1304789.96648  -1016717.95846         0.00041  21681733.91946  21681729.85748
    872714.99348    680037.35545         0.00041  22863102.11145  22863098.74048
   -874698.38948   -681582.61846         0.00041  21573794.38946  21573791.16248
 94 02 12 18 15 30.0000000  0  6 14 15 18 22 25 29
   -535564.42149   -417322.52546         0.00041  20219672.76746  20219668.87549
    685534.33547    534181.68144         0.00041  23300670.62544  23300664.73447
   -382367.98448   -297949.55144         0.00041  23761574.10844  23761567.48648
  -1355823.54448  -1056484.35146         0.00041  21672022.81946  21672018.35048
    960844.81848    748709.91645         0.00041  22879871.42845  22879868.21348
   -917298.46848   -714777.48046         0.00041  21565688.54146  21565684.96548
 94 02 12 18 16 00.0000000  0  5 14 18 22 25 29
   -557117.97249   -434117.50046         0.00041  20215571.17346  20215567.73249
   -458650.17448   -357390.13944         0.00041  23747050.93544  23747051.67848
  -1406304.45648  -1095820.07946         0.00041  21662417.22846  21662411.33748
   1049210.83248    817566.47745         0.00041  22896688.98445  22896682.73348
   -959704.37548   -747821.03846         0.00041  21557618.02946  21557615.49948
 94 02 12 18 16 30.0000000  0  6 04 14 18 22 25 29
        -0.41257        -0.30054         0.00051  25427557.19354  25427557.81057
   -578179.35149   -450528.97446         0.00041  20211562.96846  20211559.20249
   -534870.08048   -416782.25344         0.00041  23732552.39844  23732547.93548
  -1456294.01048  -1134772.94146         0.00041  21652903.66446  21652898.85148
   1137750.47948    886558.38245         0.00041  22913536.05245  22913531.68948
  -1001965.73248   -780751.95846         0.00041  21549576.17646  21549573.70148
 94 02 12 18 17 00.0000000  0  6 04 14 18 22 25 29
    -61557.76847    -47966.90844         0.00041  25415849.77844  25415845.53247
   -598886.66348   -466664.54146         0.00041  20207622.91546  20207618.36448
   -611167.23848   -476234.51644         0.00041  23718032.19644  23718029.62048
  -1505950.76948  -1173466.50246         0.00041  21643452.62446  21643448.88448
   1226312.06848    955567.34845         0.00041  22930389.90945  22930385.36548
  -1044219.07548   -813676.61846         0.00041  21541536.56146  21541533.52848
 94 02 12 18 17 30.0000000  0  6 04 14 18 22 25 29
   -122751.97347    -95650.79444         0.00041  25404203.44144  25404199.88647
   -619127.75649   -482436.81846         0.00041  20203770.82046  20203766.93649
   -687444.86948   -535671.58344         0.00041  23703520.82944  23703515.99248
  -1555176.57348  -1211824.23446         0.00041  21634087.84746  21634082.67848
   1314993.53048   1024669.72645         0.00041  22947264.18345  22947261.51748
  -1086346.46548   -846503.16246         0.00041  21533520.19046  21533517.19148
 94 02 12 18 18 00.0000000  0  6 14 15 18 22 25 29
   -638844.40349   -497800.44146         0.00041  20200018.78546  20200015.30049
        -0.64857        -0.01154         0.00051  23394533.99954  23394537.78157
   -763652.07748   -595053.77544         0.00041  23689016.90844  23689011.12448
  -1603903.43148  -1249793.19046         0.00041  21624815.26746  21624811.09748
   1403832.04848   1093894.49045         0.00041  22964168.47045  22964167.44648
  -1128308.96448   -879201.21446         0.00041  21525534.61146  21525532.43548
 94 02 12 18 18 30.0000000  0  6 14 15 18 22 25 29
   -658115.45349   -512816.84446         0.00041  20196351.98846  20196348.67549
     98875.05647     77045.99044         0.00041  23413357.54844  23413355.23347
   -839858.90448   -654435.65244         0.00041  23674514.31544  23674507.76048
  -1652219.17848  -1287441.78846         0.00041  21615620.09546  21615616.34148
   1492726.34848   1163162.70645         0.00041  22981085.51845  22981083.09448
  -1170188.14648   -911834.32946         0.00041  21517565.13646  21517562.86248
 94 02 12 18 19 00.0000000  0  6 14 15 18 22 25 29
   -676696.90649   -527295.89746         0.00041  20192816.40346  20192812.08149
    198017.48447    154299.75344         0.00041  23432226.61344  23432219.56547
   -915845.25848   -713645.75944         0.00041  23660050.28644  23660048.81648
  -1699878.64148  -1324579.04046         0.00041  21606549.08746  21606546.54648
   1581903.09848   1232650.99345         0.00041  22998053.00945  22998051.10848
  -1211754.63148   -944223.78746         0.00041  21509655.03646  21509651.73148
 94 02 12 18 19 30.0000000  0  6 04 14 18 22 25 29
        -1.16257        -0.26254         0.00051  25358448.86454  25358448.12357
   -694739.69348   -541355.21346         0.00041  20189382.37246  20189378.40648
   -991780.85148   -772816.29545         0.00041  23645605.33845  23645600.73948
  -1747027.24648  -1361318.20146         0.00041  21597578.48146  21597575.19448
   1671199.48348   1302232.52545         0.00041  23015046.62345  23015044.49948
  -1253179.74848   -976503.08446         0.00041  21501772.52146  21501768.63048
 94 02 12 18 20 00.0000000  0  6 04 14 18 22 25 29
    -59030.86947    -45997.04644         0.00041  25347214.04544  25347212.64647
   -712319.25349   -555053.56546         0.00041  20186036.79046  20186033.20449
  -1067731.59748   -831998.64945         0.00041  23631148.87945  23631148.89148
  -1793720.93548  -1397702.85846         0.00041  21588695.28046  21588689.06748
   1760542.15548   1371850.08645         0.00041  23032047.85345  23032047.97048
  -1294553.01848  -1008741.96646         0.00041  21493899.29746  21493896.53848
 94 02 12 18 20 30.0000000  0  5 14 18 22 25 29
   -729368.42049   -568338.63546         0.00041  20182792.58246  20182789.10049
  -1143642.92148   -891150.27044         0.00041  23616708.49744  23616702.18348
  -1839881.35448  -1433671.98646         0.00041  21579910.60546  21579904.87748
   1850003.01148   1441559.82445         0.00041  23049073.58645  23049072.83548
  -1335810.03548  -1040890.28146         0.00041  21486048.75646  21486045.23648
 94 02 12 18 21 00.0000000  0  5 14 18 22 25 29
   -746034.14449   -581324.91146         0.00041  20179621.63546  20179617.51749
  -1219680.09748   -950399.98944         0.00041  23602240.41744  23602229.53348
  -1885638.20248  -1469326.64046         0.00041  21571202.45446  21571198.01148
   1939430.26948   1511243.31645         0.00041  23066092.16945  23066088.77748
  -1377130.31548  -1073087.87846         0.00041  21478185.48546  21478181.68248
 94 02 12 18 21 30.0000000  0  5 14 18 22 25 29
   -762007.60249   -593771.76346         0.00041  20176581.60046  20176577.89149
  -1295523.43148  -1009498.55544         0.00041  23587804.89544  23587794.53448
  -1930686.55948  -1504429.23046         0.00041  21562629.89346  21562625.21148
   2029138.47848   1581145.73545         0.00041  23083162.25045  23083155.52948
  -1418203.38148  -1105092.84246         0.00041  21470369.36746  21470366.68148
 94 02 12 18 22 00.0000000  0  6 04 14 18 22 25 29
        -0.58257         0.34854         0.00051  25303110.65054  25303114.13557
   -777403.48849   -605768.55246         0.00041  20173651.96846  20173648.39349
  -1371279.91748  -1068529.56444         0.00041  23573390.25444  23573382.18748
  -1975151.68348  -1539077.33646         0.00041  21554168.36546  21554163.80248
   2119021.12948   1651184.16544         0.00041  23100268.54444  23100257.28948
  -1459124.98548  -1136979.78146         0.00041  21462583.00446  21462580.34448
 94 02 12 18 22 30.0000000  0  6 04 14 18 22 25 29
    -56787.78847    -44249.54744         0.00041  25292319.10444  25292306.88647
   -792282.71349   -617362.76546         0.00041  20170820.56446  20170816.75449
  -1447013.42948  -1127542.62845         0.00041  23558974.21145  23558972.17548
  -2019104.66548  -1573326.38546         0.00041  21545804.55846  21545798.81748
   2209021.41248   1721314.22345         0.00041  23117393.36745  23117386.26948
  -1499944.43248  -1168787.13146         0.00041  21454814.75146  21454811.57648
 94 02 12 18 23 00.0000000  0  7 04 14 15 18 22 25 29
   -113172.55947    -88185.88344         0.00041  25281582.15444  25281576.22647
   -806645.27049   -628554.37146         0.00041  20168087.69946  20168083.84549
         0.25957         0.84454         0.00051  23583677.62954  23583675.70957
  -1522700.07148  -1186519.20145         0.00041  23544572.16545  23544569.37948
  -2062549.13548  -1607179.14546         0.00041  21537538.46246  21537531.98048
   2299163.97348   1791555.15845         0.00041  23134547.80545  23134541.19848
  -1540642.54848  -1200499.93046         0.00041  21447070.06246  21447066.16648
 94 02 12 18 23 30.0000000  0  7 04 14 15 18 22 25 29
   -169267.75547   -131896.27244         0.00041  25270902.36144  25270901.28547
   -820615.68949   -639440.41646         0.00041  20165428.66246  20165425.28649
     99749.01147     77727.10344         0.00041  23602648.40944  23602656.20647
  -1598436.20048  -1245534.28445         0.00041  23530159.90845  23530155.60948
  -2105614.86548  -1640736.81646         0.00041  21529341.79046  21529337.39948
   2389362.60348   1861839.76045         0.00041  23151709.76045  23151706.01648
  -1581297.21248  -1232178.87446         0.00041  21439334.08446  21439329.46648
 94 02 12 18 24 00.0000000  0  7 04 14 15 18 22 25 29
   -224955.68347   -175289.46944         0.00041  25260306.69844  25260303.26447
   -834071.35049   -649925.34546         0.00041  20162868.31946  20162864.74349
    199564.00147    155504.93044         0.00041  23621647.78644  23621653.00247
  -1674117.85248  -1304506.95845         0.00041  23515756.85445  23515754.93148
  -2148177.94648  -1673902.84046         0.00041  21521239.98846  21521237.87648
   2479719.06248   1932247.34545         0.00041  23168905.57745  23168902.34248
  -1621801.22248  -1263740.44146         0.00041  21431625.88146  21431622.12448
 94 02 12 18 24 30.0000000  0  6 04 14 18 22 25 29
   -280254.62547   -218379.58844         0.00041  25249777.14544  25249783.58747
   -847035.19749   -660027.05646         0.00041  20160401.65946  20160397.82649
  -1749777.67148  -1363462.65545         0.00041  23501360.31745  23501358.67148
  -2190245.81348  -1706682.99146         0.00041  21513236.58346  21513232.39048
   2570187.23048   2002741.94045         0.00041  23186121.08745  23186119.28948
  -1662196.22848  -1295217.06146         0.00041  21423938.99046  21423935.69748
 94 02 12 18 26 00.0000000  0  2 22 25
        -0.61258         0.09256         0.00051  21489806.40356  21489801.78358
        -0.71758        -0.56955         0.00051  23237860.39655  23237859.62658
 94 02 12 18 26 30.0000000  0  4 04 22 25 29
        -0.72957        -0.10454         0.00051  25208522.32454  25208520.21157
    -39938.19848    -31120.04046         0.00041  21482208.01646  21482200.81748
     90785.31048     70741.66545         0.00041  23255137.21145  23255136.69248
        -0.24658         0.02856         0.00051  21393414.62656  21393411.78458
 94 02 12 18 27 00.0000000  0  5 04 14 22 25 29
    -52990.18648    -41290.51544         0.00041  25198438.20144  25198440.77348
        -0.38958        -0.36356         0.00051  20149614.41956  20149610.61958
    -79317.86448    -61805.47346         0.00041  21474715.10146  21474708.17048
    181675.20048    141564.90345         0.00041  23272433.25545  23272433.33648
    -39715.37648    -30946.80446         0.00041  21385857.28946  21385853.99548
 94 02 12 18 27 30.0000000  0  4 14 22 25 29
    -10079.54648     -7854.27846         0.00041  20147695.88146  20147692.91348
   -118600.47348    -92415.29246         0.00041  21467237.78746  21467233.95648
    272213.68148    212114.19644         0.00041  23289661.77244  23289661.68248
    -79722.80548    -62121.43146         0.00041  21378244.00946  21378240.33248
 94 02 12 18 28 00.0000000  0  4 14 22 25 29
    -19039.61449    -14836.13746         0.00041  20145991.67546  20145988.54949
   -156759.23448   -122149.37746         0.00041  21459976.34846  21459971.75948
    363439.05348    283198.87244         0.00041  23307021.58744  23307020.14148
   -119004.17348    -92730.27746         0.00041  21370769.51446  21370766.25648
 94 02 12 18 28 30.0000000  0  6 04 14 18 22 25 29
        -0.07957         0.84154         0.00051  25168847.79854  25168843.25557
    -26524.83548    -20668.78146         0.00041  20144567.41046  20144563.15348
        -0.40458         0.01155         0.00051  23386670.44655  23386666.13258
   -193453.78248   -150742.53246         0.00041  21452992.77446  21452989.13548
    455723.04848    355108.44244         0.00041  23324583.91944  23324580.69248
   -157215.59148   -122505.40146         0.00041  21363497.77346  21363495.16648
 94 02 12 18 29 00.0000000  0  4 14 18 22 29
    -34378.99448    -26788.91446         0.00041  20143072.06146  20143068.58348
    -74995.77348    -58437.87445         0.00041  23372399.50645  23372397.04448
   -230514.62948   -179621.10346         0.00041  21445938.94446  21445936.77748
   -196222.70548   -152900.56246         0.00041  21356075.94146  21356072.52448
 94 02 12 18 29 30.0000000  0  5 04 14 18 22 29
         0.13757         0.68254         0.00051  25149305.49154  25149304.11257
    -42621.47448    -33211.62946         0.00041  20141503.91446  20141500.46248
   -150864.45148   -117556.28945         0.00041  23357963.72545  23357959.31148
   -267941.57748   -208784.95746         0.00041  21438818.23746  21438814.56948
   -236044.77648   -183930.73446         0.00041  21348496.92646  21348494.72848
 94 02 12 18 30 00.0000000  0  5 04 14 18 22 29
    -51785.24447    -40351.63844         0.00041  25139452.87444  25139448.56547
    -50953.90349    -39704.42746         0.00041  20139918.38146  20139915.13349
   -227312.78548   -177126.34445         0.00041  23343416.14745  23343408.85148
   -305428.33748   -237995.39746         0.00041  21431684.96446  21431681.06948
   -276376.81948   -215358.30146         0.00041  21340822.19446  21340820.05648
 94 02 12 18 30 30.0000000  0  5 04 14 18 22 29
   -101895.63047    -79398.47944         0.00041  25129916.94244  25129912.69347
    -57528.73649    -44827.68446         0.00041  20138667.38346  20138663.71949
   -302493.51548   -235708.67445         0.00041  23329104.51545  23329103.51848
   -341122.29848   -265808.85246         0.00041  21424893.89446  21424889.00748
   -315372.07248   -245744.21546         0.00041  21333401.99346  21333399.44848
 94 02 12 18 31 00.0000000  0  5 04 14 18 22 29
   -150846.49248   -117542.17944         0.00041  25120608.04744  25120600.16848
    -62876.17749    -48994.52346         0.00041  20137649.89346  20137646.25949
   -376923.89248   -293706.34345         0.00041  23314946.76245  23314943.19548
   -375536.55048   -292625.10046         0.00041  21418345.12446  21418339.37548
   -353552.55248   -275495.22146         0.00041  21326135.85746  21326133.55048
 94 02 12 18 31 30.0000000  0  5 04 14 18 22 29
   -199032.25648   -155089.77044         0.00041  25111427.89844  25111432.32548
    -67380.73849    -52504.57946         0.00041  20136793.08046  20136788.87249
   -450992.51748   -351422.07145         0.00041  23300853.07645  23300849.92248
   -409072.63148   -318757.08746         0.00041  21411961.91246  21411957.73048
   -391284.79648   -304896.96046         0.00041  21318955.93646  21318952.87748
 94 02 12 18 32 00.0000000  0  5 04 14 18 22 29
   -247314.14948   -192711.84344         0.00041  25102254.23444  25102243.22548
    -71896.67249    -56023.49246         0.00041  20135933.40746  20135929.72149
   -525561.37348   -409527.64745         0.00041  23286661.63445  23286658.39948
   -442594.85948   -344878.28746         0.00041  21405584.02046  21405579.84048
   -429430.23248   -334620.66846         0.00041  21311696.49646  21311693.48848
 94 02 12 18 32 30.0000000  0  5 04 14 18 22 29
   -295350.99347   -230143.05344         0.00041  25093100.67444  25093101.06647
    -76087.86449    -59289.36746         0.00041  20135135.75546  20135131.95349
   -600301.75948   -467766.85044         0.00041  23272438.69044  23272431.70248
   -475785.54348   -370741.14646         0.00041  21399266.71546  21399263.37048
   -467662.32148   -364411.90246         0.00041  21304421.30946  21304418.10848
 94 02 12 18 33 00.0000000  0  5 04 14 18 22 29
   -342997.09547   -267269.95244         0.00041  25084040.39344  25084033.94647
    -79796.07849    -62178.89546         0.00041  20134429.94846  20134426.50149
   -675075.65748   -526032.11744         0.00041  23258210.21344  23258202.27048
   -508497.00448   -396230.58346         0.00041  21393041.56446  21393038.28548
   -505825.25548   -394149.24746         0.00041  21297159.85846  21297156.76448
 94 02 12 18 33 30.0000000  0  5 04 14 18 22 29
   -390191.86847   -304045.05144         0.00041  25075057.14844  25075052.62147
    -82962.42549    -64646.19246         0.00041  20133827.89346  20133824.00849
   -749832.35848   -584284.07545         0.00041  23243984.89545  23243979.69448
   -540686.09448   -421312.96946         0.00041  21386917.66846  21386913.74148
   -543859.43448   -423786.26946         0.00041  21289921.72146  21289919.53848
 94 02 12 18 34 00.0000000  0  5 04 14 18 22 29
   -436940.75247   -340472.89744         0.00041  25066159.80744  25066156.22247
    -85595.94949    -66698.30746         0.00041  20133326.89146  20133322.90249
   -824580.63048   -642529.47245         0.00041  23229763.62945  23229755.59548
   -572362.02348   -445995.50446         0.00041  21380889.92346  21380885.84248
   -581786.59748   -453339.89746         0.00041  21282705.23346  21282702.17648
 94 02 12 18 35 30.0000000  0  2 18 29
        -0.11958         0.12154         0.00051  23187257.52254  23187256.56558
        -0.65258        -0.39856         0.00051  21261338.39356  21261335.41258
 94 02 12 18 36 00.0000000  0  5 04 14 18 22 29
        -0.50958        -0.50254         0.00051  25031594.15354  25031588.19858
         0.03859         0.70556         0.00051  20132512.74056  20132509.09859
    -74439.26148    -58004.37045         0.00041  23173092.54145  23173092.75448
        -0.24958         0.07456         0.00051  21357975.62056  21357971.49758
    -37268.93148    -29040.60546         0.00041  21254245.90646  21254243.57548
 94 02 12 18 38 00.0000000  0  2 14 25
        -0.54859         0.42756         0.00051  20133203.25556  20133199.07659
        -0.24358         0.12954         0.00051  23657608.66454  23657603.42958
 94 02 12 18 38 30.0000000  0  2 14 25
      2373.73748      1850.50946         0.00041  20133654.60846  20133650.90548
     92898.68348     72388.89644         0.00041  23675285.75844  23675284.71048
 94 02 12 18 39 00.0000000  0  2 14 25
      5352.12548      4171.32346         0.00041  20134221.63846  20134217.93248
    185896.59548    144854.72344         0.00041  23692990.02344  23692981.98848
 94 02 12 18 39 30.0000000  0  2 14 25
      8821.84049      6874.98546         0.00041  20134881.96046  20134878.41449
    278865.85648    217298.23144         0.00041  23710675.42344  23710673.07748
 94 02 12 18 40 00.0000000  0  2 14 25
     12941.76248     10085.30246         0.00041  20135666.03446  20135661.32148
    371959.78748    289838.87145         0.00041  23728392.65845  23728388.96348
 94 02 12 18 40 30.0000000  0  3 04 14 25
        -1.04558        -0.62954         0.00051  24958798.27954  24958801.31758
     17641.64648     13747.53346         0.00041  20136560.64846  20136556.24548
    465102.78148    362417.71545         0.00041  23746119.03345  23746114.39148
 94 02 12 18 41 00.0000000  0  3 04 14 25
    -40051.10948    -31208.56044         0.00041  24951179.98544  24951181.40648
     22906.81349     17850.25646         0.00041  20137561.78346  20137558.48849
    558274.98948    435019.33545         0.00041  23763847.75245  23763844.37748
 94 02 12 18 41 30.0000000  0  3 04 14 25
    -79734.00447    -62130.30844         0.00041  24943637.31044  24943626.36747
     28645.65848     22322.06646         0.00041  20138654.14046  20138650.30148
    651402.71748    507586.29145         0.00041  23781568.54945  23781564.85948
 94 02 12 18 42 00.0000000  0  1 14
     35026.21148     27293.91546         0.00041  20139868.60946  20139865.23148
 94 02 12 18 42 30.0000000  0  1 14
     41697.09848     32491.99446         0.00041  20141138.66146  20141134.17248
 94 02 12 18 45 00.0000000  0  1 29
         0.03858         0.68156         0.00051  21130973.89056  21130970.23358
 94 02 12 18 45 30.0000000  0  1 29
    -34724.67548    -27057.53946         0.00041  21124365.86946  21124362.54948
 94 02 12 18 46 00.0000000  0  3 04 22 29
        -0.39757         0.44954         0.00051  24879563.86054  24879553.80757
        -0.00258         0.26356         0.00051  21269274.24156  21269269.96158
    -69283.15248    -53986.22246         0.00041  21117790.13346  21117786.01948
 94 02 12 18 46 30.0000000  0  5 04 18 22 25 29
    -35009.14747    -27279.35244         0.00041  24872888.92544  24872891.76247
        -1.21958        -0.49455         0.00051  22877893.49955  22877887.92058
    -17269.71348    -13456.63046         0.00041  21265988.74846  21265983.18548
         0.26057         0.37754         0.00051  23959238.47754  23959247.85657
   -103742.86748    -80837.94346         0.00041  21111232.35946  21111228.78448
 94 02 12 18 47 00.0000000  0  6 04 14 18 22 25 29
    -69542.49947    -54188.53744         0.00041  24866323.20044  24866321.35847
         0.08659         0.08956         0.00051  20157633.04756  20157629.43759
    -73376.95548    -57176.28845         0.00041  22863930.97245  22863925.45848
    -34002.54448    -26495.19446         0.00041  21262803.24946  21262800.21848
     93479.29747     72840.91144         0.00041  23977042.62544  23977035.38647
   -138088.76348   -107600.97946         0.00041  21104696.76446  21104693.10848
 94 02 12 18 47 30.0000000  0  6 04 14 18 22 25 29
   -103707.92248    -80810.78244         0.00041  24859823.37144  24859823.70348
     12235.11649      9533.86646         0.00041  20159961.23746  20159957.49449
   -146796.28048   -114386.12945         0.00041  22849959.76645  22849959.35948
    -50298.59248    -39193.42646         0.00041  21259703.93846  21259699.42448
    186868.03447    145611.46744         0.00041  23994815.45944  23994805.13947
   -172419.84948   -134352.47946         0.00041  21098163.76146  21098160.43748
 94 02 12 18 48 00.0000000  0  6 04 14 18 22 25 29
   -137478.88248   -107125.83944         0.00041  24853399.64344  24853396.53148
     24958.46549     19448.16346         0.00041  20162382.76946  20162379.06749
   -220215.91948   -171596.22145         0.00041  22835988.97745  22835989.37448
    -66116.42448    -51518.98746         0.00041  21256693.79846  21256688.97948
    280187.56147    218327.89944         0.00041  24012564.60044  24012562.78747
   -206686.80148   -161054.00846         0.00041  21091642.71246  21091639.72248
 94 02 12 18 48 30.0000000  0  5 14 18 22 25 29
     38380.97649     29907.24546         0.00041  20164937.13146  20164933.27049
   -293421.02048   -228639.13645         0.00041  22822060.67745  22822055.71448
    -81237.03948    -63301.27546         0.00041  21253816.83146  21253811.19048
    373644.16947    291151.27144         0.00041  24030357.14144  24030348.88547
   -240667.74348   -187532.66246         0.00041  21085175.18046  21085173.20148
 94 02 12 18 49 00.0000000  0  5 14 18 22 25 29
     52372.64548     40809.82746         0.00041  20167599.35046  20167595.02848
   -366534.36648   -285610.54444         0.00041  22808148.42944  22808137.30148
    -95759.40748    -74617.39746         0.00041  21251052.65446  21251048.94848
    467121.57347    363990.57244         0.00041  24048146.28144  24048138.75847
   -274462.97648   -213866.62346         0.00041  21078745.69446  21078742.14848
 94 02 12 18 49 30.0000000  0  5 14 18 22 25 29
     67001.25848     52208.69945         0.00041  20170383.88245  20170379.43448
   -439495.94347   -342463.84844         0.00041  22794256.58344  22794254.92647
   -109578.27448    -85385.39045         0.00041  21248423.89745  21248418.82748
    560701.11147    436909.46644         0.00041  24065948.09444  24065947.72747
   -307998.17048   -239997.93745         0.00041  21072363.61545  21072360.25548
 94 02 12 18 50 30.0000000  0  1 29
        -0.21458        -0.07854         0.00051  21059772.31854  21059768.69658
 94 02 12 18 51 00.0000000  0  2 25 29
        -0.73057        -0.20354         0.00051  24119479.06354  24119481.81857
    -32919.63548    -25651.55045         0.00041  21053503.78145  21053504.69248
 94 02 12 18 51 30.0000000  0  3 22 25 29
         0.06758         0.17454         0.00051  21239233.26654  21239230.50658
     93787.52747     73081.77144         0.00041  24137331.98044  24137330.74347
    -65668.61548    -51170.28744         0.00041  21047275.85444  21047272.80248
 94 02 12 18 52 00.0000000  0  5 14 18 22 25 29
        -0.96458        -0.74555         0.00051  20186158.23455  20186152.66658
        -0.24958         0.04454         0.00051  22725253.70754  22725251.53058
     -9741.21248     -7590.35544         0.00041  21237386.62444  21237376.57448
    188395.43447    146801.47044         0.00041  24155336.48844  24155335.59247
    -97483.57948    -75961.14044         0.00041  21041223.96744  21041218.42948
 94 02 12 18 52 30.0000000  0  5 14 18 22 25 29
     20001.22448     15585.38145         0.00041  20189965.50945  20189958.81648
    -70729.89848    -55113.82044         0.00041  22711794.45244  22711793.33348
    -17837.60348    -13899.20244         0.00041  21235843.43744  21235835.41948
    284094.41748    221371.45344         0.00041  24173550.93044  24173547.36448
   -128104.11948    -99821.26045         0.00041  21035395.18645  21035391.78048
 94 02 12 18 53 00.0000000  0  3 14 22 29
     38840.60648     30265.39346         0.00041  20193547.99446  20193543.97148
    -27120.97148    -21132.98546         0.00041  21234070.39446  21234069.07848
   -160359.44448   -124955.29246         0.00041  21029255.48546  21029253.76148
 94 02 12 18 53 30.0000000  0  3 14 22 29
     57456.37748     44771.06445         0.00041  20197085.20845  20197086.56548
    -36643.06848    -28552.78244         0.00041  21232260.94544  21232256.49048
   -193300.91948   -150624.10045         0.00041  21022980.15245  21022985.12348
 94 02 12 18 54 00.0000000  0  3 14 22 29
     71687.13448     55860.04446         0.00041  20199799.04646  20199794.22348
    -50529.84948    -39373.66146         0.00041  21229618.05446  21229615.22048
   -231051.81248   -180040.25546         0.00041  21015806.09446  21015800.73448
 94 02 12 18 54 30.0000000  0  3 14 22 29
     87248.77048     67985.97946         0.00041  20202759.50246  20202755.92048
    -63023.59948    -49108.97146         0.00041  21227242.01046  21227237.66348
   -267872.00648   -208731.30146         0.00041  21008797.51646  21008794.24448
 94 02 12 18 55 00.0000000  0  3 14 22 29
    103859.71148     80929.50346         0.00041  20205920.52246  20205916.50448
    -74403.99848    -57976.80745         0.00041  21225075.23845  21225071.04848
   -304033.68048   -236909.23145         0.00041  21001915.52745  21001913.26948
 94 02 12 18 55 30.0000000  0  3 14 22 29
    124727.56448     97190.14746         0.00041  20209892.66546  20209887.92548
    -81453.76448    -63470.13946         0.00041  21223732.37646  21223729.60048
   -336314.57148   -262063.19546         0.00041  20995773.03246  20995769.97948
 94 02 12 18 56 00.0000000  0  3 14 22 29
    146426.16948    114098.03546         0.00041  20214018.41846  20214017.36148
    -87607.24448    -68265.13845         0.00041  21222561.92345  21222558.90948
   -368131.61048   -286855.78845         0.00041  20989719.59245  20989714.89848
 94 02 12 18 56 30.0000000  0  4 14 22 25 29
    169218.81148    131858.54045         0.00041  20218358.71845  20218354.11748
    -92626.50348    -72176.22344         0.00041  21221606.03944  21221603.88948
        -0.42557         0.53654         0.00051  24313342.81054  24313341.89457
   -399233.01448   -311090.60945         0.00041  20983799.89245  20983797.11148
 94 02 12 18 57 00.0000000  0  2 14 29
    193350.77548    150662.59344         0.00041  20222948.51844  20222945.94948
   -429372.88848   -334576.34344         0.00041  20978063.41644  20978062.04948
 94 02 12 18 57 30.0000000  0  1 14
    217111.46148    169177.30944         0.00041  20227477.52244  20227468.34048
 94 02 12 18 58 00.0000000  0  1 14
    241597.58848    188257.44645         0.00041  20232129.93345  20232127.49148
 94 02 12 18 58 30.0000000  0  2 14 29
    267387.21048    208353.24844         0.00041  20237037.13644  20237035.51848
        -0.34058         0.13654         0.00051  20960733.41054  20960731.31958
 94 02 12 18 59 00.0000000  0  3 14 22 29
    293652.98648    228820.00644         0.00041  20242034.03944  20242033.40348
        -0.11958         0.70554         0.00051  21218918.33154  21218916.00658
    -29559.34848    -23032.82944         0.00041  20955109.28844  20955106.66548
 94 02 12 18 59 30.0000000  0  3 14 22 29
    320688.33248    249886.58545         0.00041  20247184.33745  20247177.93248
      -583.37548      -453.61144         0.00041  21218809.71244  21218804.94848
    -58751.88048    -45780.21944         0.00041  20949554.52944  20949551.56248
 94 02 12 19 00 00.0000000  0  3 14 22 29
    349008.13048    271953.97746         0.00041  20252571.55446  20252566.82948
       148.36248       116.60945         0.00041  21218947.68745  21218943.78248
    -87056.73448    -67835.87746         0.00041  20944168.20046  20944165.16148
 94 02 12 19 00 30.0000000  0  3 14 22 29
    377467.80948    294130.31246         0.00041  20257987.03746  20257983.27548
      1049.13948       818.48846         0.00041  21219117.51046  21219115.94248
   -115631.80648    -90102.16646         0.00041  20938730.11446  20938728.08448
 94 02 12 19 01 00.0000000  0  3 14 22 29
    404033.86848    314831.11846         0.00041  20263042.73646  20263038.43648
        90.12048        71.16346         0.00041  21218936.99246  21218933.19048
   -146514.86948   -114166.92646         0.00041  20932853.46746  20932850.97648
 94 02 12 19 05 00.0000000  0  2 18 22
        -0.37158         0.50054         0.00051  22371199.97654  22371194.43358
        -0.96558        -0.41354         0.00051  21225543.90054  21225542.84558
 94 02 12 19 05 30.0000000  0  2 18 22
    -71993.25948    -56097.81245         0.00041  22357500.48545  22357493.63448
      4227.27548      3294.36546         0.00041  21226351.90346  21226346.59748
 94 02 12 19 06 00.0000000  0  2 18 22
   -143773.18248   -112030.19945         0.00041  22343839.49445  22343836.44448
      9153.66448      7133.09846         0.00041  21227289.25546  21227284.51848
 94 02 12 19 06 30.0000000  0  2 18 22
   -215560.13248   -167968.05045         0.00041  22330179.50445  22330176.55348
     14569.54048     11353.23446         0.00041  21228319.23946  21228316.58148
 94 02 12 19 07 00.0000000  0  2 18 22
   -287145.86948   -223749.09345         0.00041  22316560.15845  22316553.12048
     20704.85948     16133.97046         0.00041  21229486.92146  21229483.05448
 94 02 12 19 07 30.0000000  0  2 18 22
   -358729.06148   -279528.20045         0.00041  22302938.90545  22302931.22048
     27369.37548     21327.09046         0.00041  21230755.85446  21230751.32448
 94 02 12 19 08 00.0000000  0  2 18 22
   -430218.54348   -335234.25245         0.00041  22289334.21645  22289330.13748
     34650.37648     27000.58746         0.00041  21232141.29146  21232136.37648
 94 02 12 19 08 30.0000000  0  2 18 22
   -501677.24348   -390916.30545         0.00041  22275735.41345  22275733.20148
     42489.21948     33108.74546         0.00041  21233632.05846  21233628.48648
 94 02 12 19 09 00.0000000  0  2 18 22
   -572890.11648   -446406.86645         0.00041  22262180.57345  22262179.40748
     51104.83848     39822.21446         0.00041  21235271.98746  21235267.44248
 94 02 12 19 09 30.0000000  0  2 18 22
   -644045.20348   -501852.36746         0.00041  22248638.94946  22248636.20748
     60311.18648     46995.97546         0.00041  21237023.59546  21237020.01848
 94 02 12 19 10 00.0000000  0  3 04 18 22
        -0.33757         0.33754         0.00051  24663145.34354  24663131.55557
   -715098.46448   -557218.54845         0.00041  22235121.11645  22235115.65748
     70158.82048     54669.44146         0.00041  21238898.00646  21238893.60048
 94 02 12 19 10 30.0000000  0  3 04 18 22
    -12689.05448     -9886.92044         0.00041  24660726.22244  24660722.01448
   -786124.62748   -612563.62546         0.00041  22221607.87846  22221601.69048
     80584.61548     62793.44146         0.00041  21240882.32046  21240878.01948
 94 02 12 19 11 00.0000000  0  3 04 18 22
    -24895.50848    -19398.59344         0.00041  24658399.74844  24658400.16948
   -857063.31048   -667840.50246         0.00041  22208109.00346  22208104.18148
     91620.58548     71392.89846         0.00041  21242982.65746  21242978.35848
 94 02 12 19 11 30.0000000  0  3 04 18 22
    -36635.76048    -28546.82644         0.00041  24656162.55944  24656163.05348
   -927912.67748   -723047.78346         0.00041  22194625.25346  22194622.00248
    103249.86048     80454.66246         0.00041  21245194.92546  21245190.85348
 94 02 12 19 12 00.0000000  0  3 04 18 22
    -47929.43448    -37347.11444         0.00041  24654016.77944  24654013.07348
   -998692.21648   -778200.61646         0.00041  22181156.16846  22181149.67148
    115439.28748     89952.89746         0.00041  21247514.63046  21247510.51748
 94 02 12 19 12 30.0000000  0  3 04 18 22
    -58790.63048    -45810.41244         0.00041  24651954.32844  24651947.40948
  -1069422.90548   -833315.44146         0.00041  22167694.09146  22167687.64648
    128150.41648     99857.66146         0.00041  21249933.72646  21249929.52848
 94 02 12 19 13 00.0000000  0  4 04 18 19 22
    -68546.48948    -53412.52844         0.00041  24650093.99944  24650092.03648
  -1139427.62748   -887864.58446         0.00041  22154375.93146  22154369.49048
        -0.72358        -0.44054         0.00051  23454762.09854  23454764.59858
    142058.64148    110695.22946         0.00041  21252580.48846  21252576.44048
 94 02 12 19 13 30.0000000  0  4 04 18 19 22
    -76653.31248    -59729.40544         0.00041  24648549.93044  24648547.72948
  -1208173.78448   -941432.98146         0.00041  22141295.39046  22141290.77548
    -80862.30048    -63009.51044         0.00041  23439375.00244  23439377.33448
    157733.26348    122909.22046         0.00041  21255563.00246  21255557.95948
 94 02 12 19 14 00.0000000  0  5 04 18 19 22 25
    -83924.28948    -65395.10744         0.00041  24647168.51244  24647164.85048
  -1276493.46648   -994669.07246         0.00041  22128294.74846  22128290.63148
   -161144.92648   -125567.19244         0.00041  23424110.85544  23424100.98848
    174359.86048    135865.00146         0.00041  21258725.22046  21258721.83648
        -1.14257        -0.77354         0.00051  24936251.05354  24936247.26057
 94 02 12 19 14 30.0000000  0  5 04 18 19 22 25
    -88136.59548    -68677.55544         0.00041  24646365.88944  24646361.89248
  -1342157.95048  -1045836.16146         0.00041  22115795.67246  22115791.61848
   -238616.24048   -185934.52444         0.00041  23409367.20144  23409358.05648
    194165.20748    151297.72446         0.00041  21262495.38146  21262490.90248
     96294.67148     75034.89444         0.00041  24954573.39044  24954572.64748
 94 02 12 19 15 00.0000000  0  5 04 18 19 22 25
    -88309.50748    -68812.33044         0.00041  24646333.33144  24646332.19448
  -1404198.25848  -1094179.22145         0.00041  22103988.12445  22103984.61348
   -312302.39248   -243352.42644         0.00041  23395334.11544  23395337.08348
    218133.32748    169974.16246         0.00041  21267057.42446  21267052.82648
    196105.95047    152810.53644         0.00041  24973567.53044  24973566.46347
 94 02 12 19 15 30.0000000  0  5 04 18 19 22 25
    -91049.07548    -70946.94844         0.00041  24645816.07744  24645812.10648
  -1469216.03248  -1144842.41645         0.00041  22091617.54545  22091614.37648
   -388831.94548   -302984.89344         0.00041  23380777.64544  23380772.68548
    239637.05148    186730.30546         0.00041  21271147.97346  21271144.25248
    292828.87448    228179.24344         0.00041  24991974.81944  24991973.50148
 94 02 12 19 16 00.0000000  0  3 04 18 22
    -94708.29047    -73798.08244         0.00041  24645121.47444  24645114.86247
  -1535548.31248  -1196530.07344         0.00041  22078996.33644  22078993.72048
    260309.53148    202838.61645         0.00041  21275083.81245  21275078.40048
 94 02 12 19 16 30.0000000  0  2 18 22
  -1602913.78448  -1249022.51244         0.00041  22066179.37044  22066173.42248
    280423.70248    218511.94344         0.00041  21278906.11444  21278905.75848
